[[{"header":{"parameterUnit":"m.s-1","parameterCategory":1,"la1":31.0,"la2":29.5877,"lo1":-88.7671,"lo2":-86.6584,"dy":0.0162,"dx":0.0185,"nx":115,"ny":88,"refTime":"2024-03-30T06:00:00:Z","depth":0,"parameterNumber":2,"parameterNumberName":"U-component_of_WINDS"},"data":[0.0,0.0,0.0,0.0,0.0,0.0,0.0,0.0,0.0,0.0,0.0,0.0,0.0,0.0,0.0,0.0,0.0,0.0,0.0,0.0,0.0,0.0,0.0,0.0,0.0,0.0,0.0,0.0,0.0,0.0,0.0,0.0,0.0,0.0,0.0,0.0,0.0,0.0,0.0,0.0,0.0,0.0,0.0,0.0,0.0,0.0,0.0,0.0,0.0,0.0,0.0,0.0,0.0,0.0,0.0,0.0,0.0,0.0,0.0,0.0,0.0,0.0,0.0,0.0,0.0,0.0,0.0,0.0,0.0,0.0,0.0,0.0,0.0,0.0,0.0,0.0,0.0,0.0,0.0,0.0,0.0,0.0,0.0,0.0,0.0,0.0,0.0,0.0,0.0,0.0,0.0,0.0,0.0,0.0,0.0,0.0,0.0,0.0,0.0,0.0,0.0,0.0,0.0,0.0,0.0,0.0,0.0,0.0,0.0,0.0,0.0,0.0,0.0,0.0,0.0,0.0,0.0,0.0,0.0,0.0,0.0,0.0,0.0,0.0,0.0,0.0,0.0,0.0,0.0,0.0,0.0,0.0,0.0,0.0,0.0,0.0,0.0,0.0,0.0,0.0,0.0,0.0,0.0,0.0,0.0,0.0,0.0,0.0,0.0,0.0,0.0,0.0,0.0,0.0,0.0,0.0,0.0,0.0,0.0,0.0,0.0,0.0,0.0,0.0,0.0,0.0,0.0,0.0,0.0,0.0,0.0,0.0,0.0,0.0,0.0,0.0,0.0,0.0,0.0,0.0,0.0,0.0,0.0,0.0,0.0,0.0,0.0,0.0,0.0,0.0,0.0,0.0,0.0,0.0,0.0,0.0,0.0,0.0,0.0,0.0,0.0,0.0,0.0,0.0,0.0,0.0,0.0,0.0,0.0,0.0,0.0,0.0,0.0,0.0,0.0,0.0,0.0,0.0,0.0,0.0,0.0,0.0,0.0,0.0,0.0,0.0,0.0,0.0,0.0,0.0,0.0,0.0,0.0,0.0,0.0,0.0,0.0,0.0,0.0,0.0,0.0,0.0,0.0,0.0,0.0,0.0,0.0,0.0,0.0,0.0,0.0,0.0,0.0,0.0,0.0,0.0,0.0,0.0,0.0,0.0,0.0,0.0,0.0,0.0,0.0,0.0,0.0,0.0,0.0,0.0,0.0,0.0,0.0,0.0,0.0,0.0,0.0,0.0,0.0,0.0,0.0,0.0,0.0,0.0,0.0,0.0,0.0,0.0,0.0,0.0,0.0,0.0,0.0,0.0,0.0,0.0,0.0,0.0,0.0,0.0,0.0,0.0,0.0,0.0,0.0,0.0,0.0,0.0,0.0,0.0,0.0,0.0,0.0,0.0,0.0,0.0,0.0,0.0,0.0,0.0,0.0,0.0,0.0,0.0,0.0,0.0,0.0,0.0,0.0,0.0,0.0,0.0,0.0,0.0,0.0,0.0,0.0,0.0,0.0,0.0,0.0,0.0,0.0,0.0,0.0,0.0,0.0,0.0,0.0,0.0,0.0,0.0,0.0,0.0,0.0,0.0,0.0,0.0,0.0,0.0,0.0,0.0,0.0,0.0,0.0,0.0,0.0,0.0,0.0,0.0,0.0,0.0,0.0,0.0,0.0,0.0,0.0,0.0,0.0,0.0,0.0,0.0,0.0,0.0,0.0,0.0,0.0,0.0,0.0,0.0,0.0,0.0,0.0,0.0,0.0,0.0,0.0,0.0,0.0,0.0,0.0,0.0,0.0,0.0,0.0,0.0,0.0,0.0,0.0,0.0,0.0,0.0,0.0,0.0,0.0,0.0,0.0,0.0,0.0,0.0,0.0,0.0,0.0,0.0,0.0,0.0,0.0,0.0,0.0,0.0,0.0,0.0,0.0,0.0,0.0,0.0,0.0,0.0,0.0,0.0,0.0,0.0,0.0,0.0,0.0,0.0,0.0,0.0,0.0,0.0,0.0,0.0,0.0,0.0,0.0,0.0,0.0,0.0,0.0,0.0,0.0,0.0,0.0,0.0,0.0,0.0,0.0,0.0,0.0,0.0,0.0,0.0,0.0,0.0,0.0,0.0,0.0,0.0,0.0,0.0,0.0,0.0,0.0,0.0,0.0,0.0,0.0,0.0,0.0,0.0,0.0,0.0,0.0,0.0,0.0,0.0,0.0,0.0,0.0,0.0,0.0,0.0,0.0,0.0,0.0,0.0,0.0,0.0,0.0,0.0,0.0,0.0,0.0,0.0,0.0,0.0,0.0,0.0,0.0,0.0,0.0,0.0,0.0,0.0,0.0,0.0,0.0,0.0,0.0,0.0,0.0,0.0,0.0,0.0,0.0,0.0,0.0,0.0,0.0,0.0,0.0,0.0,0.0,0.0,0.0,0.0,0.0,0.0,0.0,0.0,0.0,0.0,0.0,0.0,0.0,0.0,0.0,0.0,0.0,0.0,0.0,0.0,0.0,0.0,0.0,0.0,0.0,0.0,0.0,0.0,0.0,0.0,0.0,0.0,0.0,0.0,0.0,0.0,0.0,0.0,0.0,0.0,0.0,0.0,0.0,0.0,0.0,0.0,0.0,0.0,0.0,0.0,0.0,0.0,0.0,0.0,0.0,0.0,0.0,0.0,0.0,0.0,0.0,0.0,0.0,0.0,0.0,0.0,0.0,0.0,0.0,0.0,0.0,0.0,0.0,0.0,0.0,0.0,0.0,0.0,0.0,0.0,0.0,0.0,0.0,0.0,0.0,0.0,0.0,0.0,0.0,0.0,0.0,0.0,0.0,0.0,0.0,0.0,0.0,0.0,0.0,0.0,0.0,0.0,0.0,0.0,0.0,0.0,0.0,0.0,0.0,0.0,0.0,0.0,0.0,0.0,0.0,0.0,0.0,0.0,0.0,0.0,0.0,0.0,0.0,0.0,0.0,0.0,0.0,0.0,0.0,0.0,0.0,0.0,0.0,0.0,0.0,0.0,0.0,0.0,0.0,0.0,0.0,0.0,0.0,0.0,0.0,0.0,0.0,0.0,0.0,0.0,0.0,0.0,0.0,0.0,0.0,0.0,0.0,0.0,0.0,0.0,0.0,0.0,0.0,0.0,0.0,0.0,0.0,0.0,0.0,0.0,0.0,0.0,0.0,0.0,0.0,0.0,0.0,0.0,0.0,0.0,0.0,0.0,0.0,0.0,0.0,0.0,0.0,0.0,0.0,0.0,0.0,0.0,0.0,0.0,0.0,0.0,0.0,0.0,0.0,0.0,0.0,0.0,0.0,0.0,0.0,0.0,0.0,0.0,0.0,0.0,0.0,0.0,0.0,0.0,0.0,0.0,0.0,0.0,0.0,0.0,0.0,0.0,0.0,0.0,0.0,0.0,0.0,0.0,0.0,0.0,0.0,0.0,0.0,0.0,0.0,0.0,0.0,0.0,0.0,0.0,0.0,0.0,0.0,0.0,0.0,0.0,0.0,0.0,0.0,0.0,0.0,0.0,0.0,0.0,0.0,0.0,0.0,0.0,0.0,0.0,0.0,0.0,0.0,0.0,0.0,0.0,0.0,0.0,0.0,0.0,0.0,0.0,0.0,0.0,0.0,0.0,0.0,0.0,0.0,0.0,0.0,0.0,0.0,0.0,0.0,0.0,0.0,0.0,0.0,0.0,0.0,0.0,0.0,0.0,0.0,0.0,0.0,0.0,0.0,0.0,0.0,0.0,0.0,0.0,0.0,0.0,0.0,0.0,0.0,0.0,0.0,0.0,0.0,0.0,0.0,0.0,0.0,0.0,0.0,0.0,0.0,0.0,0.0,0.0,0.0,0.0,0.0,0.0,0.0,0.0,0.0,0.0,0.0,0.0,0.0,0.0,0.0,0.0,0.0,0.0,0.0,0.0,0.0,0.0,0.0,0.0,0.0,0.0,0.0,0.0,0.0,0.0,0.0,0.0,0.0,0.0,0.0,0.0,0.0,0.0,0.0,0.0,0.0,0.0,0.0,0.0,0.0,0.0,0.0,0.0,0.0,0.0,0.0,0.0,0.0,0.0,0.0,0.0,0.0,0.0,0.0,0.0,0.0,0.0,0.0,0.0,0.0,0.0,0.0,0.0,0.0,0.0,0.0,0.0,0.0,0.0,0.0,0.0,0.0,0.0,0.0,0.0,0.0,0.0,0.0,0.0,0.0,0.0,0.0,0.0,0.0,0.0,0.0,0.0,0.0,0.0,0.0,0.0,0.0,0.0,0.0,0.0,0.0,0.0,-0.5929,0.0,0.0,0.0,0.0,0.0,0.0,0.0,0.0,0.0,0.0,0.0,0.0,0.0,0.0,0.0,0.0,0.0,0.0,0.0,0.0,0.0,0.0,0.0,0.0,0.0,0.0,0.0,0.0,0.0,0.0,0.0,0.0,0.0,0.0,0.0,0.0,0.0,0.0,0.0,0.0,0.0,0.0,0.0,0.0,0.0,0.0,0.0,0.0,0.0,0.0,0.0,0.0,0.0,0.0,0.0,0.0,0.0,0.0,0.0,0.0,0.0,0.0,0.0,0.0,0.0,0.0,0.0,0.0,0.0,0.0,0.0,0.0,0.0,0.0,0.0,0.0,0.0,0.0,0.0,0.0,0.0,0.0,0.0,0.0,0.0,0.0,0.0,0.0,0.0,0.0,0.0,0.0,0.0,0.0,0.0,0.0,0.0,0.0,0.0,0.0,0.0,0.0,0.0,0.0,0.0,0.0,0.0,0.0,0.0,0.0,-0.4534,-0.4814,-0.5088,-0.5406,-0.5784,0.0,0.0,0.0,0.0,0.0,0.0,0.0,0.0,0.0,0.0,0.0,0.0,0.0,0.0,0.0,0.0,0.0,0.0,0.0,0.0,0.0,0.0,0.0,0.0,0.0,0.0,0.0,0.0,0.0,0.0,0.0,0.0,0.0,0.0,0.0,0.0,0.0,0.0,0.0,0.0,0.0,0.0,0.0,0.0,0.0,0.0,0.0,0.0,0.0,0.0,0.0,0.0,0.0,0.0,0.0,0.0,0.0,0.0,0.0,0.0,0.0,0.0,0.0,0.0,0.0,0.0,0.0,0.0,0.0,0.0,0.0,0.0,0.0,0.0,0.0,0.0,0.0,0.0,0.0,0.0,0.0,0.0,0.0,0.0,0.0,0.0,0.0,0.0,0.0,0.0,0.0,0.0,0.0,0.0,0.0,0.0,0.0,0.0,0.0,0.0,0.0,0.0,0.0,0.0,0.0,0.0,0.0,0.0,0.0,0.0,0.0,0.0,-0.4782,-0.5122,-0.5538,0.0,0.0,0.0,0.0,0.0,0.0,0.0,0.0,0.0,0.0,0.0,0.0,0.0,0.0,0.0,0.0,0.0,0.0,0.0,0.0,0.0,0.0,0.0,0.0,0.0,0.0,0.0,0.0,0.0,0.0,0.0,0.0,0.0,0.0,0.0,0.0,0.0,0.0,0.0,0.0,0.0,0.0,0.0,0.0,0.0,0.0,0.0,0.0,0.0,0.0,0.0,0.0,0.0,0.0,0.0,0.0,0.0,0.0,0.0,0.0,0.0,0.0,0.0,0.0,0.0,0.0,0.0,0.0,0.0,0.0,0.0,0.0,0.0,0.0,0.0,0.0,0.0,0.0,0.0,0.0,0.0,0.0,0.0,0.0,0.0,0.0,0.0,0.0,0.0,0.0,0.0,0.0,0.0,0.0,0.0,0.0,0.0,0.0,0.0,0.0,0.0,0.0,0.0,0.0,0.0,0.0,0.0,0.0,0.0,0.0,-0.397,-0.407,-0.4273,0.0,-0.5147,0.0,0.0,0.0,0.0,0.0,0.0,0.0,0.0,0.0,0.0,0.0,0.0,0.0,0.0,0.0,0.0,0.0,0.0,0.0,0.0,0.0,0.0,0.0,0.0,0.0,0.0,0.0,0.0,0.0,0.0,0.0,0.0,0.0,0.0,0.0,0.0,0.0,0.0,0.0,0.0,0.0,0.0,0.0,0.0,0.0,0.0,0.0,0.0,0.0,0.0,0.0,0.0,0.0,0.0,0.0,0.0,0.0,0.0,0.0,0.0,0.0,0.0,0.0,0.0,0.0,0.0,0.0,0.0,0.0,0.0,0.0,0.0,0.0,0.0,0.0,0.0,0.0,0.0,0.0,0.0,0.0,0.0,0.0,0.0,0.0,0.0,0.0,0.0,0.0,0.0,0.0,0.0,0.0,0.0,0.0,0.0,0.0,0.0,0.0,0.0,0.0,0.0,0.0,0.0,0.0,0.0,0.0,0.0,0.0,0.0,-0.3854,-0.3894,-0.4313,-0.4794,0.0,0.0,0.0,0.0,0.0,0.0,0.0,0.0,0.0,0.0,0.0,0.0,0.0,0.0,0.0,0.0,0.0,0.0,0.0,0.0,0.0,0.0,0.0,0.0,0.0,0.0,0.0,0.0,0.0,0.0,0.0,0.0,0.0,0.0,0.0,0.0,0.0,0.0,0.0,0.0,0.0,0.0,0.0,0.0,0.0,0.0,0.0,0.0,0.0,0.0,0.0,0.0,0.0,0.0,0.0,0.0,0.0,0.0,0.0,0.0,0.0,0.0,0.0,0.0,0.0,0.0,0.0,0.0,0.0,0.0,0.0,0.0,0.0,0.0,0.0,0.0,0.0,0.0,0.0,0.0,0.0,0.0,0.0,0.0,0.0,0.0,0.0,0.0,0.0,0.0,0.0,0.0,0.0,0.0,0.0,0.0,0.0,0.0,0.0,0.0,0.0,0.0,0.0,0.0,0.0,0.0,0.0,0.0,0.0,0.0,-0.3584,-0.3794,-0.3876,-0.4469,-0.4964,-0.5268,0.0,0.0,0.0,0.0,0.0,0.0,0.0,0.0,0.0,0.0,0.0,0.0,0.0,0.0,0.0,0.0,0.0,0.0,0.0,0.0,0.0,0.0,0.0,0.0,0.0,0.0,0.0,0.0,0.0,0.0,0.0,0.0,0.0,0.0,0.0,0.0,0.0,0.0,0.0,0.0,0.0,0.0,0.0,0.0,0.0,0.0,0.0,0.0,0.0,0.0,0.0,0.0,0.0,0.0,0.0,0.0,0.0,0.0,0.0,0.0,0.0,0.0,0.0,0.0,0.0,0.0,0.0,0.0,0.0,0.0,0.0,0.0,0.0,0.0,0.0,0.0,0.0,0.0,0.0,0.0,0.0,0.0,0.0,0.0,0.0,0.0,0.0,0.0,0.0,0.0,0.0,0.0,0.0,0.0,0.0,0.0,0.0,0.0,0.0,0.0,0.0,0.0,0.0,0.0,0.0,0.0,0.0,0.0,-0.2966,-0.3444,-0.3804,-0.4,-0.4688,-0.4987,0.0,0.0,0.0,0.0,0.0,0.0,0.0,0.0,0.0,0.0,0.0,0.0,0.0,0.0,0.0,0.0,0.0,0.0,0.0,0.0,0.0,0.0,0.0,0.0,0.0,0.0,0.0,0.0,0.0,0.0,0.0,0.0,0.0,0.0,0.0,0.0,0.0,0.0,0.0,0.0,0.0,0.0,0.0,0.0,0.0,0.0,0.0,0.0,0.0,0.0,0.0,0.0,0.0,0.0,0.0,0.0,0.0,0.0,0.0,0.0,0.0,0.0,0.0,0.0,0.0,0.0,0.0,0.0,0.0,0.0,0.0,0.0,0.0,0.0,0.0,0.0,0.0,0.0,0.0,0.0,0.0,0.0,0.0,0.0,0.0,0.0,0.0,0.0,0.0,0.0,0.0,0.0,0.0,0.0,0.0,0.0,0.0,0.0,0.0,0.0,0.0,0.0,0.0,0.0,0.0,0.0,0.0,0.0,0.0,-0.3182,-0.3517,-0.395,-0.4423,-0.4622,-0.482,0.0,0.0,0.0,0.0,0.0,0.0,0.0,0.0,0.0,0.0,0.0,0.0,0.0,0.0,0.0,0.0,0.0,0.0,0.0,0.0,0.0,0.0,0.0,0.0,0.0,0.0,0.0,0.0,0.0,0.0,0.0,0.0,0.0,0.0,0.0,0.0,0.0,0.0,0.0,0.0,0.0,0.0,0.0,0.0,0.0,0.0,0.0,0.0,0.0,0.0,0.0,0.0,0.0,0.0,0.0,0.0,0.0,0.0,0.0,0.0,0.0,0.0,0.0,0.0,0.0,0.0,0.0,0.0,0.0,0.0,0.0,0.0,0.0,0.0,0.0,0.0,0.0,0.0,0.0,0.0,0.0,0.0,0.0,0.0,0.0,0.0,0.0,0.0,0.0,0.0,0.0,0.0,0.0,0.0,0.0,0.0,0.0,0.0,0.0,0.0,0.0,0.0,0.0,0.0,0.0,0.0,0.0,0.0,0.0,-0.3469,0.0,-0.4356,-0.4893,-0.4914,-0.5077,0.0,0.0,0.0,0.0,0.0,0.0,0.0,0.0,0.0,0.0,0.0,0.0,0.0,0.0,0.0,0.0,0.0,0.0,0.0,0.0,0.0,0.0,0.0,0.0,0.0,0.0,0.0,0.0,0.0,0.0,0.0,0.0,0.0,0.0,0.0,0.0,0.0,0.0,0.0,0.0,0.0,0.0,0.0,0.0,0.0,0.0,0.0,0.0,0.0,0.0,0.0,0.0,0.0,0.0,0.0,0.0,0.0,0.0,0.0,0.0,0.0,0.0,0.0,0.0,0.0,0.0,0.0,0.0,0.0,0.0,0.0,0.0,0.0,0.0,0.0,0.0,0.0,0.0,0.0,0.0,0.0,0.0,0.0,0.0,0.0,0.0,0.0,0.0,0.0,0.0,0.0,0.0,0.0,0.0,0.0,0.0,0.0,0.0,0.0,0.0,0.0,0.0,0.0,0.0,0.0,0.0,0.0,0.0,-0.3421,-0.3807,-0.4528,-0.5049,-0.5406,-0.5599,-0.5763,0.0,0.0,0.0,0.0,0.0,0.0,0.0,0.0,0.0,0.0,0.0,0.0,0.0,0.0,0.0,0.0,0.0,0.0,0.0,0.0,0.0,0.0,0.0,0.0,0.0,0.0,0.0,0.0,0.0,0.0,0.0,0.0,0.0,0.0,0.0,0.0,0.0,0.0,0.0,0.0,0.0,0.0,0.0,0.0,0.0,0.0,0.0,0.0,0.0,0.0,0.0,0.0,0.0,0.0,0.0,0.0,0.0,0.0,0.0,0.0,0.0,0.0,0.0,0.0,0.0,0.0,0.0,0.0,0.0,0.0,0.0,0.0,0.0,0.0,0.0,0.0,0.0,0.0,0.0,0.0,0.0,0.0,0.0,0.0,0.0,0.0,0.0,0.0,0.0,0.0,0.0,0.0,0.0,0.0,0.0,0.0,0.0,0.0,0.0,0.0,0.0,0.0,0.0,0.0,0.0,0.0,0.0,0.0,0.0,-0.4354,-0.5068,-0.5627,-0.6008,-0.6277,-0.6406,0.0,0.0,0.0,0.0,0.0,0.0,0.0,0.0,0.0,0.0,0.0,0.0,0.0,0.0,0.0,0.0,0.0,0.0,0.0,0.0,0.0,0.0,0.0,0.0,0.0,0.0,0.0,0.0,0.0,0.0,0.0,0.0,0.0,0.0,0.0,0.0,0.0,0.0,0.0,0.0,0.0,0.0,0.0,0.0,0.0,0.0,0.0,0.0,0.0,0.0,0.0,0.0,0.0,0.0,0.0,0.0,0.0,0.0,0.0,0.0,0.0,0.0,0.0,0.0,0.0,0.0,0.0,0.0,0.0,0.0,0.0,0.0,0.0,0.0,0.0,0.0,0.0,0.0,0.0,0.0,0.0,0.0,0.0,0.0,0.0,0.0,0.0,0.0,0.0,0.0,0.0,0.0,0.0,0.0,0.0,0.0,0.0,0.0,0.0,0.0,0.0,0.0,0.0,0.0,0.0,0.0,0.0,0.0,0.0,-0.5053,-0.5672,-0.618,-0.6543,-0.6796,-0.692,-0.6958,0.0,0.0,0.0,0.0,0.0,0.0,0.0,0.0,0.0,0.0,0.0,0.0,0.0,0.0,0.0,0.0,0.0,0.0,0.0,0.0,0.0,0.0,0.0,0.0,0.0,0.0,0.0,0.0,0.0,0.0,0.0,0.0,0.0,0.0,0.0,0.0,0.0,0.0,0.0,0.0,0.0,0.0,0.0,0.0,0.0,0.0,0.0,0.0,0.0,0.0,0.0,0.0,0.0,0.0,0.0,0.0,0.0,0.0,0.0,0.0,0.0,0.0,0.0,0.0,0.0,0.0,0.0,0.0,0.0,0.0,0.0,0.0,0.0,0.0,0.0,0.0,0.0,0.0,0.0,0.0,0.0,0.0,0.0,0.0,0.0,0.0,0.0,0.0,0.0,0.0,0.0,0.0,0.0,0.0,0.0,0.0,0.0,0.0,0.0,0.0,0.0,0.0,0.0,0.0,0.0,0.0,0.0,0.0,-0.5793,-0.6291,-0.6725,-0.7046,-0.7257,-0.739,0.0,0.0,0.0,0.0,0.0,0.0,0.0,0.0,0.0,0.0,0.0,0.0,0.0,0.0,0.0,0.0,0.0,0.0,0.0,0.0,0.0,0.0,0.0,0.0,0.0,0.0,0.0,0.0,0.0,0.0,0.0,0.0,0.0,0.0,0.0,0.0,0.0,0.0,0.0,0.0,0.0,0.0,0.0,0.0,0.0,0.0,0.0,0.0,0.0,0.0,0.0,0.0,0.0,0.0,0.0,0.0,0.0,0.0,0.0,0.0,0.0,0.0,0.0,0.0,0.0,0.0,0.0,0.0,0.0,0.0,0.0,0.0,0.0,0.0,0.0,0.0,0.0,0.0,0.0,0.0,0.0,0.0,0.0,0.0,0.0,0.0,0.0,0.0,0.0,0.0,0.0,0.0,0.0,0.0,0.0,0.0,0.0,0.0,0.0,0.0,0.0,0.0,0.0,0.0,0.0,0.0,0.0,0.0,0.0,-0.5809,-0.6739,-0.7382,-0.7657,-0.786,-0.7941,0.0,0.0,0.0,0.0,0.0,0.0,0.0,0.0,0.0,0.0,0.0,0.0,0.0,0.0,0.0,0.0,0.0,0.0,0.0,0.0,0.0,0.0,0.0,0.0,0.0,0.0,0.0,0.0,0.0,0.0,0.0,0.0,0.0,0.0,0.0,0.0,0.0,0.0,0.0,0.0,0.0,0.0,0.0,0.0,0.0,0.0,0.0,0.0,0.0,0.0,0.0,0.0,0.0,0.0,0.0,0.0,0.0,0.0,0.0,0.0,0.0,0.0,0.0,0.0,0.0,0.0,0.0,0.0,0.0,0.0,0.0,0.0,0.0,0.0,0.0,0.0,0.0,0.0,0.0,0.0,0.0,0.0,0.0,0.0,0.0,0.0,0.0,0.0,0.0,0.0,0.0,0.0,0.0,0.0,0.0,0.0,0.0,0.0,0.0,0.0,0.0,0.0,0.0,0.0,0.0,0.0,0.0,0.0,-0.5604,-0.5925,-0.698,-0.7661,-0.7898,-0.7864,-0.7931,0.0,0.0,0.0,0.0,0.0,0.0,0.0,0.0,0.0,0.0,0.0,0.0,0.0,0.0,0.0,0.0,0.0,0.0,0.0,0.0,0.0,0.0,0.0,0.0,0.0,0.0,0.0,0.0,0.0,0.0,0.0,0.0,0.0,0.0,0.0,0.0,0.0,0.0,0.0,0.0,0.0,0.0,0.0,0.0,0.0,0.0,0.0,0.0,0.0,0.0,0.0,0.0,0.0,0.0,0.0,0.0,0.0,0.0,0.0,0.0,0.0,0.0,0.0,0.0,0.0,0.0,0.0,0.0,0.0,0.0,0.0,0.0,0.0,0.0,0.0,0.0,0.0,0.0,0.0,0.0,0.0,0.0,0.0,0.0,0.0,0.0,0.0,0.0,0.0,0.0,0.0,0.0,0.0,0.0,0.0,0.0,0.0,0.0,0.0,0.0,0.0,0.0,0.0,0.0,0.0,0.0,0.0,0.0,-0.5722,-0.6086,-0.7086,-0.7681,-0.7864,-0.7619,-0.765,0.0,0.0,0.0,0.0,0.0,0.0,0.0,0.0,0.0,0.0,0.0,0.0,0.0,0.0,0.0,0.0,0.0,0.0,0.0,0.0,0.0,0.0,0.0,0.0,0.0,0.0,0.0,0.0,0.0,0.0,0.0,0.0,0.0,0.0,0.0,0.0,0.0,0.0,0.0,0.0,0.0,0.0,0.0,0.0,0.0,0.0,0.0,0.0,0.0,0.0,0.0,0.0,0.0,0.0,0.0,0.0,0.0,0.0,0.0,0.0,0.0,0.0,0.0,0.0,0.0,0.0,0.0,0.0,0.0,0.0,0.0,0.0,0.0,0.0,0.0,0.0,0.0,0.0,0.0,0.0,0.0,0.0,0.0,0.0,0.0,0.0,0.0,0.0,0.0,0.0,0.0,0.0,0.0,0.0,0.0,0.0,0.0,0.0,0.0,0.0,0.0,0.0,0.0,0.0,0.0,0.0,0.0,0.0,-0.5847,-0.6117,-0.7077,-0.7676,-0.7821,-0.7909,-0.7938,0.0,0.0,0.0,0.0,0.0,0.0,0.0,0.0,0.0,0.0,0.0,0.0,0.0,0.0,0.0,0.0,0.0,0.0,0.0,0.0,0.0,0.0,0.0,0.0,0.0,0.0,0.0,0.0,0.0,0.0,0.0,0.0,0.0,0.0,0.0,0.0,0.0,0.0,0.0,0.0,0.0,0.0,0.0,0.0,0.0,0.0,0.0,0.0,-0.0446,0.0,0.0,0.0,0.0,0.0,0.0,0.0,0.0,0.0,0.0,0.0,0.0,0.0,0.0,0.0,0.0,0.0,0.0,0.0,0.0,0.0,0.0,0.0,0.0,0.0,0.0,0.0,0.0,0.0,0.0,0.0,0.0,0.0,0.0,0.0,0.0,0.0,0.0,0.0,0.0,0.0,0.0,0.0,0.0,0.0,0.0,0.0,0.0,0.0,0.0,0.0,0.0,0.0,0.0,0.0,0.0,0.0,0.0,0.0,-0.5986,-0.643,-0.7219,-0.77,-0.7802,-0.7918,-0.7947,0.0,0.0,0.0,0.0,0.0,0.0,0.0,0.0,0.0,0.0,0.0,0.0,0.0,0.0,0.0,0.0,0.0,0.0,0.0,0.0,0.0,0.0,0.0,0.0,0.0,0.0,0.0,0.0,0.0,0.0,0.0,0.0,0.0,0.0,0.0,0.0,0.0,0.0,0.0,0.0,0.0,0.0,0.0,0.0,0.0,0.0,0.0,0.0,0.0,0.0,0.0,0.0,0.0,0.0,0.0,0.0,0.0,0.0,0.0,0.0,0.0,0.0,0.0,0.0,0.0,0.0,0.0,0.0,0.0,0.0,0.0,0.0,0.0,0.0,0.0,0.0,0.0,0.0,0.0,0.0,0.0,0.0,0.0,0.0,0.0,0.0,0.0,0.0,0.0,0.0,0.0,0.0,0.0,0.0,0.0,0.0,0.0,0.0,0.0,0.0,0.0,0.0,0.0,0.0,0.0,0.0,0.0,-0.5421,-0.612,-0.6792,-0.7386,-0.7715,-0.7788,-0.785,-0.7807,-0.7642,0.0,0.0,0.0,0.0,0.0,0.0,0.0,0.0,0.0,0.0,0.0,0.0,0.0,0.0,0.0,0.0,0.0,0.0,0.0,0.0,0.0,0.0,0.0,0.0,0.0,0.0,0.0,0.0,0.0,0.0,0.0,0.0,0.0,0.0,0.0,0.0,0.0,0.0,-0.0667,-0.0664,0.0,0.0,0.0,0.0,0.0,0.0,0.0,0.0,-0.0809,0.0,0.0,0.0,0.0,0.0,0.0,0.0,0.0,0.0,0.0,0.0,0.0,0.0,0.0,0.0,0.0,0.0,0.0,0.0,0.0,0.0,0.0,0.0,0.0,0.0,0.0,0.0,0.0,0.0,0.0,0.0,0.0,0.0,0.0,0.0,0.0,0.0,0.0,0.0,0.0,0.0,0.0,0.0,0.0,0.0,0.0,0.0,0.0,0.0,0.0,0.0,0.0,0.0,0.0,0.0,0.0,-0.4699,-0.5416,-0.6118,-0.6779,-0.7324,-0.7642,-0.771,-0.7725,-0.7652,-0.7455,0.0,0.0,0.0,0.0,0.0,0.0,0.0,0.0,0.0,0.0,0.0,0.0,0.0,0.0,0.0,0.0,0.0,0.0,0.0,0.0,0.0,0.0,0.0,0.0,0.0,0.0,0.0,0.0,0.0,0.0,0.0,0.0,0.0,0.0,0.0,0.0,0.0,0.0,0.0,-0.0694,-0.0742,0.0,0.0,0.0,0.0,0.0,0.0,0.0,0.0,-0.1318,0.0,0.0,0.0,0.0,0.0,0.0,0.0,0.0,0.0,0.0,0.0,0.0,0.0,0.0,0.0,0.0,0.0,0.0,0.0,0.0,0.0,0.0,0.0,0.0,0.0,0.0,0.0,0.0,0.0,0.0,0.0,0.0,0.0,0.0,0.0,0.0,0.0,0.0,0.0,0.0,0.0,0.0,0.0,0.0,0.0,0.0,0.0,0.0,0.0,0.0,0.0,0.0,0.0,0.0,0.0,-0.4753,-0.5638,-0.6344,-0.6801,-0.7348,-0.7656,-0.7695,-0.7715,-0.7661,0.0,0.0,0.0,0.0,0.0,0.0,0.0,0.0,0.0,0.0,0.0,0.0,0.0,0.0,0.0,0.0,0.0,0.0,0.0,0.0,0.0,0.0,0.0,0.0,0.0,0.0,0.0,0.0,0.0,0.0,0.0,0.0,0.0,0.0,0.0,0.0,0.0,0.0,0.0,0.0,-0.09,-0.0981,-0.0921,0.0,0.0,0.0,0.0,0.0,0.0,-0.1596,-0.166,0.0,0.0,0.0,0.0,0.0,0.0,0.0,0.0,0.0,0.0,0.0,0.0,0.0,0.0,0.0,0.0,0.0,0.0,0.0,0.0,0.0,0.0,0.0,0.0,0.0,0.0,0.0,0.0,0.0,0.0,0.0,0.0,0.0,0.0,0.0,0.0,0.0,0.0,0.0,0.0,0.0,0.0,0.0,0.0,0.0,0.0,0.0,0.0,0.0,0.0,0.0,0.0,0.0,0.0,0.0,-0.4849,-0.5792,-0.6462,-0.6834,-0.7386,-0.7695,-0.7695,-0.7744,-0.7642,0.0,0.0,0.0,0.0,0.0,0.0,0.0,0.0,0.0,0.0,0.0,0.0,0.0,0.0,0.0,0.0,0.0,0.0,0.0,0.0,0.0,0.0,0.0,0.0,0.0,0.0,0.0,0.0,0.0,0.0,0.0,0.0,0.0,0.0,0.0,0.0,0.0,0.0,0.0,0.0,0.0,-0.1299,-0.1324,-0.1522,0.0,0.0,0.0,0.0,-0.1938,-0.1985,0.0,0.0,0.0,0.0,0.0,0.0,0.0,0.0,0.0,0.0,0.0,0.0,0.0,0.0,0.0,0.0,0.0,0.0,0.0,0.0,0.0,0.0,0.0,0.0,0.0,0.0,0.0,0.0,0.0,0.0,0.0,0.0,0.0,0.0,0.0,0.0,0.0,0.0,0.0,0.0,0.0,0.0,0.0,0.0,0.0,0.0,0.0,0.0,0.0,0.0,0.0,0.0,0.0,0.0,0.0,0.0,-0.4893,-0.5593,-0.6255,-0.6874,-0.7358,-0.7642,-0.7695,-0.7656,-0.75,0.0,0.0,0.0,0.0,0.0,0.0,0.0,0.0,0.0,0.0,0.0,0.0,0.0,0.0,0.0,0.0,0.0,0.0,0.0,0.0,0.0,0.0,0.0,0.0,0.0,0.0,0.0,0.0,0.0,0.0,0.0,0.0,0.0,0.0,0.0,0.0,0.0,0.0,0.0,0.0,0.0,-0.1754,-0.2031,-0.1996,-0.2095,0.0,0.0,-0.2419,-0.2419,-0.2365,0.0,0.0,0.0,0.0,0.0,0.0,0.0,0.0,0.0,0.0,0.0,0.0,0.0,0.0,0.0,0.0,0.0,0.0,0.0,0.0,0.0,0.0,0.0,0.0,0.0,0.0,0.0,0.0,0.0,0.0,0.0,0.0,0.0,0.0,0.0,0.0,0.0,0.0,0.0,0.0,0.0,0.0,0.0,0.0,0.0,0.0,0.0,0.0,0.0,0.0,0.0,0.0,0.0,0.0,0.0,-0.4489,-0.4758,-0.5728,-0.6358,-0.662,-0.7266,-0.7603,-0.7642,-0.7618,-0.7343,0.0,0.0,0.0,0.0,0.0,0.0,0.0,0.0,0.0,0.0,0.0,0.0,0.0,0.0,0.0,0.0,0.0,0.0,0.0,0.0,0.0,0.0,0.0,0.0,0.0,0.0,0.0,0.0,0.0,0.0,0.0,0.0,0.0,0.0,0.0,0.0,0.0,0.0,0.0,0.0,0.0,0.0,-0.256,-0.2667,0.0,0.0,0.0,-0.2924,-0.2907,0.0,0.0,0.0,0.0,0.0,0.0,0.0,0.0,0.0,0.0,0.0,0.0,0.0,0.0,0.0,0.0,0.0,0.0,0.0,0.0,0.0,0.0,0.0,0.0,0.0,0.0,0.0,0.0,0.0,0.0,0.0,0.0,0.0,0.0,0.0,0.0,0.0,0.0,0.0,0.0,0.0,0.0,0.0,0.0,0.0,0.0,0.0,0.0,0.0,0.0,0.0,0.0,0.0,0.0,0.0,0.0,0.0,-0.4681,-0.573,-0.6328,-0.6428,-0.7114,-0.7535,-0.7618,-0.7468,0.0,0.0,0.0,0.0,0.0,0.0,0.0,0.0,0.0,0.0,0.0,0.0,0.0,0.0,0.0,0.0,0.0,0.0,0.0,0.0,0.0,0.0,0.0,0.0,0.0,0.0,0.0,0.0,0.0,0.0,0.0,0.0,0.0,0.0,0.0,0.0,0.0,0.0,0.0,0.0,0.0,0.0,-0.3059,-0.3262,-0.3428,-0.3496,0.0,0.0,-0.3475,-0.3422,-0.3339,-0.3296,0.0,0.0,0.0,0.0,0.0,0.0,0.0,0.0,0.0,0.0,0.0,0.0,0.0,0.0,0.0,0.0,0.0,0.0,0.0,0.0,0.0,0.0,0.0,0.0,0.0,0.0,0.0,0.0,0.0,0.0,0.0,0.0,0.0,0.0,0.0,0.0,0.0,0.0,0.0,0.0,0.0,0.0,0.0,0.0,0.0,0.0,0.0,0.0,0.0,0.0,0.0,0.0,0.0,0.0,0.0,-0.4792,-0.5359,-0.594,-0.6474,-0.6908,-0.732,-0.7666,-0.7153,-0.6608,0.0,0.0,0.0,0.0,0.0,0.0,0.0,0.0,0.0,0.0,0.0,0.0,0.0,0.0,0.0,0.0,0.0,0.0,0.0,0.0,0.0,0.0,0.0,0.0,0.0,0.0,0.0,0.0,0.0,0.0,0.0,0.0,0.0,0.0,0.0,0.0,0.0,0.0,0.0,0.0,0.0,-0.4088,-0.4354,-0.4193,-0.4136,0.0,0.0,-0.4026,-0.3945,-0.3599,-0.3386,-0.3607,0.0,0.0,0.0,0.0,0.0,0.0,0.0,0.0,0.0,0.0,0.0,0.0,0.0,0.0,0.0,0.0,0.0,0.0,0.0,0.0,0.0,0.0,0.0,0.0,0.0,0.0,0.0,0.0,0.0,0.0,0.0,0.0,0.0,0.0,0.0,0.0,0.0,0.0,0.0,0.0,0.0,0.0,0.0,0.0,0.0,0.0,0.0,0.0,0.0,0.0,0.0,0.0,0.0,-0.4585,-0.5049,-0.5534,-0.6062,-0.6607,-0.6969,-0.7326,-0.7622,-0.7101,-0.6459,0.0,0.0,0.0,0.0,0.0,0.0,0.0,0.0,0.0,0.0,0.0,0.0,0.0,0.0,0.0,0.0,0.0,0.0,0.0,0.0,0.0,0.0,0.0,0.0,0.0,0.0,0.0,0.0,-0.0655,-0.0819,-0.1184,0.0,0.0,0.0,0.0,0.0,0.0,0.0,0.0,0.0,0.0,-0.5128,-0.5232,-0.511,0.0,0.0,-0.4676,-0.4452,-0.4285,-0.3993,-0.3719,-0.3479,-0.3218,0.0,0.0,0.0,0.0,0.0,0.0,0.0,0.0,0.0,0.0,0.0,0.0,0.0,0.0,0.0,0.0,0.0,0.0,0.0,0.0,0.0,0.0,0.0,0.0,0.0,0.0,0.0,0.0,0.0,0.0,0.0,0.0,0.0,0.0,0.0,0.0,0.0,0.0,0.0,0.0,0.0,0.0,0.0,0.0,0.0,0.0,0.0,0.0,0.0,0.0,0.0,0.0,-0.4853,-0.5292,-0.5754,-0.6232,-0.6775,-0.7074,-0.7385,-0.7642,-0.6978,-0.625,0.0,0.0,0.0,0.0,0.0,0.0,0.0,0.0,0.0,0.0,0.0,0.0,0.0,0.0,0.0,0.0,0.0,0.0,0.0,0.0,0.0,0.0,0.0,0.0,0.0,0.0,0.0,0.0,-0.1163,-0.145,-0.1869,0.0,0.0,0.0,0.0,0.0,0.0,0.0,0.0,0.0,0.0,-0.6215,-0.6104,-0.6029,-0.5844,-0.5408,-0.5172,-0.4947,-0.465,-0.4388,-0.41,-0.3727,0.0,0.0,0.0,0.0,0.0,0.0,0.0,0.0,0.0,0.0,0.0,0.0,0.0,0.0,0.0,0.0,0.0,0.0,0.0,0.0,0.0,0.0,0.0,0.0,0.0,0.0,0.0,0.0,0.0,0.0,-1.0145,0.0,0.0,0.0,0.0,0.0,0.0,0.0,0.0,0.0,0.0,0.0,0.0,0.0,0.0,0.0,0.0,0.0,0.0,0.0,0.0,0.0,0.0,-0.5396,-0.5493,-0.5961,-0.6455,-0.6988,-0.7192,-0.7498,-0.7844,-0.6732,-0.585,-0.5281,0.0,0.0,0.0,0.0,0.0,0.0,0.0,0.0,0.0,0.0,0.0,0.0,0.0,0.0,0.0,0.0,0.0,0.0,0.0,0.0,0.0,0.0,0.0,0.0,0.0,0.0,-0.1143,-0.1876,-0.2504,0.0,0.0,0.0,0.0,0.0,0.0,0.0,0.0,0.0,0.0,-0.7441,-0.7425,-0.704,-0.6916,-0.6665,-0.6014,-0.5727,-0.5486,-0.5163,-0.4772,-0.4487,0.0,0.0,0.0,0.0,0.0,0.0,0.0,0.0,0.0,0.0,0.0,0.0,0.0,0.0,0.0,0.0,0.0,0.0,0.0,0.0,0.0,0.0,0.0,0.0,0.0,0.0,0.0,-1.0982,-1.097,0.0,0.0,0.0,0.0,0.0,0.0,0.0,0.0,0.0,0.0,0.0,-1.182,-1.1645,0.0,0.0,0.0,0.0,0.0,0.0,0.0,0.0,0.0,0.0,0.0,0.0,-0.5452,-0.5817,-0.6244,-0.6684,-0.7118,-0.7423,-0.7677,-0.7868,-0.6592,-0.5276,-0.3955,0.0,0.0,0.0,0.0,0.0,0.0,0.0,0.0,0.0,0.0,0.0,0.0,0.0,0.0,0.0,0.0,0.0,0.0,0.0,0.0,0.0,0.0,0.0,0.0,0.0,-0.1982,0.0,0.0,0.0,0.0,0.0,0.0,0.0,0.0,0.0,0.0,0.0,-0.7942,-0.8258,-0.8696,-0.8783,-0.822,-0.8077,-0.7813,0.0,0.0,0.0,0.0,0.0,0.0,0.0,0.0,0.0,0.0,0.0,0.0,0.0,0.0,-0.3634,-0.2744,-0.2547,-0.2455,-0.2249,0.0,0.0,0.0,0.0,0.0,0.0,0.0,0.0,0.0,0.0,0.0,0.0,0.0,0.0,-1.1823,0.0,-1.1812,0.0,0.0,0.0,0.0,0.0,0.0,0.0,0.0,-1.2575,-1.2527,-1.2366,-1.221,-1.1935,0.0,-1.1347,-1.0615,0.0,0.0,0.0,0.0,0.0,0.0,0.0,0.0,-0.6387,-0.6756,-0.7112,-0.7395,-0.7583,-0.786,-0.8023,-0.8043,-0.6555,-0.5015,-0.3491,-0.339,-0.3273,0.0,0.0,0.0,0.0,0.0,0.0,0.0,0.0,0.0,0.0,0.0,0.0,0.0,0.0,0.0,0.0,0.0,0.0,0.0,0.0,0.0,0.0,0.0,-0.2942,0.0,0.0,0.0,0.0,0.0,0.0,0.0,0.0,0.0,-0.7554,-0.8459,-0.9217,-0.9493,-0.9851,-0.9894,-0.9403,0.0,0.0,0.0,0.0,0.0,0.0,0.0,-0.6868,-0.6561,-0.6213,-0.6,-0.5951,-0.5383,-0.5176,-0.5815,0.0,0.0,-0.4026,-0.369,-0.3651,-0.3452,-0.3414,-0.3361,-0.3136,-0.3014,-0.2986,0.0,0.0,0.0,0.0,0.0,0.0,0.0,0.0,-1.2601,-1.2633,0.0,-1.2603,0.0,0.0,0.0,0.0,0.0,-1.2926,0.0,0.0,-1.3043,-1.2979,-1.2889,-1.2633,-1.234,-1.2019,-1.1753,-1.149,-1.1139,-1.0049,0.0,0.0,0.0,0.0,0.0,0.0,-0.8159,-0.8177,-0.8427,-0.8511,-0.8314,-0.8517,-0.8515,-0.8279,-0.6581,-0.5074,-0.3912,-0.3377,-0.3014,-0.2783,-0.2721,0.0,0.0,0.0,0.0,0.0,0.0,0.0,0.0,0.0,0.0,0.0,0.0,0.0,0.0,0.0,0.0,0.0,0.0,0.0,0.0,-0.3581,0.0,0.0,0.0,0.0,0.0,0.0,0.0,0.0,0.0,0.0,-0.9657,-0.9848,-1.0234,-1.093,0.0,0.0,0.0,0.0,-1.0059,-1.0174,-0.9843,-0.9433,-0.904,-0.9023,-0.8908,-0.8522,0.0,0.0,-0.7616,-0.6767,-0.6479,-0.741,-0.8326,-0.8178,-0.5504,-0.4899,-0.469,-0.4566,-0.4571,-0.4508,-0.4484,-0.4378,-0.4252,-1.3185,0.0,0.0,0.0,0.0,-1.3071,-1.3055,-1.3081,-1.3218,-1.3252,-1.3244,-1.3193,0.0,0.0,0.0,0.0,0.0,0.0,-1.3428,-1.3394,-1.3478,-1.3354,-1.3097,-1.2992,-1.2748,-1.242,-1.2251,-1.2003,-1.1677,-1.1212,-1.0699,-1.017,0.0,0.0,0.0,0.0,-0.8555,-0.8505,-0.88,-0.8826,-0.8597,-0.8884,-0.8374,-0.7019,-0.6483,-0.5329,-0.342,-0.3355,-0.3028,-0.2284,-0.2394,0.0,0.0,0.0,0.0,0.0,0.0,0.0,0.0,0.0,0.0,0.0,0.0,0.0,0.0,0.0,0.0,0.0,0.0,0.0,-0.4422,-0.4829,-0.5218,0.0,0.0,0.0,0.0,0.0,0.0,0.0,0.0,0.0,-1.2829,-1.2429,-1.2327,0.0,0.0,-1.2755,-1.1462,-1.1888,-1.2298,-1.218,-1.1716,0.0,-1.081,-1.0537,-1.0274,-1.0065,-0.976,-0.9516,-0.9429,-0.9101,-0.8961,-0.9268,-0.9758,-0.9732,-0.8693,-0.7504,-0.6787,-0.6687,-0.6687,-0.6633,-0.6491,-0.635,-0.6268,-1.2946,-1.2586,-1.3115,-1.3395,-1.3453,-1.3485,-1.3476,-1.3451,-1.3608,-1.3647,-1.3661,-1.3644,-1.3659,-1.3692,-1.3653,0.0,0.0,0.0,-1.3698,-1.3669,-1.3692,-1.3598,-1.3387,-1.327,-1.3063,-1.2792,-1.2636,-1.2417,-1.2123,-1.1908,-1.1579,-1.1161,0.0,0.0,-1.0288,-0.9856,-0.9578,-0.9491,-0.9559,-0.9464,-0.9194,-0.9161,-0.8411,-0.6826,-0.6535,-0.5583,-0.3772,-0.3462,-0.3037,-0.2383,-0.2305,-0.263,0.0,0.0,0.0,0.0,0.0,0.0,0.0,0.0,0.0,0.0,0.0,-0.4156,0.0,0.0,0.0,0.0,-0.5215,-0.5195,-0.536,-0.61,0.0,0.0,0.0,0.0,0.0,0.0,0.0,-1.2231,-1.2782,-1.3574,-1.4848,-1.4518,-1.421,-1.4299,-1.4342,-1.4039,-1.3149,0.0,-1.3622,-1.3583,-1.322,-1.2825,-1.2548,-1.2301,-1.204,-1.1606,-1.1371,-1.1174,-1.101,-1.0927,-1.0862,-1.0853,-1.1116,-1.1257,-1.0807,-0.9935,-0.9083,-0.852,-0.8399,-0.8339,-0.8148,-0.8038,-0.794,-1.2229,-1.1631,-1.2983,-1.3574,-1.3638,-1.3706,-1.3731,-1.3726,-1.3863,-1.3905,-1.392,-1.398,-1.4026,-1.403,-1.4009,0.0,-1.3933,-1.3931,-1.3941,-1.3918,-1.3799,-1.3746,-1.3702,-1.3536,-1.3329,-1.3116,-1.2928,-1.2722,-1.2509,-1.2256,-1.2071,-1.1902,-1.1497,-1.1262,-1.1213,-1.1027,-1.0897,-1.0825,-1.056,-1.0249,-0.9893,-0.9393,-0.8547,-0.7359,-0.6706,-0.5814,-0.4656,-0.3723,-0.3131,-0.2982,-0.2461,-0.2602,-0.3541,0.0,0.0,0.0,0.0,0.0,0.0,0.0,0.0,0.0,0.0,0.0,0.0,0.0,0.0,0.0,-0.6112,0.0,-0.6133,-0.7411,0.0,0.0,0.0,-1.0212,-1.0895,-1.1759,-1.266,-1.3525,0.0,0.0,-1.6008,-1.6163,-1.585,-1.4941,-1.4815,-1.4943,-1.5299,-1.4757,-1.4396,-1.4654,-1.4501,-1.4298,-1.4113,-1.4061,-1.3762,-1.3044,-1.2839,-1.2648,-1.2401,-1.233,-1.2307,-1.2164,-1.2431,-1.2543,-1.2175,-1.1984,-1.159,-1.0195,-0.9837,-0.9749,-0.9625,-0.945,-0.9356,-1.2896,-1.1689,-1.2025,-1.2531,-1.3083,-1.3097,-1.346,-1.3995,-1.4037,-1.405,-1.4046,-1.4119,-1.4145,-1.4152,-1.4101,-1.4083,-1.4127,-1.4141,-1.4121,-1.413,-1.4098,-1.3988,-1.3834,-1.3748,-1.3557,-1.3337,-1.3123,-1.2909,-1.2731,-1.2512,-1.2313,-1.2133,-1.198,-1.174,-1.1515,-1.1353,-1.119,-1.1027,-1.0779,-1.0399,-0.9918,-0.9618,-0.8868,-0.7565,-0.7237,-0.6327,-0.4831,-0.4426,-0.4048,-0.3612,-0.3071,-0.3093,-0.3774,-0.3215,0.0,0.0,0.0,0.0,0.0,0.0,0.0,0.0,0.0,-0.5197,-0.6184,0.0,-0.6377,0.0,-0.7972,-0.8268,-0.7997,-0.8907,0.0,0.0,-1.0617,-1.1458,-1.2177,-1.2975,-1.4029,-1.538,-1.5718,-1.6174,-1.7032,-1.7125,-1.7023,-1.6825,-1.6681,-1.6613,-1.671,-1.6365,-1.6082,-1.6061,-1.5814,-1.5571,-1.5299,-1.496,-1.4598,-1.4251,-1.4057,-1.3894,-1.368,-1.3609,-1.3529,-1.3399,-1.3399,-1.3382,-1.3247,-1.3196,-1.3012,-1.2483,-1.1827,-1.126,-1.1212,-1.1108,-1.0996,-1.3334,-1.2246,-1.2282,-1.2764,-1.3456,-1.2764,-1.2926,-1.3645,-1.3646,-1.4067,-1.4783,-1.518,-1.5157,-1.4812,-1.4774,-1.4388,-1.3732,-1.3714,-1.3515,-1.3215,-1.3897,-1.4109,-1.3998,-1.4249,-1.4433,-1.4538,-1.4032,-1.3816,-1.3907,-1.3721,-1.3494,-1.3266,-1.3177,-1.2973,-1.2684,-1.1925,-1.1441,-1.127,-1.092,-1.0545,-1.0186,-0.9892,-0.912,-0.787,-0.7531,-0.6703,-0.5253,-0.4898,-0.4674,-0.4517,-0.3978,-0.4032,-0.4809,-0.4228,-0.4061,0.0,0.0,0.0,0.0,0.0,0.0,0.0,0.0,0.0,0.0,0.0,-0.7459,-0.8807,-0.9393,-0.9602,-0.9464,-1.025,-1.0987,-1.1459,-1.2252,-1.3039,-1.375,-1.457,-1.5438,-1.6287,-1.6697,-1.7087,-1.7557,-1.7595,-1.7589,-1.763,-1.7536,-1.741,-1.7256,-1.7093,-1.6926,-1.6802,-1.6594,-1.6353,-1.6065,-1.5739,-1.5448,-1.5196,-1.5046,-1.4908,-1.4631,-1.4552,-1.4503,-1.4363,-1.4283,-1.4232,-1.4187,-1.4074,-1.396,-1.3792,-1.334,-1.2807,-1.2419,-1.2216,-1.2126,-1.3839,-1.2955,-1.2986,-1.3395,-1.3895,-1.2505,-1.2486,-1.3407,-1.3315,-1.4138,-1.5655,-1.6338,-1.6319,-1.5764,-1.5789,-1.4987,-1.3606,-1.3479,-1.3062,-1.248,-1.3665,-1.4177,-1.4138,-1.4711,-1.5234,-1.5671,-1.4882,-1.4734,-1.5174,-1.497,-1.4794,-1.4645,-1.4495,-1.4334,-1.4096,-1.2731,-1.1892,-1.1608,-1.127,-1.0985,-1.0762,-1.0405,-0.9654,-0.8536,-0.8061,-0.7289,-0.6166,-0.5564,-0.5385,-0.5647,-0.5123,-0.5215,-0.6108,-0.5612,-0.5211,0.0,-0.4713,0.0,0.0,0.0,0.0,0.0,0.0,0.0,0.0,-0.7674,-0.878,-1.0174,-1.0462,-1.0663,-1.0825,-1.1596,-1.241,-1.3238,-1.3949,-1.4642,-1.5309,-1.6134,-1.6656,-1.6757,-1.7389,-1.7822,-1.7833,-1.7833,-1.7828,-1.7856,-1.7861,-1.7743,-1.7502,-1.7392,-1.7284,-1.7105,-1.7018,-1.6799,-1.6541,-1.6409,-1.6229,-1.5963,-1.5838,-1.5724,-1.5404,-1.536,-1.5301,-1.518,-1.509,-1.5044,-1.5029,-1.4814,-1.4658,-1.4627,-1.4467,-1.4098,-1.3361,-1.3062,-1.2948,-1.488,-1.3082,-1.3076,-1.2835,-1.2401,-1.2095,-1.3186,-1.5089,-1.4441,-1.4696,-1.5602,-1.5754,-1.6139,-1.6634,-1.6653,-1.6483,-1.616,-1.5514,-1.5117,-1.4971,-1.4557,-1.4282,-1.418,-1.4252,-1.4285,-1.4286,-1.3956,-1.4059,-1.4577,-1.4367,-1.4467,-1.482,-1.4656,-1.4495,-1.4331,0.0,0.0,0.0,-1.2476,-1.2495,-1.2225,-1.1977,-1.1439,-1.056,-0.9881,0.0,-0.8329,-0.7622,-0.7239,-0.7178,-0.6702,0.0,0.0,0.0,0.0,0.0,0.0,0.0,0.0,0.0,0.0,0.0,-0.7483,-0.8121,-0.8729,-0.9734,-1.0454,-1.0753,-1.1286,-1.1884,-1.2527,-1.3306,-1.411,-1.4924,-1.5164,-1.5546,-1.6321,-1.6631,-1.6972,-1.7578,-1.7826,-1.7983,-1.8037,-1.8048,-1.8059,-1.8119,-1.8136,-1.8098,-1.8044,-1.7794,-1.7607,-1.7479,-1.7301,-1.7113,-1.7002,-1.6841,-1.6725,-1.6607,-1.6499,-1.6367,-1.6203,-1.6162,-1.6093,-1.594,-1.5883,-1.5797,-1.5652,-1.5536,-1.5419,-1.5329,-1.5195,-1.4875,-1.4071,-1.3888,-1.3822,-1.53,0.0,-1.3841,-1.3702,0.0,-1.3338,-1.4108,-1.5504,-1.4356,-1.4538,-1.5722,-1.6107,-1.6328,-1.6347,-1.6372,-1.5913,-1.5135,-1.4706,-1.429,-1.395,-1.4259,-1.4338,-1.4268,-1.4553,-1.4837,-1.5047,-1.452,-1.4504,-1.5013,-1.4827,-1.499,-1.5476,-1.5321,-1.532,-1.5465,-1.5291,-1.4465,-1.2988,-1.3194,-1.3169,-1.2899,-1.2664,-1.2184,-1.1468,-1.09,0.0,0.0,0.0,0.0,0.0,0.0,0.0,0.0,-0.7832,0.0,-0.6551,-0.6516,-0.6681,-0.7028,-0.7583,-0.8083,-0.8607,-0.991,-1.0514,-1.0181,-1.1299,-1.2182,-1.2548,-1.324,-1.3859,-1.4281,-1.4697,-1.5286,-1.6082,-1.6207,-1.6554,-1.7243,-1.7459,-1.7638,-1.7982,-1.8082,-1.818,-1.8243,-1.8243,-1.8281,-1.8332,-1.8342,-1.8342,-1.8339,-1.8123,-1.7911,-1.7811,-1.767,-1.7514,-1.7415,-1.732,-1.7187,-1.713,-1.7043,-1.693,-1.676,-1.6712,-1.6646,-1.6528,-1.6423,-1.6315,-1.6217,-1.6063,-1.5923,-1.5839,-1.5711,-1.5477,-1.4923,-1.4627,-1.442,-1.5548,-1.5363,-1.4757,-1.4807,-1.5259,-1.4646,-1.4781,-1.5311,0.0,0.0,0.0,-1.6503,-1.6515,-1.6011,-1.5993,-1.5298,-1.4059,-1.3829,-1.3398,-1.2816,-1.3887,-1.4393,-1.4355,-1.4878,-1.541,-1.5843,-1.509,-1.5003,-1.5492,-1.5307,-1.5479,-1.5894,-1.5808,-1.5955,-1.6391,-1.6295,-1.556,-1.4208,-1.3968,-1.3769,-1.3566,-1.3346,-1.2941,-1.2372,-1.1912,-1.1429,-1.0924,-1.0585,-1.0522,-1.0783,-1.0637,-1.0478,-1.0358,-0.9941,-0.9171,-0.8096,-0.8236,-0.8328,-0.8236,-0.8911,-0.9789,-1.0799,-1.2252,-1.2706,-1.1663,-1.2832,-1.388,-1.4495,-1.5158,-1.5629,-1.5821,-1.5897,-1.6255,-1.7041,-1.7185,-1.7463,-1.8035,-1.8201,-1.8201,-1.8246,-1.8436,-1.8567,-1.865,-1.8681,-1.8676,-1.8708,-1.8667,-1.8544,-1.8514,-1.8363,-1.8194,-1.8091,-1.7971,-1.7905,-1.7811,-1.7783,-1.7698,-1.7542,-1.7507,-1.7408,-1.7252,-1.7154,-1.7064,-1.6977,-1.6841,-1.6712,-1.6659,-1.6472,-1.6311,-1.627,-1.6122,-1.5926,-1.571,-1.5344,-1.4995,-1.6063,-1.5463,-1.5379,-1.4999,-1.4469,-1.4423,-1.4484,-1.4647,-1.4431,-1.4901,-1.5797,-1.5925,-1.6282,-1.6829,-1.6829,-1.6719,-1.6442,-1.5777,-1.5385,-1.5257,-1.4732,-1.4453,-1.4381,-1.4409,-1.4387,-1.431,-1.4142,-1.4294,-1.4692,-1.4606,-1.4823,-1.5317,-1.5223,-1.5349,-1.5729,-1.6171,-1.6196,-1.5848,-1.5485,-1.5184,-1.5007,-1.4918,-1.4741,-1.4461,-1.381,-1.3429,-1.3217,-1.2142,-1.1543,-1.1547,-1.0985,-1.0667,-1.0628,-1.0209,-0.9914,-0.9818,-0.9677,-0.9624,-0.9781,-1.011,-1.0994,-1.2551,-1.3073,-1.3453,-1.3907,-1.4737,-1.5334,-1.5503,-1.5695,-1.605,-1.6688,-1.6794,-1.7126,-1.7862,-1.8021,-1.8111,-1.8294,-1.838,-1.8435,-1.8432,-1.902,-1.9506,-1.9527,-1.9578,-1.9621,-1.96,-1.9248,-1.8796,-1.8794,-1.8534,-1.8403,-1.8335,-1.8236,-1.8156,-1.8114,-1.8068,-1.8009,-1.7922,-1.7867,-1.7743,-1.7561,-1.7519,-1.7444,-1.7284,-1.7163,-1.7089,-1.7039,-1.6879,-1.6712,-1.663,-1.6448,-1.626,-1.6066,-1.5883,-1.5682,-1.5132,-1.4872,-1.4861,-1.4637,-1.4306,-1.4381,-1.4428,-1.4499,-1.4545,-1.4775,-1.5126,-1.5149,-1.5369,-1.5738,-1.5751,-1.5751,-1.5738,-1.5326,-1.5167,-1.5126,-1.4706,-1.447,-1.4393,-1.4337,-1.4223,-1.4046,-1.3988,-1.4019,-1.4096,-1.3982,-1.4197,-1.4735,-1.4874,-1.4995,-1.5066,-1.5257,-1.5315,-1.5193,-1.5646,-1.5769,-1.5566,-1.5154,-1.4834,-1.4616,-1.3899,-1.3501,-1.3431,-1.2827,-1.2479,-1.2466,-1.2148,-1.1879,-1.1589,-1.14,-1.1113,-1.0681,-1.0892,-1.1003,-1.0927,-1.1888,-1.2846,-1.375,-1.4648,-1.5119,-1.5099,-1.5814,-1.6105,-1.579,-1.6517,-1.7064,-1.705,-1.742,-1.7889,-1.8252,-1.8338,-1.8563,-1.8981,-1.912,-1.9318,-1.9713,-2.0125,-2.0435,-2.0522,-2.0527,-2.0588,-2.0594,-2.0026,-1.9596,-1.9579,-1.9102,-1.8687,-1.8556,-1.8487,-1.841,-1.8408,-1.8365,-1.8284,-1.8191,-1.8142,-1.8057,-1.7894,-1.7856,-1.7738,-1.7612,-1.7479,-1.7425,-1.7377,-1.7167,-1.703,-1.6926,-1.6747,-1.6554,-1.6369,-1.6177,-1.5926,-1.4231,-1.4318,-1.4318,-1.4318,-1.4319,-1.4387,-1.4447,-1.4512,-1.4567,-1.4594,-1.4581,-1.4627,-1.4654,-1.4706,-1.4706,-1.4706,-1.4701,-1.4643,-1.4622,-1.4581,-1.4545,-1.4482,-1.4405,-1.4356,-1.4244,-1.4112,-1.4047,-1.3902,-1.3738,-1.3583,-1.3684,-1.4076,-1.4476,-1.461,-1.4417,-1.4481,-1.4456,-1.4417,-1.5258,-1.5625,-1.539,-1.4988,-1.464,-1.4257,-1.3683,-1.334,-1.3314,-1.312,-1.3036,-1.3049,-1.292,-1.2667,-1.2288,-1.2303,-1.203,-1.1495,-1.2215,-1.279,-1.3028,-1.4176,-1.5095,-1.5455,-1.6574,-1.7139,-1.6867,-1.7287,-1.7236,-1.6603,-1.7783,-1.8474,-1.8135,-1.8488,-1.8885,-1.8943,-1.9032,-1.9371,-1.987,-2.0035,-2.0289,-2.0884,-2.1171,-2.1331,-2.1429,-2.1481,-2.1454,-2.1255,-2.0851,-2.0563,-2.0481,-1.9856,-1.9281,-1.9094,-1.8868,-1.8677,-1.8676,-1.8592,-1.8497,-1.8381,-1.8358,-1.8277,-1.817,-1.8091,-1.8005,-1.7867,-1.7755,-1.7675,-1.7634,-1.7465,-1.7276,-1.7175,-1.6989,-1.6773,-1.6541,-1.6342,-1.6095,-1.4231,-1.4293,-1.4318,-1.4331,-1.438,-1.4411,-1.4435,-1.4507,-1.458,-1.4594,-1.4655,-1.4661,-1.472,-1.4706,-1.4725,-1.4744,-1.4744,-1.4701,-1.4722,-1.4677,-1.46,-1.4539,-1.4483,-1.4435,-1.4294,-1.4143,-1.4061,-1.3973,-1.3801,-1.3661,-1.3495,-1.3385,-1.3818,-1.3999,-1.3934,-1.4328,-1.4544,-1.4491,-1.4586,-1.4497,-1.4232,-1.4745,-1.468,-1.3882,-1.3767,-1.3727,-1.3574,-1.3126,-1.2841,-1.287,-1.2373,-1.2072,-1.2151,-1.2167,-1.2241,-1.247,-1.377,-1.5249,-1.6792,-1.7294,-1.771,-1.8574,-1.8739,-1.915,-1.9694,-1.9998,-1.9515,-1.856,-1.9359,-2.0113,-2.0347,-2.039,-2.0438,-2.0449,-2.0566,-2.0802,-2.0838,-2.0902,-2.0937,-2.0972,-2.1768,-2.2196,-2.2239,-2.2376,-2.2246,-2.1852,-2.1616,-2.148,-2.1407,-2.0806,-2.0251,-2.009,-1.9524,-1.8968,-1.8869,-1.8761,-1.8659,-1.8576,-1.8516,-1.8428,-1.8318,-1.8229,-1.8158,-1.8009,-1.7933,-1.7856,-1.7777,-1.7663,-1.7502,-1.7361,-1.7175,-1.6948,-1.6672,-1.6477,-1.6303,-1.4242,-1.4317,-1.4312,-1.4337,-1.4411,-1.4399,-1.4429,-1.4543,-1.5078,-1.5321,-1.54,-1.5872,-1.5611,-1.4757,-1.5184,-1.5425,-1.5444,-1.5913,-1.61,-1.6077,-1.6041,-1.5987,-1.59,-1.5829,-1.5524,-1.4952,-1.482,-1.4463,-1.3975,-1.3702,-1.3487,-1.3269,-1.3411,-1.3395,-1.328,-1.3444,-1.3497,-1.3446,-1.3796,-1.3708,-1.3246,-1.3713,-1.3835,-1.3404,-1.3042,-1.2845,-1.2818,-1.2575,-1.246,-1.2532,-1.3044,-1.3396,-1.3475,-1.4405,-1.5019,-1.5197,-1.5969,-1.6813,-1.7676,-1.8245,-1.8535,-1.8517,-1.9401,-1.974,-1.9285,-2.0391,-2.0766,-1.9984,-2.0279,-2.0516,-2.0254,-2.0554,-2.0912,-2.0987,-2.1029,-2.1256,-2.1743,-2.1779,-2.1921,-2.2453,-2.2843,-2.3081,-2.3188,-2.3324,-2.3308,-2.3022,-2.2721,-2.2401,-2.2356,-2.1707,-2.1232,-2.1059,-2.038,-1.9612,-1.9163,-1.8896,-1.8807,-1.8742,-1.8687,-1.862,-1.8448,-1.8406,-1.8322,-1.8155,-1.8091,-1.8027,-1.7922,-1.7811,-1.767,-1.7491,-1.7256,-1.7038,-1.6911,-1.6688,-1.6503,-1.4229,-1.4298,-1.4305,-1.4331,-1.4392,-1.463,-1.4751,-1.491,-1.5753,-1.6128,-1.6208,-1.6812,-1.6465,-1.5561,-1.5982,-1.6223,-1.6322,-1.6836,-1.709,-1.7083,-1.7021,-1.6958,-1.6923,-1.6821,-1.646,-1.5914,-1.5724,-1.5313,-1.4667,-1.4384,-1.417,-1.3989,-1.3822,-1.3711,-1.3573,-1.3495,-1.3381,-1.3384,-1.3748,-1.3765,-1.3537,-1.3769,-1.3604,-1.2915,-1.2452,-1.2396,-1.2778,-1.2793,-1.3011,-1.3455,-1.446,-1.5046,-1.5197,-1.6315,-1.7203,-1.7718,-1.8094,-1.854,-1.9026,-1.9699,-1.9857,-1.9522,-2.0439,-2.0637,-2.005,-2.1085,-2.177,-2.1459,-2.1371,-2.1212,-2.0846,-2.1223,-2.1607,-2.1729,-2.1779,-2.2061,-2.2608,-2.269,-2.2916,-2.3522,-2.3537,-2.3721,-2.3855,-2.3949,-2.3974,-2.394,-2.362,-2.329,-2.3217,-2.2639,-2.2079,-2.2043,-2.1322,-2.0467,-1.9636,-1.9143,-1.8994,-1.8878,-1.8852,-1.8732,-1.8592,-1.8553,-1.8485,-1.8311,-1.8267,-1.8183,-1.8076,-1.795,-1.7749,-1.7537,-1.7313,-1.7154,-1.707,-1.6873,-1.6714,-1.4229,-1.4334,-1.4305,-1.4408,-1.4397,-1.5193,-1.5547,-1.5621,-1.6557,-1.694,-1.6971,-1.7139,-1.7096,-1.7003,-1.7114,-1.7077,-1.7052,-1.717,-1.7201,-1.7176,-1.7101,-1.7019,-1.6987,-1.6879,-1.6751,-1.6573,-1.6565,-1.6373,-1.6093,-1.5941,-1.5825,-1.5629,-1.538,-1.5301,-1.5151,-1.4932,-1.4901,-1.4697,-1.4735,-1.5013,-1.5463,-1.5495,-1.4474,-1.2786,-1.2411,-1.3103,-1.4112,-1.43,-1.4931,-1.6393,-1.6517,-1.6725,-1.6953,-1.7133,-1.8015,-1.9451,-1.9871,-2.0645,-2.186,-2.2175,-2.2258,-2.2358,-2.2337,-2.2595,-2.224,-2.2566,-2.2775,-2.2949,-2.2852,-2.287,-2.2841,-2.2846,-2.3104,-2.3209,-2.3354,-2.3439,-2.357,-2.3487,-2.3635,-2.3711,-2.3768,-2.3884,-2.4054,-2.4151,-2.4181,-2.4201,-2.4192,-2.4165,-2.4017,-2.3481,-2.3067,-2.283,-2.2298,-2.1438,-2.0521,-1.9771,-1.9276,-1.9144,-1.9103,-1.8815,-1.8732,-1.8639,-1.8544,-1.8445,-1.8352,-1.8267,-1.8183,-1.8055,-1.7833,-1.7635,-1.7467,-1.7321,-1.7203,-1.712,-1.6965,-1.5706,-1.5771,-1.5813,-1.5834,-1.5877,-1.623,-1.6353,-1.6465,-1.7371,-1.7775,-1.7876,-1.8367,-1.866,-1.868,-1.8699,-1.8395,-1.795,-1.8432,-1.8414,-1.7925,-1.7837,-1.7538,-1.7068,-1.741,-1.7296,-1.6871,-1.7211,-1.7054,-1.6396,-1.6245,-1.6098,-1.5929,-1.5761,-1.5634,-1.5509,-1.5368,-1.5255,-1.5161,-1.507,-1.5103,-1.53,-1.5211,-1.4922,-1.4613,-1.4889,-1.5338,-1.5902,-1.5921,-1.6238,-1.6805,-1.7746,-1.8342,-1.8532,-1.9506,-2.0481,-2.1275,-2.1495,-2.1854,-2.2453,-2.2636,-2.2685,-2.2764,-2.279,-2.2842,-2.2902,-2.3003,-2.3095,-2.3151,-2.3247,-2.3324,-2.3401,-2.3448,-2.3476,-2.3551,-2.3629,-2.3667,-2.3689,-2.3718,-2.3721,-2.3761,-2.3886,-2.4044,-2.4123,-2.4181,-2.421,-2.4238,-2.4284,-2.4294,-2.4275,-2.4026,-2.3832,-2.3814,-2.3584,-2.3078,-2.2215,-2.0812,-1.9916,-1.9692,-1.9515,-1.9076,-1.8869,-1.876,-1.8676,-1.8524,-1.8433,-1.8329,-1.8225,-1.8033,-1.7833,-1.7704,-1.7537,-1.7425,-1.7305,-1.7216,-1.7092,-1.6551,-1.6611,-1.6671,-1.6686,-1.6744,-1.7049,-1.7187,-1.7293,-1.8184,-1.8598,-1.8744,-1.9249,-1.9525,-1.9583,-1.9583,-1.933,-1.881,-1.933,-1.9293,-1.8722,-1.8424,-1.799,-1.7525,-1.7636,-1.7419,-1.7008,-1.7568,-1.7613,-1.7269,-1.7116,-1.7012,-1.6849,-1.668,-1.6524,-1.6404,-1.6254,-1.6139,-1.6043,-1.5934,-1.5912,-1.5996,-1.5991,-1.6289,-1.6849,-1.7237,-1.7327,-1.7159,-1.6936,-1.7132,-1.769,-1.8658,-1.9244,-1.9453,-2.0726,-2.168,-2.1938,-2.2031,-2.2275,-2.2611,-2.2716,-2.2764,-2.2829,-2.2881,-2.2957,-2.3033,-2.3119,-2.3205,-2.3289,-2.336,-2.3453,-2.3533,-2.3596,-2.3618,-2.3663,-2.3707,-2.3732,-2.3754,-2.3747,-2.381,-2.3896,-2.4044,-2.4151,-2.4209,-2.4257,-2.4275,-2.433,-2.433,-2.4348,-2.4367,-2.4358,-2.4358,-2.4312,-2.4275,-2.3943,-2.329,-2.2144,-2.1113,-2.0796,-2.0073,-1.956,-1.921,-1.9057,-1.8778,-1.8638,-1.8502,-1.8363,-1.8197,-1.8005,-1.7856,-1.7749,-1.7607,-1.7496,-1.7394,-1.7301,-1.7179,-1.6671,-1.6738,-1.6707,-1.6867,-1.7027,-1.7694,-1.7997,-1.8165,-1.8941,-1.9291,-1.9342,-1.9489,-1.9536,-1.9576,-1.9583,-1.9564,-1.9509,-1.9564,-1.9509,-1.9286,-1.8554,-1.8133,-1.7929,-1.7196,-1.6952,-1.6906,-1.7547,-1.8143,-1.8437,-1.8351,-1.8313,-1.8393,-1.8101,-1.789,-1.8027,-1.7701,-1.762,-1.7451,-1.7315,-1.7598,-1.8275,-1.7989,-1.8199,-1.8882,-1.8848,-1.8444,-1.788,-1.7334,-1.7725,-1.8884,-1.9155,-1.933,-1.967,-2.0485,-2.1076,-2.1253,-2.1357,-2.1833,-2.2604,-2.2717,-2.2703,-2.2797,-2.2968,-2.306,-2.2968,-2.317,-2.3348,-2.3459,-2.3505,-2.3544,-2.3678,-2.3732,-2.3783,-2.3804,-2.3786,-2.3789,-2.3806,-2.3847,-2.3955,-2.4074,-2.417,-2.419,-2.4247,-2.4321,-2.4403,-2.443,-2.4465,-2.4472,-2.4472,-2.4482,-2.4465,-2.4411,-2.4412,-2.4264,-2.3924,-2.3483,-2.2666,-2.1888,-2.0988,-2.0273,-1.9984,-1.9767,-1.9111,-1.8838,-1.8542,-1.8403,-1.8225,-1.8044,-1.7939,-1.7822,-1.7681,-1.7566,-1.7472,-1.7382,-1.7277,-1.8175,-1.821,-1.8302,-1.8361,-1.8387,-1.8705,-1.8828,-1.8862,-1.9201,-1.9405,-1.9483,-1.9505,-1.9541,-1.9595,-1.9583,-1.9583,-1.9583,-1.9583,-1.9293,-1.8692,-1.7887,-1.7207,-1.6725,-1.6319,-1.6404,-1.6835,-1.7056,-1.7205,-1.7457,-1.7819,-1.7959,-1.7923,-1.8249,-1.833,-1.8246,-1.8117,-1.7994,-1.7816,-1.7738,-1.7723,-1.7732,-1.7699,-1.8,-1.8467,-1.8117,-1.7912,-1.8166,-1.8405,-1.8789,-1.9279,-1.9424,-1.9574,-1.979,-2.0079,-2.0343,-2.0517,-2.0609,-2.1051,-2.1886,-2.2124,-2.218,-2.2322,-2.278,-2.2882,-2.264,-2.3046,-2.3393,-2.3526,-2.36,-2.3671,-2.375,-2.3782,-2.3803,-2.381,-2.3852,-2.3894,-2.3945,-2.4044,-2.4113,-2.417,-2.4219,-2.4303,-2.4384,-2.4465,-2.4491,-2.4524,-2.4568,-2.4557,-2.4557,-2.4559,-2.4578,-2.4532,-2.4525,-2.4482,-2.4226,-2.4016,-2.3574,-2.2812,-2.1953,-2.1207,-2.088,-2.0354,-1.9659,-1.9081,-1.8767,-1.8475,-1.8281,-1.8108,-1.7994,-1.7889,-1.7749,-1.7641,-1.7549,-1.7448,-1.7345,-1.8886,-1.8913,-1.9053,-1.9095,-1.9104,-1.9178,-1.9192,-1.9208,-1.9277,-1.9379,-1.9475,-1.9501,-1.9545,-1.9595,-1.9583,-1.9583,-1.9583,-1.9583,-1.9305,-1.8636,-1.756,-1.683,-1.6237,-1.562,-1.5728,-1.6329,-1.6393,-1.6522,-1.6788,-1.7426,-1.7745,-1.7743,-1.8278,-1.8536,-1.841,-1.8304,-1.8159,-1.804,-1.7966,-1.7839,-1.7663,-1.7577,-1.7724,-1.7959,-1.7629,-1.7609,-1.8008,-1.8421,-1.8621,-1.872,-1.9031,-1.9235,-1.9126,-1.9361,-1.9658,-1.9798,-1.995,-2.0355,-2.1207,-2.1424,-2.1516,-2.1667,-2.2088,-2.2255,-2.201,-2.2439,-2.2701,-2.2776,-2.3062,-2.3316,-2.341,-2.3731,-2.385,-2.3917,-2.3917,-2.3986,-2.4064,-2.4151,-2.4218,-2.4266,-2.4349,-2.4411,-2.4481,-2.4524,-2.4549,-2.4599,-2.4599,-2.4599,-2.4599,-2.4601,-2.459,-2.4599,-2.4574,-2.4532,-2.4517,-2.4428,-2.4375,-2.3703,-2.2941,-2.2319,-2.1861,-2.1132,-2.0415,-1.9704,-1.9268,-1.8841,-1.8614,-1.8269,-1.8076,-1.7944,-1.7816,-1.7715,-1.7601,-1.7519,-1.7417,-1.8886,-1.8913,-1.9035,-1.9095,-1.9122,-1.917,-1.9192,-1.9208,-1.9277,-1.9379,-1.9494,-1.9501,-1.9545,-1.9576,-1.9583,-1.9583,-1.9583,-1.9597,-1.9578,-1.9051,-1.7944,-1.6947,-1.6458,-1.5308,-1.5134,-1.5575,-1.5649,-1.5967,-1.6426,-1.7217,-1.7812,-1.7549,-1.8072,-1.8618,-1.84,-1.8315,-1.8216,-1.827,-1.817,-1.8053,-1.7972,-1.7856,-1.7777,-1.7771,-1.7611,-1.7545,-1.76,-1.7676,-1.7602,-1.7581,-1.8313,-1.8454,-1.8058,-1.8511,-1.8989,-1.9121,-1.9212,-1.9772,-2.0479,-2.0778,-2.0826,-2.0944,-2.1178,-2.1108,-2.1223,-2.1426,-2.163,-2.1701,-2.2182,-2.263,-2.2936,-2.3412,-2.3862,-2.4094,-2.4056,-2.4066,-2.418,-2.4209,-2.4284,-2.4404,-2.4465,-2.4525,-2.4522,-2.4582,-2.4607,-2.4623,-2.4631,-2.4604,-2.4613,-2.4639,-2.4596,-2.4615,-2.4623,-2.4607,-2.4574,-2.4532,-2.4472,-2.4208,-2.363,-2.3254,-2.2674,-2.1922,-2.1099,-2.039,-1.9853,-1.9387,-1.893,-1.8626,-1.8257,-1.8011,-1.7884,-1.7766,-1.7658,-1.7566,-1.7489,-1.8886,-1.8913,-1.9053,-1.9095,-1.9122,-1.9178,-1.9192,-1.92,-1.9277,-1.9379,-1.9475,-1.9501,-1.9545,-1.9583,-1.9583,-1.9583,-1.959,-1.9599,-1.9594,-1.9334,-1.7938,-1.6478,-1.5594,-1.5005,-1.4817,-1.4985,-1.5045,-1.5031,-1.5226,-1.6058,-1.6333,-1.6191,-1.6977,-1.7495,-1.7815,-1.7808,-1.8016,-1.8368,-1.8318,-1.8201,-1.8091,-1.7994,-1.7911,-1.7839,-1.7777,-1.7709,-1.7641,-1.7647,-1.7629,-1.7566,-1.7798,-1.798,-1.7878,-1.8093,-1.8364,-1.8495,-1.8596,-1.8972,-1.9738,-2.0078,-2.019,-2.0255,-2.0745,-2.1032,-2.0532,-2.103,-2.134,-2.1497,-2.1752,-2.2126,-2.2721,-2.3115,-2.3538,-2.4127,-2.4173,-2.4191,-2.4275,-2.4358,-2.4438,-2.4482,-2.4551,-2.4582,-2.4623,-2.4647,-2.4698,-2.4729,-2.4711,-2.4676,-2.4684,-2.4676,-2.466,-2.4668,-2.4668,-2.4653,-2.4647,-2.4599,-2.4549,-2.4472,-2.4208,-2.4045,-2.3417,-2.2704,-2.1828,-2.0978,-2.0707,-2.029,-1.966,-1.9178,-1.8724,-1.8243,-1.7967,-1.785,-1.7726,-1.7624,-1.7531,-1.8887,-1.8886,-1.9009,-1.907,-1.9095,-1.916,-1.9192,-1.9216,-1.9285,-1.9387,-1.9483,-1.9505,-1.9522,-1.9583,-1.9583,-1.9583,-1.959,-1.9594,-1.9589,-1.9335,-1.7975,-1.641,-1.5176,-1.4803,-1.4793,-1.4741,-1.4743,-1.4706,-1.4807,-1.5378,-1.5668,-1.5836,-1.634,-1.6911,-1.7302,-1.7535,-1.7754,-1.8135,-1.8305,-1.8388,-1.8325,-1.8173,-1.811,-1.8057,-1.7988,-1.79,-1.7805,-1.7805,-1.78,-1.7726,-1.776,-1.7828,-1.7883,-1.7977,-1.8102,-1.8239,-1.8318,-1.8683,-1.9102,-1.9371,-1.9457,-1.9549,-2.0072,-2.0065,-1.9876,-2.0201,-2.0454,-2.0479,-2.0878,-2.1369,-2.1906,-2.2556,-2.3427,-2.4191,-2.4339,-2.4348,-2.4403,-2.4455,-2.4524,-2.4574,-2.4631,-2.466,-2.4734,-2.4734,-2.4757,-2.4787,-2.4761,-2.4761,-2.478,-2.4738,-2.4715,-2.4707,-2.4681,-2.4676,-2.4679,-2.4647,-2.4626,-2.4541,-2.4393,-2.4312,-2.3933,-2.3279,-2.2615,-2.1878,-2.1557,-2.1104,-2.0427,-1.9736,-1.9147,-1.8692,-1.8272,-1.794,-1.7822,-1.7658,-1.7566,-1.8896,-1.8886,-1.8975,-1.9045,-1.9104,-1.9178,-1.9192,-1.9216,-1.9337,-1.9438,-1.949,-1.9496,-1.9536,-1.9583,-1.9776,-1.9783,-1.9783,-2.0048,-1.9926,-1.9543,-1.8515,-1.7197,-1.602,-1.5509,-1.5373,-1.5373,-1.5138,-1.5485,-1.5899,-1.6236,-1.6257,-1.6595,-1.703,-1.7011,-1.73,-1.7553,-1.7645,-1.7687,-1.8128,-1.8339,-1.8362,-1.8325,-1.8351,-1.83,-1.8173,-1.8063,-1.7988,-1.7983,-1.7961,-1.7845,-1.79,-1.7933,-1.7955,-1.8102,-1.8222,-1.8318,-1.8428,-1.8581,-1.8714,-1.884,-1.8842,-1.8995,-1.9021,-1.8956,-1.9177,-1.9363,-1.9441,-1.951,-1.9951,-2.0482,-2.1015,-2.2144,-2.3311,-2.4109,-2.4349,-2.4544,-2.4617,-2.4559,-2.4551,-2.4673,-2.4707,-2.4734,-2.4791,-2.4813,-2.482,-2.482,-2.4813,-2.4817,-2.4802,-2.4772,-2.4723,-2.47,-2.4681,-2.4681,-2.4684,-2.4687,-2.4647,-2.4582,-2.4375,-2.4257,-2.4125,-2.3636,-2.3244,-2.2794,-2.244,-2.1829,-2.1084,-2.0401,-1.9808,-1.9235,-1.8887,-1.837,-1.7935,-1.772,-1.7566,-1.8896,-1.8904,-1.8975,-1.9045,-1.9095,-1.917,-1.9211,-1.9237,-1.9381,-1.9593,-1.9527,-1.9526,-1.9599,-1.9683,-2.0247,-2.0577,-2.0695,-2.1115,-2.1281,-2.0664,-2.0451,-1.967,-1.8494,-1.7457,-1.6838,-1.7002,-1.8071,-1.8528,-1.8584,-1.8367,-1.8732,-1.8667,-1.8488,-1.8543,-1.8001,-1.8016,-1.7565,-1.7181,-1.7679,-1.8037,-1.8048,-1.8412,-1.8585,-1.8528,-1.8351,-1.8246,-1.818,-1.8145,-1.814,-1.8119,-1.8091,-1.8085,-1.8134,-1.8222,-1.8328,-1.8428,-1.8526,-1.8622,-1.8706,-1.878,-1.886,-1.8913,-1.899,-1.9074,-1.9091,-1.92,-1.924,-1.9301,-1.952,-2.012,-2.1062,-2.2288,-2.3419,-2.4049,-2.4516,-2.5035,-2.5405,-2.5097,-2.4823,-2.4813,-2.4851,-2.4798,-2.4832,-2.4808,-2.4823,-2.4863,-2.4875,-2.4853,-2.4824,-2.4802,-2.4738,-2.4689,-2.4681,-2.4681,-2.4692,-2.4687,-2.4639,-2.4582,-2.4393,-2.4266,-2.4135,-2.3969,-2.3578,-2.3386,-2.3275,-2.2575,-2.1802,-2.1418,-2.09,-2.02,-1.9521,-1.9075,-1.8619,-1.8165,-1.7751,-1.887,-1.8904,-1.894,-1.9009,-1.9158,-1.9587,-1.9766,-1.9872,-2.0376,-2.0594,-2.0532,-2.0307,-2.0337,-2.0686,-2.0826,-2.103,-2.1495,-2.1927,-2.1976,-2.1561,-2.1223,-2.0577,-2.0176,-1.9724,-1.9385,-1.8817,-1.9262,-1.9738,-1.9751,-1.9794,-1.955,-1.9635,-1.9673,-1.9298,-1.9045,-1.9088,-1.8595,-1.7895,-1.8427,-1.8654,-1.8012,-1.8457,-1.8798,-1.8725,-1.8566,-1.846,-1.8408,-1.8393,-1.8579,-1.8669,-1.852,-1.8281,-1.8239,-1.8287,-1.8416,-1.8514,-1.8565,-1.8669,-1.8788,-1.8861,-1.8913,-1.8983,-1.9051,-1.9101,-1.9158,-1.9248,-1.9269,-1.9402,-1.985,-2.0625,-2.2338,-2.3636,-2.4511,-2.5166,-2.5568,-2.6142,-2.6389,-2.5883,-2.5359,-2.5397,-2.5469,-2.5215,-2.5078,-2.5135,-2.501,-2.5113,-2.4988,-2.4967,-2.4896,-2.4861,-2.4761,-2.4704,-2.4689,-2.47,-2.4692,-2.466,-2.4623,-2.4522,-2.4401,-2.4312,-2.4238,-2.4075,-2.3886,-2.3725,-2.352,-2.3312,-2.2653,-2.23,-2.1795,-2.1082,-2.0427,-1.992,-1.9403,-1.887,-1.8476,-1.8825,-1.8904,-1.903,-1.9163,-1.9412,-2.0206,-2.0485,-2.0511,-2.1467,-2.1485,-2.1464,-2.0945,-2.0975,-2.1492,-2.109,-2.1343,-2.1935,-2.2213,-2.2226,-2.239,-2.1714,-2.1274,-2.1016,-2.1419,-2.1482,-2.0445,-2.0891,-2.0923,-2.0897,-2.059,-2.1158,-2.0675,-2.059,-2.0611,-2.0383,-2.0467,-2.0004,-1.875,-1.9539,-1.9622,-1.8619,-1.8931,-1.9191,-1.887,-1.8807,-1.8706,-1.8658,-1.8682,-1.8863,-1.9391,-1.8923,-1.8555,-1.8378,-1.8378,-1.8475,-1.8617,-1.8649,-1.8733,-1.8852,-1.8932,-1.8984,-1.9113,-1.9137,-1.9279,-1.9415,-1.9659,-1.99,-2.037,-2.1042,-2.2274,-2.4282,-2.5117,-2.5986,-2.6682,-2.7062,-2.7401,-2.7437,-2.6919,-2.665,-2.6314,-2.6321,-2.6154,-2.5866,-2.5778,-2.5546,-2.5344,-2.525,-2.5091,-2.5033,-2.4934,-2.4866,-2.4723,-2.4689,-2.4684,-2.4695,-2.4645,-2.4588,-2.4513,-2.4401,-2.4339,-2.4275,-2.4142,-2.3974,-2.3821,-2.3624,-2.3427,-2.3183,-2.2752,-2.2246,-2.1767,-2.1234,-2.0649,-2.0099,-1.9578,-1.9226,-1.8843,-1.8958,-1.9606,-1.9984,-2.0219,-2.1034,-2.0997,-2.0622,-2.1504,-2.1134,-2.0218,-2.0545,-2.0882,-2.1046,-2.0927,-2.1339,-2.2034,-2.2281,-2.2585,-2.2919,-2.2406,-2.2067,-2.2356,-2.2288,-2.2458,-2.3208,-2.3257,-2.3337,-2.3561,-2.3959,-2.3237,-2.3678,-2.3607,-2.3027,-2.2032,-2.1775,-2.119,-1.9908,-2.0456,-2.0329,-1.9641,-1.9808,-1.9914,-1.936,-1.9272,-1.9147,-1.8995,-1.8914,-1.8895,-1.8919,-1.8849,-1.8803,-1.89,-1.889,-1.8793,-1.8705,-1.8779,-1.8843,-1.8932,-1.9056,-1.9089,-1.912,-1.9346,-1.9756,-2.0178,-2.0518,-2.1016,-2.2229,-2.3134,-2.4161,-2.4582,-2.5828,-2.6117,-2.6594,-2.729,-2.7877,-2.8351,-2.8347,-2.7986,-2.7551,-2.7373,-2.7093,-2.6747,-2.6527,-2.6501,-2.633,-2.616,-2.5736,-2.5336,-2.5184,-2.5035,-2.487,-2.4681,-2.4676,-2.4679,-2.4621,-2.4564,-2.4505,-2.441,-2.433,-2.4247,-2.4162,-2.4024,-2.3884,-2.3714,-2.3515,-2.3277,-2.3035,-2.2821,-2.2434,-2.191,-2.1329,-2.0934,-2.0505,-1.9976,-1.9739,-2.0191,-2.0615,-2.0815,-2.0998,-2.138,-2.1398,-2.1133,-2.1624,-2.1734,-2.1324,-2.1056,-2.1324,-2.1663,-2.1105,-2.1389,-2.2016,-2.2322,-2.2581,-2.2796,-2.2596,-2.2256,-2.2546,-2.2331,-2.2368,-2.2646,-2.3171,-2.3902,-2.4179,-2.4126,-2.4212,-2.4233,-2.4516,-2.4317,-2.3739,-2.3502,-2.2517,-2.1522,-2.1633,-2.1488,-2.041,-2.0894,-2.0811,-2.0616,-2.036,-2.0326,-2.0309,-2.0255,-2.0461,-2.0657,-2.0443,-2.0469,-2.0478,-2.0234,-1.9722,-1.9075,-1.8941,-1.8959,-1.9128,-1.9386,-1.9772,-1.9945,-2.0246,-2.0735,-2.1123,-2.1454,-2.2219,-2.3627,-2.4785,-2.5743,-2.6696,-2.7401,-2.7993,-2.8199,-2.8529,-2.892,-2.9304,-2.9421,-2.9121,-2.8673,-2.8392,-2.799,-2.7392,-2.7304,-2.7437,-2.7323,-2.7115,-2.66,-2.5953,-2.5744,-2.5684,-2.5426,-2.5274,-2.4942,-2.4909,-2.4794,-2.4603,-2.4507,-2.441,-2.433,-2.4238,-2.4152,-2.4074,-2.3966,-2.3786,-2.3567,-2.3476,-2.3283,-2.3194,-2.307,-2.2524,-2.2047,-2.182,-2.1451,-2.0852,-2.0718,-2.1306,-2.1563,-2.1674,-2.174,-2.1798,-2.1753,-2.1707,-2.2001,-2.2122,-2.2194,-2.1546,-2.1685,-2.2196,-2.1652,-2.1262,-2.1826,-2.1771,-2.1903,-2.2073,-2.1901,-2.1572,-2.1609,-2.1778,-2.2099,-2.2129,-2.2395,-2.2833,-2.3328,-2.3455,-2.343,-2.3593,-2.4164,-2.4589,-2.4379,-2.4383,-2.3703,-2.3434,-2.3244,-2.2832,-2.192,-2.1745,-2.1954,-2.1938,-2.1745,-2.1577,-2.1468,-2.1397,-2.1625,-2.1824,-2.1779,-2.1734,-2.2186,-2.187,-2.0916,-1.9777,-1.9498,-1.9506,-1.9757,-2.018,-2.0685,-2.0796,-2.1424,-2.1832,-2.235,-2.2744,-2.351,-2.4781,-2.6024,-2.6995,-2.8124,-2.9293,-2.9728,-2.9844,-2.9844,-3.0064,-2.9977,-2.9984,-2.9934,-2.96,-2.933,-2.8939,-2.8415,-2.84,-2.8571,-2.8339,-2.8123,-2.8081,-2.7464,-2.6885,-2.6671,-2.6328,-2.5962,-2.5404,-2.5203,-2.5086,-2.482,-2.4535,-2.4411,-2.4303,-2.4219,-2.4152,-2.4056,-2.3939,-2.3789,-2.3611,-2.3562,-2.3459,-2.3277,-2.3107,-2.2944,-2.2686,-2.2275,-2.2006,-2.1583,-2.1157,-2.1378,-2.2159,-2.2506,-2.2546,-2.2571,-2.2227,-2.1807,-2.2423,-2.1713,-2.0411,-2.1201,-2.1432,-2.1186,-2.1108,-2.0633,-2.0377,-2.042,-2.0807,-2.1195,-2.0831,-2.0839,-2.117,-2.1328,-2.1719,-2.1831,-2.2236,-2.2582,-2.261,-2.2599,-2.2707,-2.2885,-2.3411,-2.3898,-2.4238,-2.4508,-2.4783,-2.4561,-2.4565,-2.4103,-2.318,-2.2529,-2.2305,-2.2204,-2.2137,-2.213,-2.2171,-2.2121,-2.2134,-2.207,-2.196,-2.184,-2.1877,-2.184,-2.1721,-2.1485,-2.137,-2.1271,-2.1216,-2.1396,-2.1603,-2.1698,-2.2023,-2.2374,-2.3105,-2.4219,-2.5075,-2.5759,-2.7105,-2.7967,-2.8495,-2.9399,-2.9901,-2.9988,-2.9923,-3.0013,-3.0109,-3.0161,-3.015,-3.0116,-2.9732,-2.9764,-2.9536,-2.9627,-2.9706,-2.9409,-2.9158,-2.905,-2.8771,-2.8059,-2.7549,-2.7165,-2.6676,-2.6109,-2.5831,-2.5657,-2.5214,-2.477,-2.4597,-2.4386,-2.4017,-2.3905,-2.3973,-2.3854,-2.3714,-2.366,-2.3623,-2.3517,-2.3324,-2.3156,-2.3008,-2.2816,-2.2598,-2.2374,-2.2116,-2.2635,-2.2702,-2.311,-2.3317,-2.3267,-2.2499,-2.1963,-2.165,-2.1207,-2.0751,-2.0252,-2.0392,-2.0443,-2.0264,-2.0281,-2.0183,-1.9899,-1.9884,-2.0081,-2.0459,-2.0221,-2.0223,-2.0458,-2.0607,-2.0927,-2.1343,-2.12,-2.1042,-2.1403,-2.225,-2.2568,-2.262,-2.2952,-2.3657,-2.4189,-2.4309,-2.46,-2.4777,-2.4907,-2.4693,-2.4252,-2.385,-2.3607,-2.3615,-2.3489,-2.3377,-2.3337,-2.3329,-2.3277,-2.326,-2.3224,-2.3225,-2.3225,-2.3243,-2.3216,-2.3234,-2.3171,-2.2685,-2.1933,-2.2252,-2.246,-2.275,-2.3048,-2.3653,-2.4163,-2.4712,-2.5549,-2.6027,-2.6711,-2.7449,-2.7996,-2.846,-2.896,-2.9305,-2.9784,-2.9989,-3.0129,-3.018,-3.0199,-3.0166,-3.0145,-3.0094,-3.0049,-2.9973,-2.9885,-2.9693,-2.9461,-2.9323,-2.9112,-2.8676,-2.8259,-2.7945,-2.7406,-2.6839,-2.6635,-2.6441,-2.5847,-2.543,-2.5153,-2.4764,-2.3824,-2.3584,-2.3845,-2.379,-2.3572,-2.357,-2.3653,-2.3522,-2.3301,-2.318,-2.307,-2.2881,-2.2685,-2.2538,-2.2283,-2.3711,-2.3732,-2.3782,-2.3845,-2.3743,-2.2254,-2.1652,-2.1565,-2.0441,-2.0093,-2.0174,-1.992,-1.9714,-1.9712,-1.9832,-1.99,-1.9903,-1.989,-1.9934,-1.9982,-1.9995,-2.0034,-2.0455,-2.057,-2.1311,-2.1101,-2.2793,-2.2665,-2.2597,-2.2925,-2.3539,-2.2708,-2.2979,-2.3736,-2.4492,-2.4429,-2.4283,-2.5006,-2.5044,-2.4973,-2.4876,-2.4809,-2.4754,-2.4753,-2.4715,-2.4637,-2.4631,-2.4485,-2.4389,-2.4362,-2.4262,-2.417,-2.4171,-2.4124,-2.4134,-2.4134,-2.4116,-2.3755,-2.3155,-2.3145,-2.3375,-2.3694,-2.4021,-2.4396,-2.457,-2.4745,-2.4934,-2.5686,-2.6238,-2.682,-2.7439,-2.7924,-2.8753,-2.9379,-2.9787,-2.9992,-3.0228,-3.0477,-3.0431,-3.0194,-3.0173,-3.0145,-3.0094,-3.0042,-2.9977,-2.9891,-2.9764,-2.9577,-2.9141,-2.8667,-2.8363,-2.7918,-2.7538,-2.6942,-2.6598,-2.6451,-2.6117,-2.6023,-2.5754,-2.5299,-2.4478,-2.406,-2.4162,-2.3951,-2.3539,-2.3573,-2.3707,-2.3487,-2.3271,-2.3187,-2.3107,-2.2927,-2.2747,-2.2623,-2.2402,-2.375,-2.3804,-2.3803,-2.3837,-2.3779,-2.2245,-2.1697,-2.1718,-2.0936,-2.0211,-1.9806,-1.9733,-1.9792,-1.9781,-1.9907,-1.9957,-1.9947,-1.9909,-1.9945,-1.9971,-2.0025,-2.0327,-2.0996,-2.2254,-2.3551,-2.3879,-2.4683,-2.5488,-2.5987,-2.5327,-2.4558,-2.3059,-2.3659,-2.4372,-2.4906,-2.4984,-2.4757,-2.5253,-2.5311,-2.5184,-2.5101,-2.5031,-2.4998,-2.4957,-2.4868,-2.4783,-2.4791,-2.4706,-2.465,-2.465,-2.4601,-2.4549,-2.4505,-2.4505,-2.4505,-2.4488,-2.4532,-2.4307,-2.4112,-2.4052,-2.4275,-2.4437,-2.4551,-2.4765,-2.4975,-2.4922,-2.5031,-2.5484,-2.6287,-2.6855,-2.7644,-2.839,-2.8862,-2.9475,-2.9883,-3.0311,-3.0657,-3.1092,-3.0969,-3.0419,-3.0366,-3.0651,-3.0462,-3.0487,-3.0114,-3.001,-2.926,-2.9028,-2.8434,-2.7972,-2.7874,-2.758,-2.7324,-2.6812,-2.614,-2.605,-2.6405,-2.6403,-2.6179,-2.5816,-2.5288,-2.4996,-2.4324,-2.3998,-2.3596,-2.3656,-2.3613,-2.3262,-2.3065,-2.3153,-2.3102,-2.2902,-2.2721,-2.2582,-2.236,-2.3775,-2.3792,-2.3845,-2.3896,-2.3885,-2.2886,-2.2226,-2.1742,-2.1031,-2.0289,-1.9653,-2.0157,-2.0433,-2.0416,-2.0514,-2.0578,-2.0558,-2.006,-2.0083,-2.0432,-2.0906,-2.1524,-2.2473,-2.3499,-2.4769,-2.505,-2.5976,-2.6181,-2.5683,-2.6893,-2.692,-2.5945,-2.5244,-2.569,-2.6106,-2.6253,-2.6146,-2.5872,-2.5906,-2.576,-2.5182,-2.5107,-2.5057,-2.5044,-2.4985,-2.4931,-2.4915,-2.4817,-2.4772,-2.4745,-2.4698,-2.4666,-2.4623,-2.4623,-2.4588,-2.4572,-2.4631,-2.4693,-2.4701,-2.4634,-2.4572,-2.4637,-2.4748,-2.5017,-2.551,-2.5674,-2.6086,-2.6522,-2.6855,-2.737,-2.7745,-2.8101,-2.8476,-2.9326,-3.0029,-3.0554,-3.0976,-3.1392,-3.1629,-3.1148,-3.1388,-3.173,-3.1369,-3.1001,-3.054,-3.0079,-2.9227,-2.8395,-2.7697,-2.732,-2.7223,-2.7033,-2.6761,-2.6746,-2.6149,-2.6422,-2.6842,-2.6654,-2.6456,-2.6167,-2.5693,-2.4691,-2.4095,-2.3834,-2.3552,-2.3375,-2.3174,-2.2912,-2.2887,-2.3118,-2.3042,-2.2838,-2.2685,-2.2405,-2.2143,-2.38,-2.3827,-2.3907,-2.3966,-2.3915,-2.328,-2.2582,-2.1849,-2.1036,-2.0292,-1.9667,-2.0287,-2.0534,-2.0554,-2.0589,-2.1073,-2.1193,-2.1091,-2.1225,-2.189,-2.2829,-2.3318,-2.4003,-2.4979,-2.6146,-2.6135,-2.6713,-2.7039,-2.7328,-2.8103,-2.8378,-2.8109,-2.7503,-2.7733,-2.7679,-2.7877,-2.7499,-2.7052,-2.6824,-2.6653,-2.6056,-2.5982,-2.5964,-2.5996,-2.5977,-2.569,-2.5574,-2.5371,-2.5113,-2.4937,-2.4772,-2.4726,-2.4695,-2.4679,-2.4663,-2.469,-2.4743,-2.4831,-2.4997,-2.4801,-2.4834,-2.5144,-2.5254,-2.5748,-2.6306,-2.6617,-2.6922,-2.7331,-2.7619,-2.786,-2.808,-2.8424,-2.885,-2.9759,-3.0405,-3.093,-3.118,-3.1552,-3.1859,-3.196,-3.2239,-3.2391,-3.2164,-3.1604,-3.0369,-2.9813,-2.9038,-2.7892,-2.6579,-2.6382,-2.6561,-2.6355,-2.6093,-2.6173,-2.6261,-2.6059,-2.5903,-2.6209,-2.6105,-2.6351,-2.5839,-2.4882,-2.4134,-2.3901,-2.3573,-2.3094,-2.2579,-2.211,-2.252,-2.3141,-2.2837,-2.2374,-2.1837,-2.1528,-2.1532,-2.3839,-2.3888,-2.3976,-2.4006,-2.3971,-2.3317,-2.2619,-2.1838,-2.097,-2.0251,-1.9701,-1.9935,-2.0161,-2.0269,-2.0808,-2.1732,-2.2507,-2.2545,-2.295,-2.4119,-2.4708,-2.5024,-2.5738,-2.6703,-2.7767,-2.8167,-2.8727,-2.9373,-2.9802,-2.9744,-2.9992,-3.0048,-2.9503,-2.9346,-2.8949,-2.8228,-2.7857,-2.7781,-2.7762,-2.7685,-2.743,-2.7285,-2.7255,-2.7205,-2.7141,-2.6759,-2.6382,-2.622,-2.5951,-2.557,-2.5347,-2.5277,-2.5228,-2.5175,-2.5129,-2.5092,-2.5043,-2.5356,-2.5914,-2.5246,-2.5442,-2.5952,-2.6122,-2.6578,-2.7262,-2.7561,-2.7745,-2.8243,-2.8172,-2.8445,-2.8756,-2.9133,-2.9611,-3.0008,-3.0635,-3.1102,-3.1327,-3.1615,-3.1943,-3.2434,-3.2682,-3.2788,-3.2714,-3.2187,-3.0533,-2.9528,-2.8791,-2.7551,-2.5988,-2.554,-2.5823,-2.5731,-2.5499,-2.5423,-2.5437,-2.5059,-2.5009,-2.5403,-2.5883,-2.6269,-2.6225,-2.5533,-2.4858,-2.4233,-2.3283,-2.2486,-2.1826,-2.1205,-2.1568,-2.1824,-2.1984,-2.1623,-2.1051,-2.0734,-2.0836,-2.3834,-2.3907,-2.3976,-2.4046,-2.4096,-2.3943,-2.315,-2.1816,-2.0585,-1.9827,-2.0043,-2.123,-2.2144,-2.2423,-2.3224,-2.3989,-2.4544,-2.4117,-2.4709,-2.5132,-2.6218,-2.6715,-2.7351,-2.8325,-2.9333,-2.9594,-3.0251,-3.0404,-3.0269,-3.0402,-3.04,-3.0398,-3.0439,-3.0287,-2.9973,-2.9527,-2.9342,-2.8785,-2.8614,-2.843,-2.7911,-2.7844,-2.7834,-2.7828,-2.7803,-2.7593,-2.7197,-2.7138,-2.6896,-2.6571,-2.6406,-2.6381,-2.639,-2.6367,-2.6359,-2.6412,-2.6492,-2.6706,-2.7015,-2.6783,-2.674,-2.6976,-2.7097,-2.7504,-2.828,-2.8419,-2.8759,-2.9162,-2.9199,-2.9536,-2.9906,-2.9944,-3.0206,-3.0206,-3.0654,-3.1019,-3.1327,-3.1635,-3.202,-3.2697,-3.3104,-3.3317,-3.3326,-3.2824,-3.1378,-3.0,-2.9289,-2.7453,-2.5769,-2.5208,-2.5175,-2.5099,-2.4951,-2.4784,-2.4642,-2.4713,-2.4849,-2.5291,-2.594,-2.6519,-2.6317,-2.58,-2.5346,-2.46,-2.3164,-2.1808,-2.1187,-2.0611,-2.0262,-2.03,-2.0557,-2.072,-2.0328,-2.0189,-2.036,-2.3858,-2.3937,-2.4006,-2.4113,-2.4219,-2.4294,-2.3378,-2.1985,-2.1135,-2.0715,-2.1014,-2.2832,-2.3786,-2.4151,-2.4956,-2.6161,-2.6355,-2.602,-2.6431,-2.6721,-2.7835,-2.8379,-2.8975,-2.9602,-2.9973,-3.0336,-3.0367,-3.0404,-3.039,-3.0411,-3.0444,-3.0485,-3.0485,-3.0441,-3.0362,-3.0243,-3.0086,-2.9619,-2.9506,-2.9354,-2.8977,-2.8795,-2.8739,-2.8715,-2.8632,-2.8473,-2.8159,-2.7999,-2.789,-2.7767,-2.7611,-2.755,-2.7513,-2.7456,-2.7373,-2.7422,-2.7778,-2.7882,-2.7968,-2.8413,-2.8388,-2.8438,-2.8164,-2.8439,-2.9138,-2.9352,-2.9641,-3.0017,-3.0278,-3.0328,-3.0359,-3.0404,-3.0404,-3.0385,-3.0519,-3.0885,-3.1038,-3.1346,-3.1757,-3.2493,-3.3027,-3.3367,-3.362,-3.3164,-3.2281,-3.1004,-2.9787,-2.7805,-2.5953,-2.5517,-2.5088,-2.4908,-2.4824,-2.4725,-2.4752,-2.4831,-2.4996,-2.5233,-2.5653,-2.6104,-2.608,-2.5509,-2.5267,-2.4928,-2.3661,-2.2311,-2.0817,-2.0045,-1.9666,-1.9356,-1.9299,-1.9406,-1.9429,-1.9592,-1.9743,-2.3937,-2.4006,-2.4084,-2.4181,-2.4294,-2.4303,-2.3423,-2.21,-2.2757,-2.2627,-2.2185,-2.3841,-2.4861,-2.4895,-2.5099,-2.6162,-2.7315,-2.7467,-2.8248,-2.9144,-2.9502,-2.9767,-2.9851,-3.0125,-3.0286,-3.0318,-3.0368,-3.0404,-3.039,-3.0447,-3.05,-3.0554,-3.0545,-3.0515,-3.0505,-3.0495,-3.0372,-3.0197,-3.0147,-3.0048,-2.9833,-2.9982,-2.9856,-2.98,-2.9762,-2.9461,-2.9153,-2.8916,-2.854,-2.8214,-2.7851,-2.7778,-2.7685,-2.763,-2.7599,-2.7849,-2.852,-2.8724,-2.8955,-2.9489,-2.9706,-2.9539,-2.9253,-2.9548,-2.9792,-3.0017,-3.0132,-3.0239,-3.0354,-3.0379,-3.039,-3.039,-3.039,-3.039,-3.039,-3.0558,-3.0635,-3.0936,-3.1328,-3.1853,-3.2351,-3.2723,-3.302,-3.2794,-3.2469,-3.1477,-3.0212,-2.9091,-2.7407,-2.6348,-2.5857,-2.5182,-2.5028,-2.4807,-2.4816,-2.4831,-2.4818,-2.4926,-2.4727,-2.5004,-2.5048,-2.5181,-2.4825,-2.4439,-2.4009,-2.283,-2.1105,-1.9846,-1.9013,-1.8803,-1.8878,-1.8601,-1.8773,-1.8887,-1.8932,-2.3937,-2.4006,-2.4113,-2.4219,-2.4312,-2.4393,-2.351,-2.2237,-2.2831,-2.2795,-2.226,-2.5157,-2.6403,-2.6623,-2.775,-2.8479,-2.8879,-2.9223,-2.9388,-2.9842,-3.0053,-3.0076,-3.0135,-3.0226,-3.0292,-3.0311,-3.0349,-3.0404,-3.0421,-3.0472,-3.0588,-3.0564,-3.0815,-3.0738,-3.0719,-3.0617,-3.0626,-3.0543,-3.0532,-3.0428,-3.0411,-3.0375,-3.034,-3.0317,-3.0299,-2.9992,-2.9837,-2.9726,-2.9471,-2.9426,-2.9334,-2.9336,-2.9348,-2.9338,-2.9357,-2.9367,-2.9629,-2.9758,-2.9825,-3.0042,-3.0297,-3.0395,-3.008,-2.9984,-3.0177,-3.0331,-3.0393,-3.0475,-3.0569,-3.0658,-3.0818,-3.0862,-3.0741,-3.0639,-3.0614,-3.0577,-3.0635,-3.0609,-3.0982,-3.1104,-3.1577,-3.1969,-3.2294,-3.2592,-3.221,-3.1446,-3.0627,-2.9695,-2.8711,-2.7581,-2.6646,-2.5933,-2.5419,-2.5228,-2.4816,-2.4729,-2.4623,-2.4545,-2.443,-2.434,-2.4514,-2.4576,-2.4303,-2.4042,-2.3779,-2.2672,-2.1153,-2.0138,-1.9399,-1.8975,-1.8926,-1.8452,-1.8128,-1.8335,-1.837,-2.3947,-2.4016,-2.4152,-2.4257,-2.4348,-2.4437,-2.3859,-2.3275,-2.4194,-2.4429,-2.4428,-2.6913,-2.8145,-2.8353,-2.9142,-2.9657,-2.9771,-2.9756,-2.9883,-2.9915,-3.0034,-3.0064,-3.0142,-3.0219,-3.0299,-3.0337,-3.0349,-3.039,-3.0554,-3.0932,-3.1144,-3.1671,-3.1584,-3.156,-3.1676,-3.1729,-3.141,-3.1081,-3.0751,-3.0543,-3.0449,-3.0433,-3.04,-3.0354,-3.0356,-3.0324,-3.0291,-3.0284,-3.0244,-3.0218,-3.0145,-3.0104,-3.0097,-3.0075,-3.0078,-3.0087,-3.0517,-3.0652,-3.0807,-3.1158,-3.1204,-3.1217,-3.1232,-3.1353,-3.0996,-3.0912,-3.0892,-3.0883,-3.0958,-3.1053,-3.127,-3.143,-3.1193,-3.0995,-3.0876,-3.075,-3.0615,-3.0442,-3.0438,-3.0439,-3.0746,-3.1139,-3.1537,-3.1939,-3.1912,-3.1112,-3.073,-3.0405,-2.9458,-2.8431,-2.7511,-2.6733,-2.6161,-2.5705,-2.5254,-2.4777,-2.4623,-2.4545,-2.4384,-2.4312,-2.4275,-2.419,-2.4097,-2.3904,-2.3656,-2.2607,-2.1617,-2.0838,-2.0139,-1.9734,-1.9293,-1.8868,-1.8454,-1.8143,-1.8065,-2.4006,-2.4026,-2.4144,-2.4284,-2.443,-2.4566,-2.4667,-2.4861,-2.6293,-2.7018,-2.7241,-2.8783,-2.9467,-2.9416,-2.9742,-2.9851,-2.991,-2.9967,-2.9999,-3.0014,-3.0057,-3.0094,-3.0145,-3.0221,-3.0312,-3.0356,-3.0553,-3.0901,-3.1017,-3.1479,-3.225,-3.3063,-3.2933,-3.2759,-3.2681,-3.2701,-3.2386,-3.1912,-3.1375,-3.0993,-3.0586,-3.0479,-3.0477,-3.0402,-3.0411,-3.0412,-3.0439,-3.04,-3.0348,-3.0418,-3.048,-3.0548,-3.0598,-3.0624,-3.0614,-3.075,-3.1351,-3.1537,-3.1762,-3.2088,-3.2408,-3.2582,-3.2852,-3.2603,-3.2084,-3.1628,-3.1582,-3.1702,-3.1835,-3.1973,-3.2196,-3.2262,-3.2097,-3.1906,-3.1748,-3.1397,-3.0981,-3.068,-3.0349,-3.035,-3.0388,-3.0731,-3.0779,-3.1157,-3.1241,-3.0594,-3.0422,-3.044,-3.0027,-2.9074,-2.8361,-2.7544,-2.7113,-2.6512,-2.565,-2.5188,-2.4781,-2.4582,-2.4403,-2.4303,-2.4275,-2.4134,-2.3935,-2.3768,-2.3594,-2.3155,-2.2355,-2.158,-2.0952,-2.0598,-2.0119,-1.9476,-1.8967,-1.8552,-1.7952,-2.4044,-2.4094,-2.4219,-2.4339,-2.4566,-2.5141,-2.58,-2.646,-2.7513,-2.7643,-2.7511,-2.882,-2.9719,-2.9763,-2.9842,-2.9893,-2.9967,-2.9999,-3.003,-3.0061,-3.0113,-3.013,-3.0185,-3.026,-3.035,-3.0591,-3.0985,-3.1725,-3.2271,-3.2664,-3.2854,-3.3126,-3.3262,-3.3378,-3.3378,-3.3358,-3.3146,-3.2798,-3.2517,-3.167,-3.0858,-3.0577,-3.0479,-3.0488,-3.0537,-3.0911,-3.1047,-3.1264,-3.1654,-3.203,-3.2164,-3.2189,-3.2182,-3.2131,-3.2138,-3.2229,-3.2319,-3.2479,-3.264,-3.2877,-3.3101,-3.3032,-3.3032,-3.2993,-3.2799,-3.253,-3.2459,-3.265,-3.2789,-3.2946,-3.3112,-3.3134,-3.3034,-3.2837,-3.2639,-3.2063,-3.1462,-3.0937,-3.0452,-3.0337,-3.0305,-3.0252,-3.0256,-3.0266,-3.0302,-3.0273,-3.0224,-3.0179,-3.0083,-2.949,-2.9097,-2.8441,-2.8177,-2.7516,-2.6454,-2.5543,-2.5079,-2.4657,-2.4403,-2.4339,-2.4284,-2.4124,-2.3935,-2.3765,-2.3518,-2.3168,-2.2852,-2.2346,-2.1808,-2.1441,-2.0851,-2.0196,-1.9802,-1.9387,-1.849,-2.4064,-2.417,-2.4284,-2.4393,-2.464,-2.5355,-2.6191,-2.7056,-2.7933,-2.8297,-2.8343,-2.9241,-2.9746,-2.9789,-2.9859,-2.9953,-2.9999,-3.003,-3.0061,-3.0098,-3.0142,-3.0159,-3.0226,-3.0337,-3.0727,-3.1031,-3.1898,-3.2739,-3.352,-3.3729,-3.3759,-3.4074,-3.4195,-3.4176,-3.4195,-3.4214,-3.3977,-3.3712,-3.3673,-3.2903,-3.1718,-3.1592,-3.1614,-3.1576,-3.1638,-3.1858,-3.1943,-3.218,-3.2416,-3.2697,-3.2709,-3.2709,-3.2671,-3.2678,-3.2749,-3.2897,-3.3095,-3.3422,-3.3499,-3.3659,-3.3871,-3.3891,-3.4026,-3.4288,-3.432,-3.4076,-3.3778,-3.3892,-3.3647,-3.3746,-3.4326,-3.4508,-3.4079,-3.3786,-3.3512,-3.307,-3.2308,-3.1578,-3.122,-3.1027,-3.0764,-3.0226,-3.023,-3.0176,-3.0204,-3.0194,-3.0114,-3.0049,-2.9924,-2.9841,-2.9494,-2.9187,-2.8807,-2.8051,-2.6894,-2.6009,-2.5349,-2.4908,-2.4458,-2.4257,-2.4172,-2.4075,-2.3935,-2.3736,-2.3578,-2.3417,-2.3064,-2.2706,-2.2575,-2.2282,-2.1611,-2.0895,-2.0594,-2.0416,-1.9916,-2.4084,-2.4218,-2.4349,-2.442,-2.464,-2.5485,-2.6312,-2.7103,-2.8045,-2.8933,-2.9485,-2.9634,-2.9754,-2.9806,-2.9868,-2.9943,-3.0026,-3.0046,-3.0091,-3.0123,-3.0166,-3.0194,-3.0311,-3.0478,-3.1251,-3.2062,-3.2916,-3.3702,-3.4478,-3.4591,-3.4891,-3.5568,-3.5709,-3.5676,-3.5715,-3.5599,-3.5173,-3.4709,-3.4452,-3.4165,-3.3641,-3.3156,-3.2908,-3.2885,-3.2997,-3.3024,-3.3026,-3.3077,-3.3076,-3.3338,-3.3485,-3.3517,-3.3517,-3.3581,-3.3537,-3.3685,-3.4038,-3.4275,-3.4442,-3.4828,-3.5116,-3.5361,-3.5566,-3.5547,-3.5438,-3.5283,-3.4971,-3.4789,-3.4538,-3.4646,-3.5251,-3.5407,-3.4934,-3.4563,-3.4263,-3.3968,-3.3128,-3.2282,-3.1955,-3.1692,-3.1102,-3.048,-3.0197,-3.0161,-3.0113,-3.0095,-3.0057,-2.9983,-2.9907,-2.9841,-2.9666,-2.9433,-2.9165,-2.8295,-2.7362,-2.6616,-2.5917,-2.5113,-2.4699,-2.4339,-2.4075,-2.4008,-2.3915,-2.3725,-2.3578,-2.3418,-2.3301,-2.3017,-2.2952,-2.2827,-2.2574,-2.2032,-2.1976,-2.1806,-2.1672,-2.4114,-2.4284,-2.4358,-2.4438,-2.4741,-2.6033,-2.6833,-2.7307,-2.8643,-2.9467,-2.9662,-2.9773,-2.9816,-2.9876,-2.9891,-2.9948,-3.003,-3.0087,-3.014,-3.0178,-3.0173,-3.0214,-3.0605,-3.1328,-3.2372,-3.3222,-3.3936,-3.4549,-3.5024,-3.5273,-3.5477,-3.5684,-3.5711,-3.5716,-3.5697,-3.5639,-3.5576,-3.528,-3.5289,-3.5099,-3.474,-3.4075,-3.3166,-3.3028,-3.2985,-3.3403,-3.3725,-3.393,-3.4385,-3.4782,-3.4864,-3.4754,-3.467,-3.4606,-3.4594,-3.4531,-3.4896,-3.4967,-3.5199,-3.5328,-3.5501,-3.5502,-3.5541,-3.556,-3.5502,-3.5513,-3.5338,-3.535,-3.5201,-3.5237,-3.5623,-3.5589,-3.527,-3.5033,-3.4764,-3.4443,-3.3865,-3.3089,-3.2504,-3.2048,-3.1496,-3.0861,-3.0302,-3.0208,-3.0091,-3.0053,-3.0022,-2.9948,-2.991,-2.9851,-2.978,-2.9614,-2.9438,-2.897,-2.8222,-2.74,-2.6617,-2.5717,-2.4857,-2.4376,-2.4077,-2.4008,-2.3876,-2.3714,-2.3515,-2.333,-2.3241,-2.3168,-2.3033,-2.2933,-2.3295,-2.3238,-2.3189,-2.2977,-2.2649]},{"header":{"parameterUnit":"m.s-1","parameterCategory":1,"la1":31.0,"la2":29.5877,"lo1":-88.7671,"lo2":-86.6584,"dy":0.0162,"dx":0.0185,"nx":115,"ny":88,"refTime":"2024-03-30T06:00:00:Z","depth":0,"parameterNumber":3,"parameterNumberName":"V-component_of_WINDS"},"data":[0.0,0.0,0.0,0.0,0.0,0.0,0.0,0.0,0.0,0.0,0.0,0.0,0.0,0.0,0.0,0.0,0.0,0.0,0.0,0.0,0.0,0.0,0.0,0.0,0.0,0.0,0.0,0.0,0.0,0.0,0.0,0.0,0.0,0.0,0.0,0.0,0.0,0.0,0.0,0.0,0.0,0.0,0.0,0.0,0.0,0.0,0.0,0.0,0.0,0.0,0.0,0.0,0.0,0.0,0.0,0.0,0.0,0.0,0.0,0.0,0.0,0.0,0.0,0.0,0.0,0.0,0.0,0.0,0.0,0.0,0.0,0.0,0.0,0.0,0.0,0.0,0.0,0.0,0.0,0.0,0.0,0.0,0.0,0.0,0.0,0.0,0.0,0.0,0.0,0.0,0.0,0.0,0.0,0.0,0.0,0.0,0.0,0.0,0.0,0.0,0.0,0.0,0.0,0.0,0.0,0.0,0.0,0.0,0.0,0.0,0.0,0.0,0.0,0.0,0.0,0.0,0.0,0.0,0.0,0.0,0.0,0.0,0.0,0.0,0.0,0.0,0.0,0.0,0.0,0.0,0.0,0.0,0.0,0.0,0.0,0.0,0.0,0.0,0.0,0.0,0.0,0.0,0.0,0.0,0.0,0.0,0.0,0.0,0.0,0.0,0.0,0.0,0.0,0.0,0.0,0.0,0.0,0.0,0.0,0.0,0.0,0.0,0.0,0.0,0.0,0.0,0.0,0.0,0.0,0.0,0.0,0.0,0.0,0.0,0.0,0.0,0.0,0.0,0.0,0.0,0.0,0.0,0.0,0.0,0.0,0.0,0.0,0.0,0.0,0.0,0.0,0.0,0.0,0.0,0.0,0.0,0.0,0.0,0.0,0.0,0.0,0.0,0.0,0.0,0.0,0.0,0.0,0.0,0.0,0.0,0.0,0.0,0.0,0.0,0.0,0.0,0.0,0.0,0.0,0.0,0.0,0.0,0.0,0.0,0.0,0.0,0.0,0.0,0.0,0.0,0.0,0.0,0.0,0.0,0.0,0.0,0.0,0.0,0.0,0.0,0.0,0.0,0.0,0.0,0.0,0.0,0.0,0.0,0.0,0.0,0.0,0.0,0.0,0.0,0.0,0.0,0.0,0.0,0.0,0.0,0.0,0.0,0.0,0.0,0.0,0.0,0.0,0.0,0.0,0.0,0.0,0.0,0.0,0.0,0.0,0.0,0.0,0.0,0.0,0.0,0.0,0.0,0.0,0.0,0.0,0.0,0.0,0.0,0.0,0.0,0.0,0.0,0.0,0.0,0.0,0.0,0.0,0.0,0.0,0.0,0.0,0.0,0.0,0.0,0.0,0.0,0.0,0.0,0.0,0.0,0.0,0.0,0.0,0.0,0.0,0.0,0.0,0.0,0.0,0.0,0.0,0.0,0.0,0.0,0.0,0.0,0.0,0.0,0.0,0.0,0.0,0.0,0.0,0.0,0.0,0.0,0.0,0.0,0.0,0.0,0.0,0.0,0.0,0.0,0.0,0.0,0.0,0.0,0.0,0.0,0.0,0.0,0.0,0.0,0.0,0.0,0.0,0.0,0.0,0.0,0.0,0.0,0.0,0.0,0.0,0.0,0.0,0.0,0.0,0.0,0.0,0.0,0.0,0.0,0.0,0.0,0.0,0.0,0.0,0.0,0.0,0.0,0.0,0.0,0.0,0.0,0.0,0.0,0.0,0.0,0.0,0.0,0.0,0.0,0.0,0.0,0.0,0.0,0.0,0.0,0.0,0.0,0.0,0.0,0.0,0.0,0.0,0.0,0.0,0.0,0.0,0.0,0.0,0.0,0.0,0.0,0.0,0.0,0.0,0.0,0.0,0.0,0.0,0.0,0.0,0.0,0.0,0.0,0.0,0.0,0.0,0.0,0.0,0.0,0.0,0.0,0.0,0.0,0.0,0.0,0.0,0.0,0.0,0.0,0.0,0.0,0.0,0.0,0.0,0.0,0.0,0.0,0.0,0.0,0.0,0.0,0.0,0.0,0.0,0.0,0.0,0.0,0.0,0.0,0.0,0.0,0.0,0.0,0.0,0.0,0.0,0.0,0.0,0.0,0.0,0.0,0.0,0.0,0.0,0.0,0.0,0.0,0.0,0.0,0.0,0.0,0.0,0.0,0.0,0.0,0.0,0.0,0.0,0.0,0.0,0.0,0.0,0.0,0.0,0.0,0.0,0.0,0.0,0.0,0.0,0.0,0.0,0.0,0.0,0.0,0.0,0.0,0.0,0.0,0.0,0.0,0.0,0.0,0.0,0.0,0.0,0.0,0.0,0.0,0.0,0.0,0.0,0.0,0.0,0.0,0.0,0.0,0.0,0.0,0.0,0.0,0.0,0.0,0.0,0.0,0.0,0.0,0.0,0.0,0.0,0.0,0.0,0.0,0.0,0.0,0.0,0.0,0.0,0.0,0.0,0.0,0.0,0.0,0.0,0.0,0.0,0.0,0.0,0.0,0.0,0.0,0.0,0.0,0.0,0.0,0.0,0.0,0.0,0.0,0.0,0.0,0.0,0.0,0.0,0.0,0.0,0.0,0.0,0.0,0.0,0.0,0.0,0.0,0.0,0.0,0.0,0.0,0.0,0.0,0.0,0.0,0.0,0.0,0.0,0.0,0.0,0.0,0.0,0.0,0.0,0.0,0.0,0.0,0.0,0.0,0.0,0.0,0.0,0.0,0.0,0.0,0.0,0.0,0.0,0.0,0.0,0.0,0.0,0.0,0.0,0.0,0.0,0.0,0.0,0.0,0.0,0.0,0.0,0.0,0.0,0.0,0.0,0.0,0.0,0.0,0.0,0.0,0.0,0.0,0.0,0.0,0.0,0.0,0.0,0.0,0.0,0.0,0.0,0.0,0.0,0.0,0.0,0.0,0.0,0.0,0.0,0.0,0.0,0.0,0.0,0.0,0.0,0.0,0.0,0.0,0.0,0.0,0.0,0.0,0.0,0.0,0.0,0.0,0.0,0.0,0.0,0.0,0.0,0.0,0.0,0.0,0.0,0.0,0.0,0.0,0.0,0.0,0.0,0.0,0.0,0.0,0.0,0.0,0.0,0.0,0.0,0.0,0.0,0.0,0.0,0.0,0.0,0.0,0.0,0.0,0.0,0.0,0.0,0.0,0.0,0.0,0.0,0.0,0.0,0.0,0.0,0.0,0.0,0.0,0.0,0.0,0.0,0.0,0.0,0.0,0.0,0.0,0.0,0.0,0.0,0.0,0.0,0.0,0.0,0.0,0.0,0.0,0.0,0.0,0.0,0.0,0.0,0.0,0.0,0.0,0.0,0.0,0.0,0.0,0.0,0.0,0.0,0.0,0.0,0.0,0.0,0.0,0.0,0.0,0.0,0.0,0.0,0.0,0.0,0.0,0.0,0.0,0.0,0.0,0.0,0.0,0.0,0.0,0.0,0.0,0.0,0.0,0.0,0.0,0.0,0.0,0.0,0.0,0.0,0.0,0.0,0.0,0.0,0.0,0.0,0.0,0.0,0.0,0.0,0.0,0.0,0.0,0.0,0.0,0.0,0.0,0.0,0.0,0.0,0.0,0.0,0.0,0.0,0.0,0.0,0.0,0.0,0.0,0.0,0.0,0.0,0.0,0.0,0.0,0.0,0.0,0.0,0.0,0.0,0.0,0.0,0.0,0.0,0.0,0.0,0.0,0.0,0.0,0.0,0.0,0.0,0.0,0.0,0.0,0.0,0.0,0.0,0.0,0.0,0.0,0.0,0.0,0.0,0.0,0.0,0.0,0.0,0.0,0.0,0.0,0.0,0.0,0.0,0.0,0.0,0.0,0.0,0.0,0.0,0.0,0.0,0.0,0.0,0.0,0.0,0.0,0.0,0.0,0.0,0.0,0.0,0.0,0.0,0.0,0.0,0.0,0.0,0.0,0.0,0.0,0.0,0.0,0.0,0.0,0.0,0.0,0.0,0.0,0.0,0.0,0.0,0.0,0.0,0.0,0.0,0.0,0.0,0.0,0.0,0.0,0.0,0.0,0.0,0.0,0.0,0.0,0.0,0.0,0.0,0.0,0.0,0.0,0.0,0.0,0.0,0.0,0.0,0.0,0.0,0.0,0.0,0.0,0.0,0.0,0.0,0.0,0.0,0.0,0.0,0.0,0.0,0.0,0.0,0.0,0.0,0.0,0.0,0.0,0.0,0.0,0.0,0.0,0.0,0.0,0.0,0.0,0.0,0.0,0.0,0.0,0.0,0.0,0.0,0.0,0.0,0.0,0.839,0.0,0.0,0.0,0.0,0.0,0.0,0.0,0.0,0.0,0.0,0.0,0.0,0.0,0.0,0.0,0.0,0.0,0.0,0.0,0.0,0.0,0.0,0.0,0.0,0.0,0.0,0.0,0.0,0.0,0.0,0.0,0.0,0.0,0.0,0.0,0.0,0.0,0.0,0.0,0.0,0.0,0.0,0.0,0.0,0.0,0.0,0.0,0.0,0.0,0.0,0.0,0.0,0.0,0.0,0.0,0.0,0.0,0.0,0.0,0.0,0.0,0.0,0.0,0.0,0.0,0.0,0.0,0.0,0.0,0.0,0.0,0.0,0.0,0.0,0.0,0.0,0.0,0.0,0.0,0.0,0.0,0.0,0.0,0.0,0.0,0.0,0.0,0.0,0.0,0.0,0.0,0.0,0.0,0.0,0.0,0.0,0.0,0.0,0.0,0.0,0.0,0.0,0.0,0.0,0.0,0.0,0.0,0.0,0.0,0.0,0.9219,0.9054,0.8925,0.8736,0.8514,0.0,0.0,0.0,0.0,0.0,0.0,0.0,0.0,0.0,0.0,0.0,0.0,0.0,0.0,0.0,0.0,0.0,0.0,0.0,0.0,0.0,0.0,0.0,0.0,0.0,0.0,0.0,0.0,0.0,0.0,0.0,0.0,0.0,0.0,0.0,0.0,0.0,0.0,0.0,0.0,0.0,0.0,0.0,0.0,0.0,0.0,0.0,0.0,0.0,0.0,0.0,0.0,0.0,0.0,0.0,0.0,0.0,0.0,0.0,0.0,0.0,0.0,0.0,0.0,0.0,0.0,0.0,0.0,0.0,0.0,0.0,0.0,0.0,0.0,0.0,0.0,0.0,0.0,0.0,0.0,0.0,0.0,0.0,0.0,0.0,0.0,0.0,0.0,0.0,0.0,0.0,0.0,0.0,0.0,0.0,0.0,0.0,0.0,0.0,0.0,0.0,0.0,0.0,0.0,0.0,0.0,0.0,0.0,0.0,0.0,0.0,0.0,0.8738,0.8566,0.8327,0.0,0.0,0.0,0.0,0.0,0.0,0.0,0.0,0.0,0.0,0.0,0.0,0.0,0.0,0.0,0.0,0.0,0.0,0.0,0.0,0.0,0.0,0.0,0.0,0.0,0.0,0.0,0.0,0.0,0.0,0.0,0.0,0.0,0.0,0.0,0.0,0.0,0.0,0.0,0.0,0.0,0.0,0.0,0.0,0.0,0.0,0.0,0.0,0.0,0.0,0.0,0.0,0.0,0.0,0.0,0.0,0.0,0.0,0.0,0.0,0.0,0.0,0.0,0.0,0.0,0.0,0.0,0.0,0.0,0.0,0.0,0.0,0.0,0.0,0.0,0.0,0.0,0.0,0.0,0.0,0.0,0.0,0.0,0.0,0.0,0.0,0.0,0.0,0.0,0.0,0.0,0.0,0.0,0.0,0.0,0.0,0.0,0.0,0.0,0.0,0.0,0.0,0.0,0.0,0.0,0.0,0.0,0.0,0.0,0.0,0.905,0.8141,0.8036,0.0,0.7577,0.0,0.0,0.0,0.0,0.0,0.0,0.0,0.0,0.0,0.0,0.0,0.0,0.0,0.0,0.0,0.0,0.0,0.0,0.0,0.0,0.0,0.0,0.0,0.0,0.0,0.0,0.0,0.0,0.0,0.0,0.0,0.0,0.0,0.0,0.0,0.0,0.0,0.0,0.0,0.0,0.0,0.0,0.0,0.0,0.0,0.0,0.0,0.0,0.0,0.0,0.0,0.0,0.0,0.0,0.0,0.0,0.0,0.0,0.0,0.0,0.0,0.0,0.0,0.0,0.0,0.0,0.0,0.0,0.0,0.0,0.0,0.0,0.0,0.0,0.0,0.0,0.0,0.0,0.0,0.0,0.0,0.0,0.0,0.0,0.0,0.0,0.0,0.0,0.0,0.0,0.0,0.0,0.0,0.0,0.0,0.0,0.0,0.0,0.0,0.0,0.0,0.0,0.0,0.0,0.0,0.0,0.0,0.0,0.0,0.0,0.9079,0.8096,0.7882,0.792,0.0,0.0,0.0,0.0,0.0,0.0,0.0,0.0,0.0,0.0,0.0,0.0,0.0,0.0,0.0,0.0,0.0,0.0,0.0,0.0,0.0,0.0,0.0,0.0,0.0,0.0,0.0,0.0,0.0,0.0,0.0,0.0,0.0,0.0,0.0,0.0,0.0,0.0,0.0,0.0,0.0,0.0,0.0,0.0,0.0,0.0,0.0,0.0,0.0,0.0,0.0,0.0,0.0,0.0,0.0,0.0,0.0,0.0,0.0,0.0,0.0,0.0,0.0,0.0,0.0,0.0,0.0,0.0,0.0,0.0,0.0,0.0,0.0,0.0,0.0,0.0,0.0,0.0,0.0,0.0,0.0,0.0,0.0,0.0,0.0,0.0,0.0,0.0,0.0,0.0,0.0,0.0,0.0,0.0,0.0,0.0,0.0,0.0,0.0,0.0,0.0,0.0,0.0,0.0,0.0,0.0,0.0,0.0,0.0,0.0,0.9524,0.9104,0.8149,0.8041,0.816,0.8431,0.0,0.0,0.0,0.0,0.0,0.0,0.0,0.0,0.0,0.0,0.0,0.0,0.0,0.0,0.0,0.0,0.0,0.0,0.0,0.0,0.0,0.0,0.0,0.0,0.0,0.0,0.0,0.0,0.0,0.0,0.0,0.0,0.0,0.0,0.0,0.0,0.0,0.0,0.0,0.0,0.0,0.0,0.0,0.0,0.0,0.0,0.0,0.0,0.0,0.0,0.0,0.0,0.0,0.0,0.0,0.0,0.0,0.0,0.0,0.0,0.0,0.0,0.0,0.0,0.0,0.0,0.0,0.0,0.0,0.0,0.0,0.0,0.0,0.0,0.0,0.0,0.0,0.0,0.0,0.0,0.0,0.0,0.0,0.0,0.0,0.0,0.0,0.0,0.0,0.0,0.0,0.0,0.0,0.0,0.0,0.0,0.0,0.0,0.0,0.0,0.0,0.0,0.0,0.0,0.0,0.0,0.0,0.0,0.8646,0.9242,0.91,0.8088,0.8545,0.8509,0.0,0.0,0.0,0.0,0.0,0.0,0.0,0.0,0.0,0.0,0.0,0.0,0.0,0.0,0.0,0.0,0.0,0.0,0.0,0.0,0.0,0.0,0.0,0.0,0.0,0.0,0.0,0.0,0.0,0.0,0.0,0.0,0.0,0.0,0.0,0.0,0.0,0.0,0.0,0.0,0.0,0.0,0.0,0.0,0.0,0.0,0.0,0.0,0.0,0.0,0.0,0.0,0.0,0.0,0.0,0.0,0.0,0.0,0.0,0.0,0.0,0.0,0.0,0.0,0.0,0.0,0.0,0.0,0.0,0.0,0.0,0.0,0.0,0.0,0.0,0.0,0.0,0.0,0.0,0.0,0.0,0.0,0.0,0.0,0.0,0.0,0.0,0.0,0.0,0.0,0.0,0.0,0.0,0.0,0.0,0.0,0.0,0.0,0.0,0.0,0.0,0.0,0.0,0.0,0.0,0.0,0.0,0.0,0.0,0.9274,0.8901,0.8717,0.8751,0.8403,0.8245,0.0,0.0,0.0,0.0,0.0,0.0,0.0,0.0,0.0,0.0,0.0,0.0,0.0,0.0,0.0,0.0,0.0,0.0,0.0,0.0,0.0,0.0,0.0,0.0,0.0,0.0,0.0,0.0,0.0,0.0,0.0,0.0,0.0,0.0,0.0,0.0,0.0,0.0,0.0,0.0,0.0,0.0,0.0,0.0,0.0,0.0,0.0,0.0,0.0,0.0,0.0,0.0,0.0,0.0,0.0,0.0,0.0,0.0,0.0,0.0,0.0,0.0,0.0,0.0,0.0,0.0,0.0,0.0,0.0,0.0,0.0,0.0,0.0,0.0,0.0,0.0,0.0,0.0,0.0,0.0,0.0,0.0,0.0,0.0,0.0,0.0,0.0,0.0,0.0,0.0,0.0,0.0,0.0,0.0,0.0,0.0,0.0,0.0,0.0,0.0,0.0,0.0,0.0,0.0,0.0,0.0,0.0,0.0,0.0,0.9629,0.0,0.9132,0.9475,0.8866,0.8728,0.0,0.0,0.0,0.0,0.0,0.0,0.0,0.0,0.0,0.0,0.0,0.0,0.0,0.0,0.0,0.0,0.0,0.0,0.0,0.0,0.0,0.0,0.0,0.0,0.0,0.0,0.0,0.0,0.0,0.0,0.0,0.0,0.0,0.0,0.0,0.0,0.0,0.0,0.0,0.0,0.0,0.0,0.0,0.0,0.0,0.0,0.0,0.0,0.0,0.0,0.0,0.0,0.0,0.0,0.0,0.0,0.0,0.0,0.0,0.0,0.0,0.0,0.0,0.0,0.0,0.0,0.0,0.0,0.0,0.0,0.0,0.0,0.0,0.0,0.0,0.0,0.0,0.0,0.0,0.0,0.0,0.0,0.0,0.0,0.0,0.0,0.0,0.0,0.0,0.0,0.0,0.0,0.0,0.0,0.0,0.0,0.0,0.0,0.0,0.0,0.0,0.0,0.0,0.0,0.0,0.0,0.0,0.0,0.9728,0.9542,1.017,1.038,1.0221,1.0049,0.9956,0.0,0.0,0.0,0.0,0.0,0.0,0.0,0.0,0.0,0.0,0.0,0.0,0.0,0.0,0.0,0.0,0.0,0.0,0.0,0.0,0.0,0.0,0.0,0.0,0.0,0.0,0.0,0.0,0.0,0.0,0.0,0.0,0.0,0.0,0.0,0.0,0.0,0.0,0.0,0.0,0.0,0.0,0.0,0.0,0.0,0.0,0.0,0.0,0.0,0.0,0.0,0.0,0.0,0.0,0.0,0.0,0.0,0.0,0.0,0.0,0.0,0.0,0.0,0.0,0.0,0.0,0.0,0.0,0.0,0.0,0.0,0.0,0.0,0.0,0.0,0.0,0.0,0.0,0.0,0.0,0.0,0.0,0.0,0.0,0.0,0.0,0.0,0.0,0.0,0.0,0.0,0.0,0.0,0.0,0.0,0.0,0.0,0.0,0.0,0.0,0.0,0.0,0.0,0.0,0.0,0.0,0.0,0.0,0.0,1.0288,1.0869,1.1074,1.0895,1.0764,1.0688,0.0,0.0,0.0,0.0,0.0,0.0,0.0,0.0,0.0,0.0,0.0,0.0,0.0,0.0,0.0,0.0,0.0,0.0,0.0,0.0,0.0,0.0,0.0,0.0,0.0,0.0,0.0,0.0,0.0,0.0,0.0,0.0,0.0,0.0,0.0,0.0,0.0,0.0,0.0,0.0,0.0,0.0,0.0,0.0,0.0,0.0,0.0,0.0,0.0,0.0,0.0,0.0,0.0,0.0,0.0,0.0,0.0,0.0,0.0,0.0,0.0,0.0,0.0,0.0,0.0,0.0,0.0,0.0,0.0,0.0,0.0,0.0,0.0,0.0,0.0,0.0,0.0,0.0,0.0,0.0,0.0,0.0,0.0,0.0,0.0,0.0,0.0,0.0,0.0,0.0,0.0,0.0,0.0,0.0,0.0,0.0,0.0,0.0,0.0,0.0,0.0,0.0,0.0,0.0,0.0,0.0,0.0,0.0,0.0,1.0962,1.1532,1.1778,1.1625,1.1479,1.1404,1.1382,0.0,0.0,0.0,0.0,0.0,0.0,0.0,0.0,0.0,0.0,0.0,0.0,0.0,0.0,0.0,0.0,0.0,0.0,0.0,0.0,0.0,0.0,0.0,0.0,0.0,0.0,0.0,0.0,0.0,0.0,0.0,0.0,0.0,0.0,0.0,0.0,0.0,0.0,0.0,0.0,0.0,0.0,0.0,0.0,0.0,0.0,0.0,0.0,0.0,0.0,0.0,0.0,0.0,0.0,0.0,0.0,0.0,0.0,0.0,0.0,0.0,0.0,0.0,0.0,0.0,0.0,0.0,0.0,0.0,0.0,0.0,0.0,0.0,0.0,0.0,0.0,0.0,0.0,0.0,0.0,0.0,0.0,0.0,0.0,0.0,0.0,0.0,0.0,0.0,0.0,0.0,0.0,0.0,0.0,0.0,0.0,0.0,0.0,0.0,0.0,0.0,0.0,0.0,0.0,0.0,0.0,0.0,0.0,1.1494,1.2182,1.2483,1.2328,1.2228,1.2148,0.0,0.0,0.0,0.0,0.0,0.0,0.0,0.0,0.0,0.0,0.0,0.0,0.0,0.0,0.0,0.0,0.0,0.0,0.0,0.0,0.0,0.0,0.0,0.0,0.0,0.0,0.0,0.0,0.0,0.0,0.0,0.0,0.0,0.0,0.0,0.0,0.0,0.0,0.0,0.0,0.0,0.0,0.0,0.0,0.0,0.0,0.0,0.0,0.0,0.0,0.0,0.0,0.0,0.0,0.0,0.0,0.0,0.0,0.0,0.0,0.0,0.0,0.0,0.0,0.0,0.0,0.0,0.0,0.0,0.0,0.0,0.0,0.0,0.0,0.0,0.0,0.0,0.0,0.0,0.0,0.0,0.0,0.0,0.0,0.0,0.0,0.0,0.0,0.0,0.0,0.0,0.0,0.0,0.0,0.0,0.0,0.0,0.0,0.0,0.0,0.0,0.0,0.0,0.0,0.0,0.0,0.0,0.0,0.0,1.1464,1.2609,1.3148,1.2967,1.289,1.2864,0.0,0.0,0.0,0.0,0.0,0.0,0.0,0.0,0.0,0.0,0.0,0.0,0.0,0.0,0.0,0.0,0.0,0.0,0.0,0.0,0.0,0.0,0.0,0.0,0.0,0.0,0.0,0.0,0.0,0.0,0.0,0.0,0.0,0.0,0.0,0.0,0.0,0.0,0.0,0.0,0.0,0.0,0.0,0.0,0.0,0.0,0.0,0.0,0.0,0.0,0.0,0.0,0.0,0.0,0.0,0.0,0.0,0.0,0.0,0.0,0.0,0.0,0.0,0.0,0.0,0.0,0.0,0.0,0.0,0.0,0.0,0.0,0.0,0.0,0.0,0.0,0.0,0.0,0.0,0.0,0.0,0.0,0.0,0.0,0.0,0.0,0.0,0.0,0.0,0.0,0.0,0.0,0.0,0.0,0.0,0.0,0.0,0.0,0.0,0.0,0.0,0.0,0.0,0.0,0.0,0.0,0.0,0.0,1.1522,1.1382,1.2723,1.3371,1.321,1.2865,1.2847,0.0,0.0,0.0,0.0,0.0,0.0,0.0,0.0,0.0,0.0,0.0,0.0,0.0,0.0,0.0,0.0,0.0,0.0,0.0,0.0,0.0,0.0,0.0,0.0,0.0,0.0,0.0,0.0,0.0,0.0,0.0,0.0,0.0,0.0,0.0,0.0,0.0,0.0,0.0,0.0,0.0,0.0,0.0,0.0,0.0,0.0,0.0,0.0,0.0,0.0,0.0,0.0,0.0,0.0,0.0,0.0,0.0,0.0,0.0,0.0,0.0,0.0,0.0,0.0,0.0,0.0,0.0,0.0,0.0,0.0,0.0,0.0,0.0,0.0,0.0,0.0,0.0,0.0,0.0,0.0,0.0,0.0,0.0,0.0,0.0,0.0,0.0,0.0,0.0,0.0,0.0,0.0,0.0,0.0,0.0,0.0,0.0,0.0,0.0,0.0,0.0,0.0,0.0,0.0,0.0,0.0,0.0,0.0,1.1508,1.1297,1.2686,1.3337,1.3185,1.2556,1.2515,0.0,0.0,0.0,0.0,0.0,0.0,0.0,0.0,0.0,0.0,0.0,0.0,0.0,0.0,0.0,0.0,0.0,0.0,0.0,0.0,0.0,0.0,0.0,0.0,0.0,0.0,0.0,0.0,0.0,0.0,0.0,0.0,0.0,0.0,0.0,0.0,0.0,0.0,0.0,0.0,0.0,0.0,0.0,0.0,0.0,0.0,0.0,0.0,0.0,0.0,0.0,0.0,0.0,0.0,0.0,0.0,0.0,0.0,0.0,0.0,0.0,0.0,0.0,0.0,0.0,0.0,0.0,0.0,0.0,0.0,0.0,0.0,0.0,0.0,0.0,0.0,0.0,0.0,0.0,0.0,0.0,0.0,0.0,0.0,0.0,0.0,0.0,0.0,0.0,0.0,0.0,0.0,0.0,0.0,0.0,0.0,0.0,0.0,0.0,0.0,0.0,0.0,0.0,0.0,0.0,0.0,0.0,0.0,1.1444,1.1325,1.2669,1.3362,1.3278,1.3066,1.3049,0.0,0.0,0.0,0.0,0.0,0.0,0.0,0.0,0.0,0.0,0.0,0.0,0.0,0.0,0.0,0.0,0.0,0.0,0.0,0.0,0.0,0.0,0.0,0.0,0.0,0.0,0.0,0.0,0.0,0.0,0.0,0.0,0.0,0.0,0.0,0.0,0.0,0.0,0.0,0.0,0.0,0.0,0.0,0.0,0.0,0.0,0.0,0.0,1.1339,0.0,0.0,0.0,0.0,0.0,0.0,0.0,0.0,0.0,0.0,0.0,0.0,0.0,0.0,0.0,0.0,0.0,0.0,0.0,0.0,0.0,0.0,0.0,0.0,0.0,0.0,0.0,0.0,0.0,0.0,0.0,0.0,0.0,0.0,0.0,0.0,0.0,0.0,0.0,0.0,0.0,0.0,0.0,0.0,0.0,0.0,0.0,0.0,0.0,0.0,0.0,0.0,0.0,0.0,0.0,0.0,0.0,0.0,0.0,1.1592,1.1843,1.2858,1.3371,1.3312,1.3243,1.3226,0.0,0.0,0.0,0.0,0.0,0.0,0.0,0.0,0.0,0.0,0.0,0.0,0.0,0.0,0.0,0.0,0.0,0.0,0.0,0.0,0.0,0.0,0.0,0.0,0.0,0.0,0.0,0.0,0.0,0.0,0.0,0.0,0.0,0.0,0.0,0.0,0.0,0.0,0.0,0.0,0.0,0.0,0.0,0.0,0.0,0.0,0.0,0.0,0.0,0.0,0.0,0.0,0.0,0.0,0.0,0.0,0.0,0.0,0.0,0.0,0.0,0.0,0.0,0.0,0.0,0.0,0.0,0.0,0.0,0.0,0.0,0.0,0.0,0.0,0.0,0.0,0.0,0.0,0.0,0.0,0.0,0.0,0.0,0.0,0.0,0.0,0.0,0.0,0.0,0.0,0.0,0.0,0.0,0.0,0.0,0.0,0.0,0.0,0.0,0.0,0.0,0.0,0.0,0.0,0.0,0.0,0.0,1.1177,1.1787,1.238,1.3055,1.3362,1.332,1.3261,1.3286,1.3404,0.0,0.0,0.0,0.0,0.0,0.0,0.0,0.0,0.0,0.0,0.0,0.0,0.0,0.0,0.0,0.0,0.0,0.0,0.0,0.0,0.0,0.0,0.0,0.0,0.0,0.0,0.0,0.0,0.0,0.0,0.0,0.0,0.0,0.0,0.0,0.0,0.0,0.0,1.1308,1.0859,0.0,0.0,0.0,0.0,0.0,0.0,0.0,0.0,1.2552,0.0,0.0,0.0,0.0,0.0,0.0,0.0,0.0,0.0,0.0,0.0,0.0,0.0,0.0,0.0,0.0,0.0,0.0,0.0,0.0,0.0,0.0,0.0,0.0,0.0,0.0,0.0,0.0,0.0,0.0,0.0,0.0,0.0,0.0,0.0,0.0,0.0,0.0,0.0,0.0,0.0,0.0,0.0,0.0,0.0,0.0,0.0,0.0,0.0,0.0,0.0,0.0,0.0,0.0,0.0,0.0,1.0586,1.1135,1.1722,1.2388,1.3045,1.3404,1.3388,1.3379,1.3421,1.3554,0.0,0.0,0.0,0.0,0.0,0.0,0.0,0.0,0.0,0.0,0.0,0.0,0.0,0.0,0.0,0.0,0.0,0.0,0.0,0.0,0.0,0.0,0.0,0.0,0.0,0.0,0.0,0.0,0.0,0.0,0.0,0.0,0.0,0.0,0.0,0.0,0.0,0.0,0.0,1.0955,1.1323,0.0,0.0,0.0,0.0,0.0,0.0,0.0,0.0,1.3844,0.0,0.0,0.0,0.0,0.0,0.0,0.0,0.0,0.0,0.0,0.0,0.0,0.0,0.0,0.0,0.0,0.0,0.0,0.0,0.0,0.0,0.0,0.0,0.0,0.0,0.0,0.0,0.0,0.0,0.0,0.0,0.0,0.0,0.0,0.0,0.0,0.0,0.0,0.0,0.0,0.0,0.0,0.0,0.0,0.0,0.0,0.0,0.0,0.0,0.0,0.0,0.0,0.0,0.0,0.0,1.0583,1.1527,1.2155,1.2397,1.3054,1.3396,1.3396,1.3362,1.3438,0.0,0.0,0.0,0.0,0.0,0.0,0.0,0.0,0.0,0.0,0.0,0.0,0.0,0.0,0.0,0.0,0.0,0.0,0.0,0.0,0.0,0.0,0.0,0.0,0.0,0.0,0.0,0.0,0.0,0.0,0.0,0.0,0.0,0.0,0.0,0.0,0.0,0.0,0.0,0.0,1.0979,1.1501,1.1545,0.0,0.0,0.0,0.0,0.0,0.0,1.4424,1.4574,0.0,0.0,0.0,0.0,0.0,0.0,0.0,0.0,0.0,0.0,0.0,0.0,0.0,0.0,0.0,0.0,0.0,0.0,0.0,0.0,0.0,0.0,0.0,0.0,0.0,0.0,0.0,0.0,0.0,0.0,0.0,0.0,0.0,0.0,0.0,0.0,0.0,0.0,0.0,0.0,0.0,0.0,0.0,0.0,0.0,0.0,0.0,0.0,0.0,0.0,0.0,0.0,0.0,0.0,0.0,1.0518,1.1713,1.238,1.2424,1.3055,1.3396,1.3396,1.3346,1.3404,0.0,0.0,0.0,0.0,0.0,0.0,0.0,0.0,0.0,0.0,0.0,0.0,0.0,0.0,0.0,0.0,0.0,0.0,0.0,0.0,0.0,0.0,0.0,0.0,0.0,0.0,0.0,0.0,0.0,0.0,0.0,0.0,0.0,0.0,0.0,0.0,0.0,0.0,0.0,0.0,0.0,1.1863,1.2214,1.2859,0.0,0.0,0.0,0.0,1.4244,1.4829,0.0,0.0,0.0,0.0,0.0,0.0,0.0,0.0,0.0,0.0,0.0,0.0,0.0,0.0,0.0,0.0,0.0,0.0,0.0,0.0,0.0,0.0,0.0,0.0,0.0,0.0,0.0,0.0,0.0,0.0,0.0,0.0,0.0,0.0,0.0,0.0,0.0,0.0,0.0,0.0,0.0,0.0,0.0,0.0,0.0,0.0,0.0,0.0,0.0,0.0,0.0,0.0,0.0,0.0,0.0,0.0,1.0433,1.1157,1.1827,1.2402,1.3071,1.3404,1.3396,1.3396,1.3462,0.0,0.0,0.0,0.0,0.0,0.0,0.0,0.0,0.0,0.0,0.0,0.0,0.0,0.0,0.0,0.0,0.0,0.0,0.0,0.0,0.0,0.0,0.0,0.0,0.0,0.0,0.0,0.0,0.0,0.0,0.0,0.0,0.0,0.0,0.0,0.0,0.0,0.0,0.0,0.0,0.0,1.3106,1.4566,1.4906,1.5267,0.0,0.0,1.5061,1.5061,1.5148,0.0,0.0,0.0,0.0,0.0,0.0,0.0,0.0,0.0,0.0,0.0,0.0,0.0,0.0,0.0,0.0,0.0,0.0,0.0,0.0,0.0,0.0,0.0,0.0,0.0,0.0,0.0,0.0,0.0,0.0,0.0,0.0,0.0,0.0,0.0,0.0,0.0,0.0,0.0,0.0,0.0,0.0,0.0,0.0,0.0,0.0,0.0,0.0,0.0,0.0,0.0,0.0,0.0,0.0,0.0,0.9995,0.9783,1.1242,1.1927,1.1761,1.2809,1.3404,1.3404,1.3396,1.3281,0.0,0.0,0.0,0.0,0.0,0.0,0.0,0.0,0.0,0.0,0.0,0.0,0.0,0.0,0.0,0.0,0.0,0.0,0.0,0.0,0.0,0.0,0.0,0.0,0.0,0.0,0.0,0.0,0.0,0.0,0.0,0.0,0.0,0.0,0.0,0.0,0.0,0.0,0.0,0.0,0.0,0.0,1.4244,1.484,0.0,0.0,0.0,1.513,1.5133,0.0,0.0,0.0,0.0,0.0,0.0,0.0,0.0,0.0,0.0,0.0,0.0,0.0,0.0,0.0,0.0,0.0,0.0,0.0,0.0,0.0,0.0,0.0,0.0,0.0,0.0,0.0,0.0,0.0,0.0,0.0,0.0,0.0,0.0,0.0,0.0,0.0,0.0,0.0,0.0,0.0,0.0,0.0,0.0,0.0,0.0,0.0,0.0,0.0,0.0,0.0,0.0,0.0,0.0,0.0,0.0,0.0,0.9211,1.0977,1.1655,1.1219,1.2446,1.3218,1.3396,1.3233,0.0,0.0,0.0,0.0,0.0,0.0,0.0,0.0,0.0,0.0,0.0,0.0,0.0,0.0,0.0,0.0,0.0,0.0,0.0,0.0,0.0,0.0,0.0,0.0,0.0,0.0,0.0,0.0,0.0,0.0,0.0,0.0,0.0,0.0,0.0,0.0,0.0,0.0,0.0,0.0,0.0,0.0,1.3185,1.42,1.4703,1.5068,0.0,0.0,1.5053,1.5045,1.5624,1.5932,0.0,0.0,0.0,0.0,0.0,0.0,0.0,0.0,0.0,0.0,0.0,0.0,0.0,0.0,0.0,0.0,0.0,0.0,0.0,0.0,0.0,0.0,0.0,0.0,0.0,0.0,0.0,0.0,0.0,0.0,0.0,0.0,0.0,0.0,0.0,0.0,0.0,0.0,0.0,0.0,0.0,0.0,0.0,0.0,0.0,0.0,0.0,0.0,0.0,0.0,0.0,0.0,0.0,0.0,0.0,0.9132,0.987,1.0552,1.1102,1.1934,1.2711,1.3345,1.2806,1.217,0.0,0.0,0.0,0.0,0.0,0.0,0.0,0.0,0.0,0.0,0.0,0.0,0.0,0.0,0.0,0.0,0.0,0.0,0.0,0.0,0.0,0.0,0.0,0.0,0.0,0.0,0.0,0.0,0.0,0.0,0.0,0.0,0.0,0.0,0.0,0.0,0.0,0.0,0.0,0.0,0.0,1.4026,1.5635,1.5315,1.5169,0.0,0.0,1.4895,1.4917,1.5064,1.5434,1.6105,0.0,0.0,0.0,0.0,0.0,0.0,0.0,0.0,0.0,0.0,0.0,0.0,0.0,0.0,0.0,0.0,0.0,0.0,0.0,0.0,0.0,0.0,0.0,0.0,0.0,0.0,0.0,0.0,0.0,0.0,0.0,0.0,0.0,0.0,0.0,0.0,0.0,0.0,0.0,0.0,0.0,0.0,0.0,0.0,0.0,0.0,0.0,0.0,0.0,0.0,0.0,0.0,0.0,0.8578,0.897,0.9682,1.037,1.1023,1.1831,1.2594,1.337,1.2745,1.2116,0.0,0.0,0.0,0.0,0.0,0.0,0.0,0.0,0.0,0.0,0.0,0.0,0.0,0.0,0.0,0.0,0.0,0.0,0.0,0.0,0.0,0.0,0.0,0.0,0.0,0.0,0.0,0.0,0.9372,0.8908,0.8847,0.0,0.0,0.0,0.0,0.0,0.0,0.0,0.0,0.0,0.0,1.3492,1.4723,1.4683,0.0,0.0,1.4888,1.4733,1.4823,1.5369,1.5718,1.5533,1.5729,0.0,0.0,0.0,0.0,0.0,0.0,0.0,0.0,0.0,0.0,0.0,0.0,0.0,0.0,0.0,0.0,0.0,0.0,0.0,0.0,0.0,0.0,0.0,0.0,0.0,0.0,0.0,0.0,0.0,0.0,0.0,0.0,0.0,0.0,0.0,0.0,0.0,0.0,0.0,0.0,0.0,0.0,0.0,0.0,0.0,0.0,0.0,0.0,0.0,0.0,0.0,0.0,0.8384,0.8851,0.9553,1.0245,1.0921,1.1745,1.2537,1.3269,1.2523,1.1785,0.0,0.0,0.0,0.0,0.0,0.0,0.0,0.0,0.0,0.0,0.0,0.0,0.0,0.0,0.0,0.0,0.0,0.0,0.0,0.0,0.0,0.0,0.0,0.0,0.0,0.0,0.0,0.0,1.0207,0.9559,0.9505,0.0,0.0,0.0,0.0,0.0,0.0,0.0,0.0,0.0,0.0,1.3178,1.3873,1.4033,1.4153,1.4368,1.4454,1.4574,1.4692,1.5301,1.5643,1.5375,0.0,0.0,0.0,0.0,0.0,0.0,0.0,0.0,0.0,0.0,0.0,0.0,0.0,0.0,0.0,0.0,0.0,0.0,0.0,0.0,0.0,0.0,0.0,0.0,0.0,0.0,0.0,0.0,0.0,0.0,1.1417,0.0,0.0,0.0,0.0,0.0,0.0,0.0,0.0,0.0,0.0,0.0,0.0,0.0,0.0,0.0,0.0,0.0,0.0,0.0,0.0,0.0,0.0,0.8742,0.8728,0.9379,1.006,1.0786,1.165,1.2448,1.3151,1.1989,1.1002,1.0308,0.0,0.0,0.0,0.0,0.0,0.0,0.0,0.0,0.0,0.0,0.0,0.0,0.0,0.0,0.0,0.0,0.0,0.0,0.0,0.0,0.0,0.0,0.0,0.0,0.0,0.0,1.0229,1.0775,1.1068,0.0,0.0,0.0,0.0,0.0,0.0,0.0,0.0,0.0,0.0,1.2663,1.3258,1.3488,1.3574,1.3742,1.4125,1.4264,1.4338,1.4478,1.4632,1.5028,0.0,0.0,0.0,0.0,0.0,0.0,0.0,0.0,0.0,0.0,0.0,0.0,0.0,0.0,0.0,0.0,0.0,0.0,0.0,0.0,0.0,0.0,0.0,0.0,0.0,0.0,0.0,1.0559,1.0571,0.0,0.0,0.0,0.0,0.0,0.0,0.0,0.0,0.0,0.0,0.0,0.9765,1.0034,0.0,0.0,0.0,0.0,0.0,0.0,0.0,0.0,0.0,0.0,0.0,0.0,0.8008,0.8444,0.917,0.9933,1.0653,1.1458,1.2315,1.3159,1.1417,0.9692,0.8154,0.0,0.0,0.0,0.0,0.0,0.0,0.0,0.0,0.0,0.0,0.0,0.0,0.0,0.0,0.0,0.0,0.0,0.0,0.0,0.0,0.0,0.0,0.0,0.0,0.0,1.0021,0.0,0.0,0.0,0.0,0.0,0.0,0.0,0.0,0.0,0.0,0.0,1.1032,1.1237,1.186,1.24,1.278,1.2894,1.3101,0.0,0.0,0.0,0.0,0.0,0.0,0.0,0.0,0.0,0.0,0.0,0.0,0.0,0.0,1.7098,1.6967,1.6919,1.6932,1.6941,0.0,0.0,0.0,0.0,0.0,0.0,0.0,0.0,0.0,0.0,0.0,0.0,0.0,0.0,0.9638,0.0,0.9651,0.0,0.0,0.0,0.0,0.0,0.0,0.0,0.0,0.8805,0.8874,0.913,0.9369,0.9686,0.0,1.0398,1.0708,0.0,0.0,0.0,0.0,0.0,0.0,0.0,0.0,0.8418,0.8824,0.9656,1.0343,1.088,1.1708,1.2443,1.303,1.11,0.9212,0.7445,0.7705,0.7925,0.0,0.0,0.0,0.0,0.0,0.0,0.0,0.0,0.0,0.0,0.0,0.0,0.0,0.0,0.0,0.0,0.0,0.0,0.0,0.0,0.0,0.0,0.0,0.966,0.0,0.0,0.0,0.0,0.0,0.0,0.0,0.0,0.0,0.9713,1.0239,1.0673,1.0872,1.1208,1.161,1.2036,0.0,0.0,0.0,0.0,0.0,0.0,0.0,1.4813,1.5505,1.5773,1.621,1.7161,1.7471,1.7615,1.7764,0.0,0.0,1.7612,1.7546,1.7554,1.7554,1.7562,1.7393,1.6819,1.6465,1.6112,0.0,0.0,0.0,0.0,0.0,0.0,0.0,0.0,0.8803,0.8723,0.0,0.8662,0.0,0.0,0.0,0.0,0.0,0.8354,0.0,0.0,0.817,0.8308,0.841,0.8723,0.9131,0.9582,0.9906,1.021,1.0478,1.0497,0.0,0.0,0.0,0.0,0.0,0.0,0.9854,0.9788,1.0666,1.1243,1.139,1.2277,1.2774,1.2718,1.1061,0.9468,0.8066,0.7411,0.7102,0.7133,0.7135,0.0,0.0,0.0,0.0,0.0,0.0,0.0,0.0,0.0,0.0,0.0,0.0,0.0,0.0,0.0,0.0,0.0,0.0,0.0,0.0,0.942,0.0,0.0,0.0,0.0,0.0,0.0,0.0,0.0,0.0,0.0,1.0356,1.0175,1.0234,1.0835,0.0,0.0,0.0,0.0,1.1623,1.1652,1.2684,1.3566,1.3854,1.4652,1.5312,1.5575,0.0,0.0,1.7411,1.8654,1.9293,1.8933,1.8592,1.8209,1.7392,1.7369,1.7427,1.7419,1.7438,1.7354,1.7259,1.6701,1.6149,0.7864,0.0,0.0,0.0,0.0,0.8088,0.8039,0.8035,0.7922,0.7865,0.784,0.7849,0.0,0.0,0.0,0.0,0.0,0.0,0.752,0.7501,0.7471,0.7652,0.8046,0.8178,0.8518,0.9023,0.9316,0.9633,0.9995,1.014,1.0514,1.1026,0.0,0.0,0.0,0.0,0.9564,0.9635,1.0464,1.0998,1.1178,1.2062,1.1876,1.0579,1.071,0.9395,0.6432,0.6729,0.6475,0.5481,0.5963,0.0,0.0,0.0,0.0,0.0,0.0,0.0,0.0,0.0,0.0,0.0,0.0,0.0,0.0,0.0,0.0,0.0,0.0,0.0,0.8991,0.8779,0.8599,0.0,0.0,0.0,0.0,0.0,0.0,0.0,0.0,0.0,1.0599,1.0499,1.0528,0.0,0.0,1.0869,1.0503,1.1306,1.2007,1.2154,1.2814,0.0,1.3712,1.4143,1.4742,1.5611,1.6488,1.7212,1.7549,1.8007,1.8272,1.8141,1.7926,1.774,1.7773,1.8117,1.8397,1.8434,1.8434,1.8225,1.7653,1.733,1.7048,0.6938,0.7066,0.7439,0.7579,0.7515,0.7417,0.7393,0.7399,0.7273,0.7199,0.7131,0.7121,0.7092,0.7071,0.7145,0.0,0.0,0.0,0.7017,0.7116,0.7071,0.7249,0.7593,0.7758,0.8064,0.8487,0.8786,0.9126,0.9514,0.9751,1.011,1.0569,0.0,0.0,1.04,1.014,1.0028,1.0111,1.071,1.113,1.1379,1.2074,1.1657,1.0096,1.0357,0.9246,0.655,0.641,0.5993,0.5139,0.5302,0.631,0.0,0.0,0.0,0.0,0.0,0.0,0.0,0.0,0.0,0.0,0.0,0.8664,0.0,0.0,0.0,0.0,0.9032,0.8499,0.7928,0.8096,0.0,0.0,0.0,0.0,0.0,0.0,0.0,0.9817,0.9875,1.009,1.0665,1.0621,1.0611,1.0849,1.0857,1.0772,1.0577,0.0,1.1867,1.2177,1.2711,1.3165,1.3456,1.3995,1.4703,1.5685,1.6429,1.6963,1.7116,1.7193,1.7257,1.7285,1.7117,1.7048,1.7337,1.774,1.8168,1.8482,1.8537,1.835,1.7879,1.7586,1.7223,0.6114,0.5736,0.6526,0.6916,0.7005,0.6871,0.6865,0.6918,0.6818,0.6688,0.6565,0.6482,0.6429,0.6375,0.6421,0.0,0.672,0.6589,0.6612,0.6751,0.6861,0.6966,0.7095,0.7407,0.7695,0.7978,0.8315,0.8662,0.9067,0.9341,0.958,0.9789,1.0261,1.0548,1.0571,1.0765,1.0897,1.0968,1.125,1.1508,1.179,1.2241,1.1872,1.0608,1.006,0.9126,0.773,0.6465,0.5767,0.5758,0.5145,0.5811,0.8023,0.0,0.0,0.0,0.0,0.0,0.0,0.0,0.0,0.0,0.0,0.0,0.0,0.0,0.0,0.0,0.8185,0.0,0.6752,0.7476,0.0,0.0,0.0,0.8399,0.8922,0.9187,0.9454,0.9894,0.0,0.0,1.0671,1.0648,1.0591,1.0535,1.0543,1.0733,1.1141,1.1247,1.1425,1.1946,1.2523,1.2959,1.3218,1.403,1.4887,1.5545,1.5891,1.6044,1.6235,1.6289,1.6331,1.6438,1.6237,1.6126,1.6454,1.657,1.6824,1.7614,1.7838,1.7909,1.7865,1.7405,1.6922,0.6082,0.5482,0.5639,0.5893,0.6188,0.6159,0.6259,0.6452,0.636,0.6329,0.6291,0.6176,0.6114,0.6098,0.6168,0.616,0.6106,0.6075,0.6122,0.6199,0.6222,0.6467,0.6878,0.7005,0.7285,0.772,0.8042,0.8344,0.8648,0.9028,0.9299,0.9501,0.9723,0.9982,1.03,1.0449,1.0595,1.0765,1.1041,1.1373,1.1794,1.2065,1.161,1.0413,1.0383,0.9514,0.7713,0.7366,0.6977,0.6483,0.5822,0.6271,0.8002,0.7013,0.0,0.0,0.0,0.0,0.0,0.0,0.0,0.0,0.0,0.6991,0.7809,0.0,0.724,0.0,0.8456,0.825,0.7376,0.7675,0.0,0.0,0.7946,0.8287,0.8726,0.9085,0.9552,1.0204,1.033,1.0453,1.0669,1.0779,1.0793,1.0667,1.0963,1.1206,1.1271,1.1565,1.1792,1.2048,1.2466,1.2922,1.3153,1.3798,1.4376,1.4693,1.4878,1.5031,1.5226,1.5315,1.536,1.5448,1.5448,1.5462,1.5579,1.5622,1.575,1.6123,1.6658,1.7093,1.7101,1.6983,1.6892,0.6112,0.5532,0.5452,0.5616,0.5886,0.5616,0.5637,0.5845,0.5792,0.5899,0.6161,0.6172,0.6124,0.6041,0.6082,0.5941,0.5636,0.5628,0.5598,0.5558,0.5899,0.6245,0.6583,0.6873,0.7295,0.7853,0.804,0.8405,0.8924,0.9277,0.9603,0.9884,1.0066,1.0296,1.062,1.0366,1.0324,1.051,1.0873,1.121,1.1564,1.1841,1.1388,1.0234,1.039,0.9731,0.807,0.7763,0.7627,0.763,0.6995,0.7523,0.9387,0.8433,0.8189,0.0,0.0,0.0,0.0,0.0,0.0,0.0,0.0,0.0,0.0,0.0,0.6835,0.7878,0.8129,0.8003,0.7461,0.7654,0.7837,0.7913,0.8206,0.861,0.9058,0.9372,0.9717,1.0128,1.0282,1.0394,1.0523,1.0572,1.0621,1.0515,1.0746,1.0985,1.1153,1.1367,1.1579,1.1792,1.2084,1.2407,1.2779,1.3148,1.3488,1.3713,1.3878,1.4054,1.4315,1.4394,1.4472,1.4584,1.4662,1.4738,1.4755,1.4863,1.497,1.5151,1.555,1.5992,1.6295,1.6472,1.6538,0.618,0.5667,0.5596,0.5634,0.5702,0.518,0.5124,0.54,0.5312,0.5569,0.6088,0.6271,0.6264,0.613,0.612,0.5866,0.5428,0.5377,0.5261,0.5138,0.5748,0.6091,0.6276,0.6763,0.7348,0.8006,0.7996,0.8464,0.9367,0.9652,1.0026,1.0446,1.0652,1.09,1.1112,1.0471,1.0225,1.0429,1.0907,1.1276,1.1516,1.1813,1.1429,1.0378,1.0481,1.001,0.8868,0.8191,0.8194,0.8907,0.836,0.8919,1.0906,1.031,0.9572,0.0,0.7923,0.0,0.0,0.0,0.0,0.0,0.0,0.0,0.0,0.6411,0.6844,0.7528,0.7531,0.7484,0.7422,0.7675,0.8001,0.8373,0.8674,0.9039,0.952,0.9742,0.986,0.992,1.0116,1.0264,1.0244,1.0244,1.0215,1.0205,1.0235,1.04,1.0725,1.0867,1.1038,1.1348,1.1479,1.1763,1.2156,1.2365,1.2538,1.2812,1.2998,1.3165,1.3479,1.3529,1.3596,1.3789,1.3888,1.3937,1.3954,1.4181,1.4342,1.4374,1.4562,1.4921,1.5506,1.581,1.5954,0.6432,0.5469,0.5433,0.5251,0.4916,0.4734,0.5161,0.5925,0.5707,0.5752,0.6008,0.6047,0.6135,0.6261,0.6268,0.6163,0.6022,0.5743,0.5633,0.5635,0.5624,0.5734,0.5983,0.6308,0.6661,0.7065,0.7284,0.7833,0.8694,0.8999,0.953,1.0161,1.043,1.0652,1.0873,0.0,0.0,0.0,1.1736,1.2225,1.2577,1.276,1.2565,1.1963,1.1621,0.0,1.047,0.9956,0.9805,0.9994,0.9374,0.0,0.0,0.0,0.0,0.0,0.0,0.0,0.0,0.0,0.0,0.0,0.5966,0.626,0.6623,0.6768,0.6854,0.6966,0.7329,0.7699,0.8,0.8375,0.871,0.8989,0.9044,0.9203,0.9542,0.9554,0.9627,1.0021,1.006,1.0019,0.9921,0.9902,0.9882,0.9812,0.9822,0.9852,0.995,1.0273,1.0553,1.0764,1.1048,1.13,1.1468,1.1737,1.1902,1.2066,1.218,1.2389,1.2603,1.2656,1.2743,1.2965,1.3035,1.3109,1.3251,1.3387,1.3522,1.3652,1.3802,1.4146,1.4892,1.509,1.515,0.6494,0.0,0.568,0.5554,0.0,0.5254,0.5486,0.599,0.5493,0.5454,0.58,0.5942,0.5963,0.591,0.5898,0.5733,0.5415,0.528,0.5166,0.5129,0.542,0.5648,0.5874,0.6253,0.6723,0.7197,0.7339,0.7834,0.8646,0.8997,0.955,1.0341,1.0604,1.0978,1.1443,1.1707,1.1714,1.1465,1.188,1.2254,1.2538,1.2747,1.2617,1.2112,1.2079,0.0,0.0,0.0,0.0,0.0,0.0,0.0,0.0,1.0115,0.0,0.7965,0.73,0.6798,0.6525,0.6519,0.656,0.6589,0.6891,0.6975,0.6771,0.7164,0.752,0.7671,0.8074,0.841,0.8581,0.8722,0.8914,0.9215,0.9193,0.9294,0.9582,0.9554,0.9552,0.9738,0.9716,0.9616,0.9496,0.9496,0.9466,0.9366,0.9346,0.9346,0.9395,0.9763,1.0108,1.0283,1.0486,1.0706,1.0829,1.0981,1.1188,1.1311,1.1442,1.1608,1.1818,1.192,1.2011,1.2174,1.2347,1.249,1.2585,1.2749,1.2923,1.3057,1.3242,1.3514,1.4038,1.4374,1.461,0.656,0.6344,0.6019,0.6001,0.6184,0.5825,0.5748,0.5839,0.0,0.0,0.0,0.5824,0.5788,0.5572,0.5565,0.5305,0.4824,0.4829,0.4761,0.4649,0.5244,0.5615,0.5763,0.6239,0.6781,0.7388,0.7421,0.7852,0.8632,0.8994,0.9579,1.0346,1.0688,1.1198,1.1964,1.2419,1.2377,1.1843,1.2035,1.2262,1.2458,1.2721,1.2634,1.2238,1.2444,1.2309,1.1792,1.1679,1.1945,1.2597,1.2593,1.2599,1.2622,1.1953,1.0738,0.9031,0.8418,0.7766,0.6926,0.7025,0.7293,0.7597,0.7957,0.7824,0.706,0.7729,0.8299,0.8602,0.8862,0.9023,0.9042,0.8948,0.8987,0.9301,0.9282,0.9383,0.964,0.9576,0.945,0.9448,0.9419,0.9333,0.9299,0.9238,0.9159,0.9049,0.8954,0.8895,0.8955,0.9306,0.9674,0.9823,0.9961,1.0079,1.0205,1.0293,1.0399,1.0697,1.0755,1.0878,1.1124,1.1274,1.1375,1.1505,1.1737,1.192,1.1993,1.2216,1.2431,1.2484,1.2738,1.3012,1.3212,1.3635,1.4075,0.6695,0.6306,0.6253,0.6098,0.5846,0.5645,0.5487,0.5385,0.5235,0.5313,0.5594,0.5581,0.5686,0.5836,0.5836,0.5798,0.5702,0.5471,0.541,0.5421,0.538,0.5404,0.5538,0.5785,0.6144,0.6559,0.6689,0.7224,0.806,0.8412,0.8929,0.9618,0.9981,1.0598,1.148,1.213,1.2484,1.2549,1.2964,1.3316,1.3572,1.367,1.3776,1.3844,1.3394,1.3197,1.3189,1.2275,1.185,1.201,1.1601,1.1364,1.1347,1.0641,1.0001,0.9543,0.8751,0.8129,0.7815,0.7515,0.7556,0.8034,0.8011,0.8024,0.8253,0.8616,0.8831,0.8771,0.8789,0.8874,0.9132,0.9142,0.9226,0.9423,0.9456,0.9453,0.9397,0.9315,0.9292,0.9341,0.9431,0.9461,0.9419,0.9312,0.9175,0.9036,0.8772,0.8492,0.859,0.8915,0.9226,0.9317,0.9468,0.9578,0.9657,0.9784,0.9932,1.0088,1.0186,1.0322,1.063,1.0736,1.0821,1.1038,1.1226,1.1338,1.1412,1.1682,1.192,1.2,1.2282,1.2561,1.2808,1.3035,1.3306,0.6287,0.6047,0.6023,0.5951,0.578,0.5592,0.5412,0.5277,0.5151,0.5142,0.5264,0.5198,0.5217,0.5285,0.5308,0.5308,0.5285,0.5221,0.5204,0.5264,0.528,0.5356,0.5507,0.5702,0.5982,0.6291,0.6467,0.6856,0.7436,0.777,0.83,0.9074,0.9729,1.0354,1.0896,1.1264,1.1514,1.1737,1.2614,1.3203,1.3472,1.3261,1.324,1.3422,1.2961,1.2728,1.2773,1.236,1.213,1.217,1.1937,1.1597,1.1167,1.0771,1.0161,0.9326,0.9079,0.8694,0.8086,0.8151,0.8263,0.8364,0.865,0.8773,0.8652,0.9015,0.9135,0.882,0.9038,0.9217,0.9161,0.9214,0.9288,0.935,0.9268,0.9255,0.9335,0.9274,0.9266,0.9482,0.9572,0.9556,0.9461,0.9355,0.922,0.9062,0.8656,0.8369,0.826,0.838,0.859,0.8777,0.8967,0.9079,0.9128,0.9257,0.9417,0.9596,0.9646,0.9804,1.0098,1.0205,1.037,1.0582,1.0764,1.0888,1.0964,1.1255,1.146,1.1579,1.1836,1.2138,1.2419,1.2668,1.3012,0.5913,0.5803,0.5803,0.5803,0.5749,0.5577,0.5419,0.53,0.5087,0.5007,0.4985,0.4912,0.4832,0.4796,0.4796,0.4796,0.4812,0.4864,0.4928,0.4985,0.5151,0.5325,0.5475,0.5655,0.5882,0.6191,0.6383,0.6649,0.6981,0.7279,0.7782,0.8542,0.9446,1.0018,1.026,1.0473,1.0672,1.0888,1.1814,1.2484,1.2743,1.2493,1.2421,1.2476,1.2212,1.2038,1.2067,1.2048,1.2024,1.201,1.1891,1.1531,1.0871,1.0765,1.0184,0.9143,0.9394,0.9378,0.8767,0.9009,0.916,0.9013,0.9497,0.9648,0.9374,0.9583,0.9554,0.9085,0.953,0.9771,0.9491,0.9446,0.9441,0.9367,0.9231,0.9292,0.9425,0.9396,0.9407,0.9655,0.9732,0.9665,0.9541,0.9424,0.919,0.8859,0.8557,0.8334,0.8171,0.7997,0.8011,0.8253,0.8475,0.861,0.8659,0.8793,0.8947,0.9139,0.9228,0.9388,0.9636,0.9823,0.998,1.0186,1.038,1.0515,1.0622,1.086,1.1086,1.1207,1.1486,1.1799,1.2156,1.2455,1.2803,0.5913,0.5811,0.5803,0.5772,0.5701,0.5568,0.5451,0.537,0.5109,0.5007,0.5011,0.487,0.4818,0.4796,0.4802,0.4808,0.4808,0.4812,0.4873,0.4947,0.4992,0.5166,0.5433,0.5505,0.5757,0.6168,0.6353,0.659,0.69,0.7131,0.748,0.8023,0.8845,0.9354,0.9554,1.0149,1.0519,1.0625,1.0793,1.1074,1.1474,1.1834,1.1914,1.1623,1.1578,1.1595,1.1594,1.1186,1.0919,1.0823,1.0383,0.9951,0.973,0.9678,0.9521,0.9186,0.9754,1.0189,1.0315,1.0238,1.0225,1.0482,1.0387,1.0452,1.0637,1.0689,1.0349,0.9817,1.0185,1.0387,1.0228,1.0055,0.9913,0.9754,0.9645,0.9645,0.9662,0.9663,0.968,0.9696,0.9834,0.9882,0.9785,0.9469,0.9016,0.858,0.8433,0.8353,0.8271,0.8039,0.785,0.7939,0.8087,0.8248,0.8278,0.8427,0.8602,0.8736,0.8906,0.9088,0.9308,0.9565,0.9782,0.9932,1.0069,1.0205,1.0341,1.0535,1.0725,1.0954,1.1207,1.1512,1.1975,1.2276,1.2538,0.5936,0.5857,0.5819,0.5756,0.5676,0.5545,0.5467,0.5383,0.5284,0.5238,0.5246,0.5253,0.511,0.483,0.497,0.5049,0.5055,0.519,0.5309,0.5379,0.5484,0.5642,0.5826,0.6017,0.6154,0.6212,0.6425,0.6553,0.6722,0.7095,0.7495,0.7836,0.8319,0.8636,0.8811,0.9197,0.9429,0.9503,0.9886,1.0074,1.0072,1.0618,1.0907,1.0758,1.0491,1.0332,1.0334,1.0138,1.0,1.0035,1.0237,1.0326,1.0223,1.061,1.0762,1.0543,1.0445,1.043,1.0438,1.0507,1.0433,1.0185,1.0562,1.0634,1.02,1.07,1.0782,1.021,1.0277,1.0285,0.9933,0.9942,0.9918,0.9758,0.9667,0.9687,0.9795,0.9811,0.9875,1.0026,1.0111,1.0006,0.9753,0.9424,0.9093,0.8751,0.8608,0.8459,0.8358,0.8143,0.8018,0.7978,0.8002,0.7924,0.7938,0.807,0.8275,0.8467,0.859,0.8732,0.9047,0.9177,0.9386,0.9704,0.9823,0.9941,1.0088,1.0283,1.0486,1.0745,1.1153,1.1519,1.1704,1.1986,1.224,0.5967,0.5904,0.5834,0.5772,0.5724,0.5652,0.5607,0.5575,0.554,0.5534,0.5541,0.5584,0.5389,0.5075,0.5231,0.531,0.5323,0.5511,0.5615,0.5695,0.5819,0.5943,0.6097,0.6373,0.6442,0.6389,0.6594,0.6758,0.6859,0.7349,0.7754,0.7996,0.8244,0.8464,0.8647,0.8805,0.8941,0.9113,0.9582,0.9728,0.9745,1.0189,1.0344,1.0022,0.9663,0.9576,0.9849,0.9861,0.9961,1.0185,1.0798,1.1057,1.0915,1.1398,1.1658,1.1589,1.1143,1.0894,1.0874,1.1032,1.095,1.0544,1.0982,1.0944,1.0465,1.0889,1.1093,1.067,1.0539,1.0375,1.0055,1.0038,1.0047,0.9874,0.9811,0.9851,0.9918,0.9925,0.9994,1.0167,1.0082,0.9947,0.9517,0.9223,0.8993,0.8862,0.8655,0.8535,0.8393,0.8212,0.8036,0.8078,0.7945,0.7831,0.7759,0.7832,0.8038,0.816,0.827,0.8537,0.8793,0.8874,0.9016,0.9406,0.9534,0.9693,0.9891,1.0078,1.0351,1.0668,1.1029,1.1381,1.1541,1.176,1.195,0.5967,0.5919,0.5834,0.584,0.5817,0.5927,0.5987,0.5957,0.5904,0.5874,0.5844,0.5714,0.5596,0.5566,0.5602,0.559,0.5602,0.562,0.5651,0.5664,0.5826,0.5943,0.6036,0.6332,0.6556,0.6633,0.6861,0.7162,0.759,0.7948,0.826,0.8464,0.879,0.9081,0.9217,0.9422,0.9723,0.982,0.9939,1.0294,1.0777,1.1002,1.0516,0.9613,0.9395,0.9874,1.061,1.0751,1.1048,1.1828,1.189,1.1766,1.1435,1.1448,1.1671,1.1919,1.1675,1.174,1.2211,1.2166,1.2054,1.1951,1.1783,1.1794,1.1546,1.1467,1.1355,1.1224,1.1022,1.0939,1.0864,1.0623,1.0529,1.0394,1.0307,1.0161,1.0005,1.0,1.0002,0.9973,0.9784,0.9498,0.9113,0.891,0.8771,0.8659,0.8508,0.8409,0.8358,0.8114,0.8056,0.8084,0.8006,0.7856,0.78,0.7788,0.7764,0.7881,0.8182,0.8402,0.8537,0.8692,0.8895,0.9096,0.9326,0.9534,0.9693,0.9931,1.0244,1.0544,1.0783,1.1088,1.1306,1.1466,1.166,0.6687,0.6533,0.6429,0.6377,0.6375,0.6332,0.6339,0.632,0.6237,0.6207,0.6155,0.6168,0.6153,0.6092,0.6098,0.6021,0.5875,0.6033,0.6027,0.5889,0.5968,0.5996,0.5981,0.6358,0.6553,0.6624,0.6932,0.7261,0.7494,0.777,0.8026,0.8314,0.8669,0.8936,0.9113,0.9349,0.9532,0.9682,0.9786,1.002,1.0393,1.0454,1.0425,1.0423,1.0842,1.122,1.1474,1.1514,1.1609,1.1822,1.2282,1.2518,1.2412,1.2637,1.2705,1.2563,1.2379,1.2301,1.235,1.2258,1.2126,1.1977,1.1927,1.1828,1.1669,1.1469,1.1326,1.1167,1.0964,1.0845,1.0726,1.0624,1.0514,1.0393,1.0213,1.0076,1.0025,1.0007,0.9947,0.9751,0.9439,0.914,0.8929,0.8771,0.8633,0.8494,0.8421,0.8395,0.8388,0.8332,0.8235,0.8287,0.8294,0.8201,0.8004,0.7859,0.7795,0.7881,0.8058,0.8196,0.8327,0.8475,0.8659,0.8935,0.9165,0.9415,0.9614,0.997,1.0244,1.0428,1.0668,1.0888,1.1078,1.1287,1.1474,0.7047,0.6902,0.6757,0.672,0.668,0.6651,0.6619,0.6617,0.6574,0.6517,0.6454,0.6487,0.6462,0.641,0.641,0.6304,0.6134,0.6304,0.6292,0.6151,0.612,0.6063,0.6034,0.631,0.6448,0.6486,0.6987,0.7341,0.7599,0.7845,0.8114,0.8447,0.8776,0.9065,0.9281,0.9503,0.9697,0.9855,0.9957,1.021,1.0512,1.066,1.0987,1.1553,1.2125,1.2302,1.2099,1.1941,1.1968,1.2158,1.2644,1.2858,1.2754,1.3014,1.3027,1.2666,1.2464,1.2347,1.2181,1.211,1.1977,1.1852,1.1753,1.1603,1.1452,1.1276,1.1099,1.0922,1.0769,1.0565,1.0385,1.029,1.0239,1.0136,1.0032,0.9921,0.987,0.9836,0.9681,0.9413,0.914,0.891,0.8752,0.856,0.8448,0.8348,0.8289,0.8235,0.8242,0.8268,0.8328,0.8342,0.8329,0.8332,0.8247,0.8087,0.7946,0.8009,0.8034,0.8102,0.8229,0.8336,0.8484,0.8741,0.9024,0.9306,0.9625,0.998,1.0205,1.0351,1.0553,1.0774,1.0975,1.1155,1.1343,0.7012,0.6954,0.6771,0.6793,0.6815,0.6881,0.6908,0.6905,0.6894,0.6784,0.6637,0.6568,0.6489,0.6432,0.641,0.6404,0.6386,0.6404,0.6386,0.6313,0.6163,0.6067,0.5999,0.6089,0.6191,0.6258,0.6934,0.7492,0.785,0.8146,0.8467,0.8847,0.9173,0.9412,0.9737,0.9964,1.0301,1.0434,1.0507,1.0943,1.1699,1.171,1.196,1.2557,1.2713,1.2647,1.2432,1.2053,1.221,1.2798,1.292,1.2764,1.2381,1.24,1.2322,1.2055,1.1869,1.1854,1.1861,1.1857,1.1756,1.1616,1.1451,1.1309,1.114,1.099,1.0794,1.0598,1.0496,1.036,1.0051,0.9921,0.9851,0.9799,0.9792,0.9732,0.9588,0.9484,0.9316,0.9061,0.8857,0.8745,0.8586,0.8374,0.8195,0.8115,0.8008,0.7922,0.7922,0.7955,0.8008,0.8109,0.8168,0.8178,0.8267,0.8345,0.8194,0.8102,0.8109,0.8165,0.8303,0.8416,0.8409,0.8635,0.8943,0.9226,0.9614,0.995,1.0098,1.0264,1.0467,1.0659,1.0812,1.0993,1.1193,0.7668,0.7636,0.7464,0.7372,0.7359,0.7297,0.7251,0.7217,0.7036,0.6872,0.6708,0.6645,0.6538,0.6438,0.641,0.641,0.641,0.641,0.6292,0.6119,0.5877,0.5695,0.5596,0.5579,0.5809,0.6169,0.6526,0.6842,0.7209,0.7656,0.8019,0.8334,0.8876,0.9239,0.9448,0.9734,1.0,1.0235,1.037,1.0702,1.1134,1.1222,1.155,1.205,1.1907,1.1828,1.2081,1.2356,1.2555,1.27,1.2584,1.235,1.2038,1.1975,1.1834,1.149,1.1365,1.137,1.1423,1.1303,1.1149,1.1038,1.108,1.0914,1.0557,1.0563,1.0507,1.0352,1.0231,1.0017,0.9777,0.9699,0.9647,0.9681,0.9577,0.9472,0.9342,0.914,0.8956,0.8857,0.8666,0.8427,0.8189,0.8008,0.7928,0.7762,0.7687,0.7655,0.7655,0.7714,0.772,0.7735,0.7821,0.7955,0.8047,0.8181,0.8204,0.8191,0.8208,0.83,0.8436,0.8483,0.8471,0.862,0.8926,0.9212,0.9592,0.9832,1.0,1.0147,1.0351,1.0495,1.0649,1.085,1.105,0.7992,0.7979,0.7795,0.7691,0.767,0.7482,0.7391,0.7349,0.7112,0.6886,0.673,0.6715,0.6587,0.6438,0.641,0.641,0.641,0.641,0.6319,0.61,0.5748,0.5529,0.5393,0.5207,0.5435,0.5903,0.6068,0.628,0.6676,0.7129,0.7532,0.783,0.845,0.8866,0.9079,0.9377,0.9655,0.9795,1.001,1.0273,1.0535,1.064,1.0888,1.1249,1.115,1.1218,1.15,1.1906,1.2064,1.1983,1.1892,1.1672,1.1323,1.1348,1.1264,1.0974,1.086,1.0851,1.0864,1.074,1.0552,1.0422,1.0447,1.0319,0.9915,0.9961,0.99,0.9726,0.97,0.9598,0.9369,0.9408,0.9425,0.9361,0.9361,0.9237,0.9087,0.891,0.8725,0.8593,0.8354,0.8109,0.7895,0.7762,0.7681,0.7521,0.7521,0.7521,0.7521,0.758,0.7547,0.7521,0.7601,0.7735,0.7848,0.7996,0.8156,0.8249,0.8293,0.8456,0.8611,0.8645,0.8639,0.8902,0.919,0.9266,0.9587,0.9739,0.9891,1.0049,1.0235,1.0409,1.0602,1.0736,1.0937,0.7992,0.7979,0.7787,0.7691,0.7677,0.7503,0.7391,0.7349,0.7112,0.6886,0.6736,0.6715,0.6587,0.6432,0.641,0.641,0.641,0.6367,0.6361,0.6213,0.583,0.5486,0.5347,0.5029,0.5119,0.5458,0.5542,0.5812,0.6203,0.6652,0.7061,0.7292,0.7858,0.8411,0.8604,0.9007,0.9206,0.9359,0.9636,0.9853,1.0039,1.0205,1.0341,1.0468,1.066,1.0805,1.0865,1.0965,1.0972,1.0933,1.1085,1.0925,1.0558,1.0633,1.0662,1.0382,1.0296,1.0238,1.0183,1.0106,0.9961,0.9711,0.9623,0.9398,0.9283,0.9206,0.9126,0.8906,0.9018,0.9057,0.8919,0.8987,0.907,0.9008,0.9054,0.9028,0.8831,0.8752,0.854,0.8254,0.8008,0.7821,0.7702,0.7574,0.7494,0.744,0.7413,0.7434,0.7408,0.7386,0.7461,0.7467,0.744,0.7494,0.7601,0.7735,0.7922,0.81,0.8223,0.8464,0.8732,0.8829,0.8929,0.9185,0.9416,0.9482,0.9568,0.9774,0.9887,1.0009,1.0196,1.0361,1.0505,1.0659,1.0822,0.7992,0.7979,0.7795,0.7691,0.7677,0.7482,0.7391,0.737,0.7112,0.6886,0.673,0.6715,0.6587,0.641,0.641,0.641,0.6389,0.6297,0.6249,0.6166,0.5656,0.5156,0.4842,0.4695,0.4707,0.4887,0.5016,0.512,0.5392,0.5904,0.6229,0.6378,0.6989,0.7471,0.7862,0.821,0.8593,0.9033,0.9308,0.9576,0.9823,1.0,1.0108,1.0196,1.0341,1.0458,1.0495,1.0525,1.0592,1.0659,1.0615,1.0459,1.0244,1.0263,1.0179,0.9938,0.9706,0.9615,0.9654,0.9443,0.9201,0.9151,0.9155,0.9036,0.8663,0.8738,0.8703,0.8576,0.8568,0.8577,0.8608,0.8614,0.8596,0.8574,0.8679,0.8685,0.8507,0.8268,0.8088,0.7955,0.7741,0.7574,0.744,0.7359,0.7257,0.7149,0.7144,0.7192,0.7166,0.7192,0.7246,0.7219,0.7219,0.7273,0.7359,0.7521,0.7681,0.7922,0.81,0.8338,0.8697,0.9029,0.9209,0.945,0.9711,0.9814,0.9856,0.9983,1.0008,1.0034,1.0088,1.0254,1.039,1.0563,1.0717,0.8041,0.7992,0.785,0.7753,0.7691,0.7475,0.7391,0.7328,0.7091,0.6865,0.6708,0.6645,0.6532,0.641,0.641,0.641,0.6389,0.6249,0.62,0.6096,0.5538,0.4978,0.4604,0.449,0.4523,0.4559,0.4684,0.4796,0.499,0.537,0.5664,0.5941,0.6375,0.6789,0.7123,0.7625,0.7998,0.8433,0.8805,0.9168,0.9337,0.9587,0.9705,0.9804,0.9971,1.0127,1.0254,1.0254,1.0303,1.039,1.0332,1.0215,1.0118,0.999,0.9803,0.9545,0.9308,0.9188,0.9085,0.8879,0.8688,0.8576,0.8598,0.8465,0.8207,0.8187,0.8134,0.8015,0.8014,0.8043,0.8054,0.8154,0.821,0.8212,0.8262,0.8295,0.8195,0.7975,0.7762,0.7601,0.7413,0.7246,0.7063,0.7063,0.6982,0.6874,0.6896,0.6896,0.6901,0.6977,0.7058,0.7085,0.7106,0.7192,0.7252,0.7359,0.7499,0.7708,0.8162,0.8342,0.8711,0.917,0.9454,0.9684,0.9967,1.0151,1.0157,1.0138,1.0127,1.0149,1.0102,1.0176,1.0342,1.0505,1.0659,0.8118,0.7992,0.7933,0.7816,0.767,0.7482,0.7391,0.7328,0.7062,0.6836,0.6687,0.6547,0.6489,0.641,0.6449,0.6428,0.6428,0.6369,0.6235,0.6021,0.5573,0.5074,0.4783,0.4649,0.4627,0.4627,0.4664,0.4864,0.5108,0.5334,0.5518,0.5856,0.6262,0.6424,0.6706,0.7181,0.7467,0.7668,0.8166,0.8503,0.8685,0.8987,0.9199,0.9299,0.9587,0.9833,0.9971,1.0019,1.0059,1.0225,1.0127,1.0069,1.003,0.9803,0.9536,0.9308,0.9088,0.8862,0.8578,0.8536,0.834,0.8136,0.8025,0.7876,0.7748,0.7652,0.756,0.7489,0.7484,0.7455,0.7416,0.7679,0.7828,0.7775,0.7794,0.7827,0.7791,0.7714,0.7477,0.7133,0.7085,0.6918,0.6788,0.6707,0.668,0.668,0.6707,0.6766,0.682,0.6928,0.7031,0.7112,0.7106,0.7106,0.7166,0.7225,0.7359,0.7574,0.8156,0.8501,0.8811,0.9221,0.9569,0.9882,1.0197,1.0354,1.0369,1.0339,1.0339,1.0335,1.0362,1.0367,1.0381,1.0516,1.0659,0.8118,0.8,0.7933,0.7816,0.7691,0.7503,0.7398,0.7384,0.7054,0.6866,0.67,0.6581,0.6486,0.6419,0.6579,0.6636,0.6525,0.6556,0.6481,0.6023,0.5913,0.5663,0.5369,0.5088,0.4908,0.4976,0.5353,0.5532,0.5615,0.5725,0.5996,0.6133,0.6298,0.6498,0.6507,0.6803,0.6941,0.7007,0.7436,0.7843,0.8059,0.8439,0.8716,0.8837,0.9199,0.9448,0.9616,0.9724,0.9773,0.9812,0.9823,0.9794,0.9744,0.9536,0.9288,0.9088,0.8886,0.8683,0.85,0.8288,0.8103,0.7979,0.7793,0.7586,0.7544,0.737,0.7265,0.7216,0.7129,0.7076,0.7099,0.7376,0.7497,0.7381,0.732,0.7356,0.7345,0.7285,0.7177,0.6998,0.6863,0.6761,0.6712,0.6647,0.6593,0.6517,0.6549,0.663,0.6739,0.682,0.6977,0.7079,0.7106,0.7106,0.7139,0.7225,0.7386,0.7574,0.8103,0.8474,0.8784,0.9171,0.9526,0.9987,1.0485,1.0557,1.0545,1.0708,1.0735,1.0684,1.0627,1.0628,1.0641,1.0646,1.0692,0.818,0.8,0.7966,0.785,0.7692,0.7617,0.7587,0.7529,0.729,0.7141,0.702,0.677,0.6681,0.6746,0.6692,0.6631,0.6649,0.6573,0.6405,0.6081,0.5911,0.5682,0.5595,0.547,0.5376,0.5307,0.5455,0.5637,0.5734,0.5863,0.593,0.612,0.6321,0.634,0.6419,0.6713,0.6814,0.6847,0.7258,0.7584,0.7553,0.7954,0.8296,0.8459,0.8756,0.8978,0.9128,0.9246,0.9441,0.9564,0.9513,0.9466,0.9545,0.9368,0.9157,0.8955,0.8805,0.8582,0.8365,0.8201,0.8028,0.7863,0.7697,0.7572,0.7426,0.7245,0.7133,0.711,0.7078,0.7051,0.7285,0.7396,0.7406,0.7395,0.7271,0.725,0.7163,0.7087,0.7003,0.6865,0.6824,0.6639,0.6544,0.6559,0.6497,0.6407,0.6346,0.6428,0.6468,0.6603,0.6896,0.7025,0.7079,0.7112,0.7139,0.7246,0.744,0.7702,0.8076,0.8342,0.8553,0.9001,0.9439,0.9888,1.0318,1.0685,1.0714,1.0907,1.1045,1.1063,1.1005,1.0957,1.0922,1.0949,1.0965,0.8234,0.8,0.8053,0.7938,0.7794,0.7858,0.7838,0.7771,0.7602,0.7372,0.7312,0.6957,0.6866,0.6983,0.67,0.6678,0.668,0.6501,0.6242,0.6236,0.5895,0.5725,0.5631,0.5714,0.5706,0.5574,0.572,0.5753,0.5844,0.5855,0.6142,0.6124,0.627,0.64,0.6476,0.6724,0.6815,0.6617,0.7136,0.7361,0.7194,0.7577,0.7974,0.818,0.8324,0.85,0.8651,0.8786,0.8997,0.9431,0.9051,0.905,0.9188,0.9188,0.9036,0.883,0.8671,0.8488,0.827,0.8134,0.7961,0.7698,0.7587,0.7546,0.7356,0.7204,0.7169,0.7189,0.722,0.7291,0.7685,0.756,0.7513,0.7494,0.7441,0.731,0.7096,0.6993,0.6861,0.6836,0.6807,0.6673,0.6539,0.6487,0.6369,0.629,0.6266,0.6256,0.6328,0.6477,0.6808,0.7031,0.7079,0.7166,0.7198,0.73,0.7488,0.7729,0.8076,0.8262,0.8448,0.8877,0.9323,0.9655,1.0028,1.0431,1.078,1.0913,1.1061,1.1271,1.132,1.1211,1.1198,1.1246,1.1269,0.8242,0.8023,0.8297,0.8303,0.8143,0.8206,0.8086,0.7864,0.7615,0.7251,0.6912,0.6799,0.6835,0.6838,0.6699,0.6626,0.6553,0.6336,0.6263,0.6302,0.603,0.5861,0.5912,0.579,0.5756,0.5975,0.6096,0.6253,0.6396,0.6644,0.6471,0.6706,0.6881,0.6848,0.6631,0.6735,0.6707,0.6421,0.682,0.695,0.6907,0.7308,0.7744,0.7921,0.8032,0.8177,0.8284,0.8322,0.8413,0.8597,0.8516,0.8569,0.8688,0.8708,0.8639,0.8549,0.8435,0.8291,0.8134,0.7942,0.781,0.7628,0.7426,0.7337,0.7319,0.7241,0.7236,0.7492,0.7489,0.7416,0.7165,0.7284,0.712,0.7002,0.6962,0.6951,0.6905,0.6838,0.6751,0.6805,0.6793,0.6786,0.6638,0.6552,0.6577,0.6534,0.6492,0.6417,0.6405,0.6601,0.6855,0.7014,0.7106,0.7192,0.7252,0.7381,0.7568,0.7756,0.8049,0.8289,0.8527,0.8824,0.9192,0.9498,0.9914,1.0377,1.0669,1.0864,1.113,1.1338,1.1375,1.1431,1.1544,1.1631,1.165,0.8532,0.8518,0.8618,0.8595,0.8457,0.8341,0.8241,0.8059,0.7684,0.743,0.7239,0.6994,0.6929,0.696,0.6654,0.6463,0.6339,0.619,0.613,0.6082,0.5923,0.5756,0.5805,0.562,0.5551,0.5568,0.5804,0.6098,0.6197,0.6324,0.6459,0.6607,0.6828,0.6887,0.6779,0.6823,0.6643,0.6426,0.6666,0.6801,0.6582,0.7169,0.7523,0.7657,0.7892,0.8084,0.818,0.8364,0.858,0.8769,0.8625,0.8662,0.8692,0.8615,0.8473,0.8344,0.826,0.8121,0.8021,0.7857,0.7838,0.7556,0.7419,0.7445,0.7402,0.7283,0.7273,0.7421,0.7578,0.7442,0.7372,0.731,0.7207,0.7031,0.6915,0.6876,0.6866,0.6792,0.679,0.6818,0.6816,0.6817,0.6798,0.6744,0.6777,0.6749,0.6698,0.6663,0.6591,0.6778,0.7002,0.7201,0.7307,0.7329,0.7438,0.7551,0.7639,0.7815,0.8049,0.8289,0.8553,0.885,0.9061,0.929,0.9792,1.0308,1.0514,1.0703,1.1032,1.1377,1.1507,1.1661,1.1878,1.1982,1.2008,0.8875,0.8989,0.8932,0.8867,0.8756,0.8504,0.835,0.8197,0.7791,0.7563,0.7534,0.7131,0.702,0.7025,0.6671,0.6273,0.6078,0.591,0.5792,0.5683,0.5486,0.5354,0.5288,0.5253,0.5254,0.5211,0.5273,0.5376,0.5654,0.5794,0.5896,0.6047,0.6334,0.656,0.6589,0.6648,0.6545,0.6637,0.6802,0.6817,0.6728,0.6961,0.7266,0.7314,0.7754,0.7987,0.8,0.8187,0.8464,0.8652,0.8606,0.8561,0.8851,0.8642,0.8345,0.8192,0.8201,0.808,0.7982,0.7924,0.7863,0.7621,0.7666,0.7624,0.756,0.7363,0.7272,0.7252,0.7309,0.7391,0.7404,0.7406,0.7274,0.713,0.6959,0.6872,0.6817,0.6785,0.6739,0.68,0.6839,0.6881,0.6888,0.695,0.6991,0.7033,0.7012,0.7099,0.7071,0.7047,0.724,0.7456,0.7598,0.7555,0.7615,0.7729,0.7796,0.7854,0.8109,0.8368,0.8606,0.885,0.9054,0.9249,0.9732,1.0205,1.0368,1.0598,1.0947,1.1301,1.1628,1.1873,1.2063,1.2229,1.2304,0.909,0.902,0.9178,0.9207,0.9109,0.8834,0.8532,0.8208,0.7886,0.737,0.6829,0.6991,0.6912,0.6655,0.6378,0.5989,0.5675,0.5519,0.543,0.5334,0.5097,0.4979,0.4936,0.4948,0.4989,0.494,0.5006,0.5162,0.5298,0.5347,0.5399,0.5494,0.5729,0.5875,0.6043,0.6253,0.6438,0.6438,0.6726,0.6855,0.6811,0.6807,0.6873,0.7001,0.7273,0.7539,0.7661,0.7861,0.8056,0.806,0.802,0.7949,0.7963,0.7949,0.7879,0.7953,0.815,0.8352,0.8224,0.808,0.7916,0.771,0.761,0.7486,0.7452,0.7491,0.7428,0.7386,0.7358,0.7233,0.7138,0.7058,0.6972,0.6854,0.6702,0.6654,0.6675,0.6618,0.6581,0.6642,0.666,0.6872,0.6989,0.7113,0.72,0.7264,0.7304,0.7411,0.7474,0.742,0.7511,0.7725,0.787,0.7858,0.7897,0.7998,0.8041,0.8018,0.823,0.8426,0.8534,0.873,0.9053,0.9306,0.9762,1.0043,1.018,1.047,1.0845,1.12,1.1502,1.1877,1.2206,1.237,1.2513,0.9608,0.9549,0.9484,0.9391,0.9253,0.8749,0.8348,0.8014,0.7458,0.7044,0.6752,0.67,0.6544,0.6268,0.6008,0.5716,0.5425,0.5328,0.5193,0.5054,0.4878,0.4785,0.4723,0.4686,0.4687,0.4707,0.4627,0.4617,0.4794,0.5035,0.5133,0.517,0.5378,0.5625,0.5668,0.5836,0.5963,0.6063,0.6268,0.6472,0.6612,0.667,0.6741,0.6855,0.7209,0.7371,0.7498,0.7834,0.7987,0.8037,0.8082,0.8139,0.8139,0.8145,0.8164,0.8171,0.8291,0.8257,0.8037,0.8017,0.7898,0.7778,0.7628,0.76,0.7474,0.7349,0.7266,0.7004,0.6939,0.6812,0.6625,0.644,0.6354,0.6329,0.6331,0.6306,0.6301,0.6346,0.635,0.6412,0.6511,0.6741,0.6937,0.7092,0.7209,0.7335,0.738,0.7447,0.7563,0.7684,0.7804,0.798,0.8086,0.8142,0.8207,0.8305,0.8367,0.8386,0.8477,0.8587,0.8436,0.8584,0.9004,0.9311,0.9644,0.9854,1.001,1.0411,1.0896,1.115,1.1377,1.1753,1.2126,1.2397,1.2575,0.9973,0.9921,0.9699,0.9543,0.9323,0.8626,0.8176,0.7849,0.7163,0.6796,0.6677,0.6448,0.6192,0.6003,0.5804,0.5566,0.5333,0.5306,0.5062,0.4867,0.4731,0.4648,0.4558,0.449,0.4578,0.4533,0.4741,0.4688,0.4726,0.4873,0.5084,0.4956,0.5173,0.5371,0.557,0.5584,0.5606,0.5859,0.5955,0.6082,0.6231,0.6416,0.6546,0.6777,0.7058,0.7327,0.7413,0.7691,0.7925,0.7945,0.8,0.8029,0.8088,0.8043,0.8075,0.8075,0.8128,0.7977,0.786,0.7829,0.7821,0.7727,0.7603,0.7517,0.7278,0.7095,0.6856,0.6613,0.642,0.6253,0.6083,0.5967,0.6013,0.5977,0.5925,0.5898,0.591,0.6062,0.6191,0.628,0.6379,0.6511,0.6741,0.697,0.7162,0.7349,0.7455,0.7477,0.7604,0.7715,0.7866,0.8005,0.819,0.8205,0.8195,0.834,0.8486,0.8707,0.8773,0.8773,0.8638,0.8817,0.9214,0.9435,0.957,0.9795,1.0032,1.0488,1.0913,1.1091,1.1301,1.1619,1.1968,1.2283,1.2642,0.9929,0.9799,0.9647,0.951,0.9337,0.8595,0.8112,0.7771,0.7286,0.6812,0.6483,0.6198,0.6075,0.5977,0.5826,0.5581,0.5321,0.5311,0.5019,0.4748,0.46,0.4506,0.4463,0.4553,0.4738,0.4696,0.4854,0.5012,0.511,0.5124,0.508,0.4901,0.5083,0.5208,0.5322,0.5425,0.546,0.5656,0.5756,0.5785,0.5882,0.6009,0.6146,0.6309,0.6576,0.6815,0.6933,0.723,0.7419,0.7419,0.758,0.7681,0.7756,0.7756,0.7756,0.7809,0.7735,0.7606,0.7574,0.7699,0.777,0.7646,0.7477,0.7306,0.7073,0.6678,0.6415,0.6295,0.6129,0.5923,0.5876,0.584,0.5774,0.5796,0.5741,0.5789,0.5855,0.5973,0.609,0.6154,0.6316,0.648,0.6614,0.6864,0.7091,0.7274,0.7295,0.7338,0.7453,0.7593,0.773,0.7908,0.8158,0.8165,0.8023,0.8182,0.8548,0.8802,0.8918,0.8952,0.8924,0.9159,0.9337,0.9423,0.9533,0.9799,1.0053,1.0418,1.0755,1.0981,1.1267,1.1669,1.2017,1.2357,1.2715,0.9818,0.9673,0.9543,0.9413,0.9228,0.8614,0.809,0.7646,0.719,0.6764,0.6386,0.6283,0.6247,0.6169,0.5979,0.5755,0.5532,0.5352,0.503,0.4835,0.4779,0.4698,0.4649,0.4701,0.4927,0.4812,0.4961,0.503,0.4934,0.5258,0.5324,0.522,0.5136,0.5198,0.5311,0.5371,0.5409,0.5381,0.5506,0.5534,0.5525,0.5681,0.5814,0.5955,0.6114,0.6332,0.6472,0.6766,0.6928,0.7095,0.7257,0.7365,0.744,0.744,0.7488,0.7542,0.7413,0.7344,0.7317,0.7473,0.7542,0.7327,0.7155,0.6997,0.6895,0.658,0.6383,0.6154,0.5923,0.5755,0.5582,0.5494,0.5406,0.5535,0.5599,0.5663,0.5741,0.5854,0.6076,0.6196,0.6386,0.6564,0.6668,0.6802,0.6981,0.7152,0.7186,0.7212,0.726,0.7384,0.7518,0.7688,0.7927,0.8113,0.7995,0.8299,0.8657,0.8854,0.9013,0.9074,0.9067,0.914,0.9279,0.9358,0.9486,0.9712,0.9986,1.0291,1.0581,1.0872,1.1301,1.1794,1.2126,1.2355,1.2624,0.9706,0.9536,0.9387,0.929,0.915,0.8617,0.808,0.7576,0.7115,0.6691,0.6343,0.6324,0.6253,0.6186,0.6001,0.5869,0.5728,0.5577,0.5292,0.5205,0.5218,0.509,0.4965,0.4969,0.5112,0.4962,0.4951,0.5011,0.5065,0.5272,0.5292,0.5241,0.519,0.5234,0.5412,0.5419,0.5314,0.5258,0.5305,0.5362,0.536,0.5523,0.5697,0.5823,0.5997,0.6108,0.6258,0.6502,0.6641,0.6769,0.6928,0.709,0.7198,0.7252,0.7306,0.7284,0.7241,0.715,0.7138,0.7112,0.7209,0.7121,0.6944,0.6839,0.6711,0.6513,0.6246,0.6028,0.5808,0.5605,0.5395,0.5364,0.5315,0.5448,0.5498,0.5558,0.5603,0.5741,0.6013,0.6212,0.6413,0.6553,0.6873,0.697,0.6941,0.7089,0.7139,0.7051,0.6905,0.7038,0.7273,0.7433,0.7636,0.7846,0.8029,0.8154,0.8323,0.8706,0.8893,0.9138,0.9182,0.9241,0.9234,0.9295,0.9434,0.9625,0.9788,0.9931,1.0352,1.0822,1.1231,1.1585,1.1764,1.1964,1.2275,0.9662,0.938,0.9263,0.9185,0.9112,0.8631,0.8093,0.7546,0.7067,0.6629,0.6235,0.6142,0.6068,0.598,0.6016,0.6052,0.6031,0.5962,0.5802,0.5707,0.5676,0.5519,0.5354,0.5312,0.5366,0.5252,0.5227,0.5278,0.5322,0.5312,0.5255,0.5163,0.5103,0.5208,0.5529,0.5455,0.5415,0.54,0.5396,0.5381,0.5363,0.5489,0.5638,0.5783,0.5893,0.5994,0.6151,0.6325,0.644,0.6435,0.6673,0.6862,0.6967,0.7011,0.7028,0.7018,0.6974,0.6942,0.6974,0.6824,0.6847,0.6984,0.6877,0.675,0.6671,0.6426,0.6056,0.5875,0.5636,0.5465,0.5395,0.5399,0.5388,0.5392,0.5436,0.5484,0.5559,0.561,0.5884,0.6231,0.639,0.6559,0.6916,0.7136,0.7014,0.7021,0.7078,0.6965,0.6691,0.6784,0.701,0.7196,0.7372,0.7561,0.7716,0.7751,0.7975,0.8407,0.8818,0.9077,0.9319,0.9451,0.9418,0.9302,0.9318,0.9458,0.9462,0.9469,0.9943,1.041,1.0841,1.1166,1.137,1.1582,1.1879,0.9569,0.9387,0.9263,0.908,0.889,0.8567,0.8056,0.7432,0.6863,0.6418,0.632,0.6516,0.6665,0.6615,0.6659,0.6681,0.6577,0.6434,0.6333,0.6005,0.6083,0.5922,0.5751,0.5666,0.5602,0.5485,0.547,0.5395,0.5371,0.5292,0.519,0.5087,0.4957,0.5034,0.5251,0.5306,0.5339,0.5238,0.5303,0.5333,0.5236,0.5381,0.5536,0.5662,0.5783,0.5928,0.6092,0.6265,0.6271,0.6287,0.6553,0.6731,0.6856,0.6942,0.7124,0.7077,0.7006,0.6721,0.6611,0.6492,0.6667,0.6851,0.685,0.6667,0.6529,0.6268,0.5982,0.5768,0.5577,0.5474,0.5408,0.5415,0.5394,0.5394,0.544,0.5504,0.5559,0.5614,0.579,0.6208,0.6472,0.6703,0.7046,0.7239,0.7172,0.7064,0.7099,0.6877,0.6604,0.6666,0.6863,0.699,0.7155,0.7312,0.7446,0.7614,0.7835,0.8248,0.8711,0.9131,0.9352,0.9518,0.9508,0.9381,0.93,0.9257,0.9267,0.9312,0.9556,0.9928,1.0333,1.0786,1.1066,1.1277,1.149,0.9458,0.9309,0.9185,0.8956,0.8666,0.8454,0.7993,0.7356,0.6944,0.6656,0.655,0.6953,0.7102,0.7039,0.7068,0.7255,0.7062,0.6881,0.6774,0.6415,0.6458,0.6356,0.6192,0.5955,0.5792,0.5657,0.5491,0.5395,0.5359,0.5123,0.4924,0.4794,0.4794,0.4821,0.4945,0.5061,0.517,0.5123,0.5203,0.5275,0.5273,0.5402,0.5586,0.5712,0.5825,0.5922,0.6082,0.6175,0.6215,0.6315,0.647,0.6646,0.6796,0.6941,0.7111,0.6996,0.6862,0.6598,0.6489,0.656,0.675,0.6959,0.6762,0.6533,0.636,0.6105,0.5862,0.5665,0.5543,0.5484,0.5422,0.5395,0.5395,0.5392,0.5416,0.5481,0.5508,0.5562,0.5707,0.6132,0.6457,0.6751,0.707,0.7239,0.7341,0.7229,0.7117,0.6836,0.6591,0.6718,0.681,0.6878,0.703,0.7236,0.742,0.7562,0.7821,0.8108,0.8521,0.8956,0.9203,0.9348,0.9384,0.9507,0.953,0.9471,0.9187,0.9188,0.9354,0.9545,0.9833,1.0264,1.0714,1.0944,1.1113,0.9309,0.9185,0.9035,0.8771,0.8454,0.8368,0.7923,0.7261,0.7449,0.7216,0.673,0.726,0.7394,0.7139,0.699,0.7102,0.7255,0.7135,0.7076,0.7031,0.6879,0.677,0.6481,0.6129,0.5921,0.5756,0.5594,0.5395,0.5359,0.5027,0.4694,0.4464,0.4531,0.4595,0.4661,0.4728,0.4878,0.4985,0.5045,0.5163,0.526,0.5422,0.5567,0.5759,0.5954,0.6061,0.6197,0.6278,0.6262,0.6287,0.6302,0.6445,0.6583,0.6729,0.669,0.6654,0.6617,0.6599,0.6552,0.6673,0.6688,0.6718,0.6385,0.6314,0.6197,0.5971,0.5687,0.5536,0.5455,0.5425,0.5359,0.5359,0.5359,0.5359,0.5359,0.5423,0.5436,0.5525,0.5665,0.594,0.6252,0.6583,0.6981,0.7195,0.731,0.7267,0.7184,0.7085,0.6897,0.6937,0.6959,0.6836,0.7029,0.7231,0.741,0.7562,0.7736,0.7979,0.8273,0.8671,0.8901,0.9165,0.9282,0.9473,0.9761,0.9749,0.9452,0.9201,0.9044,0.9298,0.9671,0.9864,1.0326,1.0523,1.0684,0.9309,0.9185,0.8956,0.8666,0.8401,0.8162,0.7724,0.7279,0.7473,0.7269,0.6753,0.7631,0.7758,0.7415,0.7663,0.7664,0.7603,0.7524,0.7429,0.7302,0.7007,0.6909,0.6646,0.6218,0.5991,0.5789,0.5591,0.5395,0.5296,0.4997,0.464,0.4398,0.4434,0.4423,0.442,0.4439,0.4645,0.4803,0.487,0.5024,0.5123,0.5219,0.5418,0.5653,0.5855,0.6,0.6172,0.6319,0.6298,0.6322,0.647,0.6638,0.6674,0.6807,0.6811,0.6679,0.667,0.6631,0.651,0.6523,0.6544,0.6461,0.6154,0.6134,0.6071,0.5896,0.5564,0.5442,0.5356,0.5302,0.5295,0.5268,0.5282,0.5299,0.5329,0.5426,0.5436,0.5466,0.5602,0.58,0.6138,0.6468,0.6827,0.7114,0.7214,0.7224,0.7212,0.7163,0.7158,0.7165,0.7109,0.6979,0.7079,0.7323,0.741,0.7561,0.7705,0.7887,0.8174,0.844,0.8651,0.8884,0.9117,0.947,0.991,0.9917,0.9724,0.9498,0.9279,0.9435,0.9748,0.9811,0.9919,1.019,1.0446,0.9283,0.9159,0.885,0.856,0.8295,0.8029,0.7724,0.7562,0.7832,0.7673,0.741,0.81,0.8204,0.783,0.7979,0.7947,0.7665,0.7488,0.7381,0.7251,0.7003,0.6872,0.6613,0.6251,0.5958,0.576,0.5591,0.5359,0.5216,0.4968,0.462,0.4522,0.4439,0.4471,0.4487,0.453,0.4554,0.4645,0.4733,0.4803,0.4891,0.499,0.519,0.5455,0.566,0.5826,0.6094,0.623,0.6325,0.6354,0.6511,0.6605,0.6638,0.6736,0.6634,0.6498,0.6452,0.6376,0.6303,0.6339,0.6313,0.6245,0.6071,0.6059,0.5955,0.5764,0.5551,0.5376,0.5285,0.5196,0.5198,0.5189,0.5185,0.5187,0.5305,0.5457,0.5433,0.5402,0.5538,0.5745,0.6011,0.6335,0.6631,0.6898,0.7111,0.7111,0.7201,0.73,0.7311,0.7386,0.7275,0.7163,0.7255,0.7432,0.7511,0.7605,0.7705,0.7887,0.8189,0.8401,0.8507,0.8804,0.922,0.9658,1.0102,1.0065,1.0023,0.98,0.9633,0.9839,1.0017,1.0111,1.0177,1.0213,1.043,0.9185,0.9133,0.8758,0.8421,0.8174,0.8012,0.7955,0.7988,0.8322,0.8357,0.8231,0.8594,0.8484,0.8089,0.8004,0.7824,0.7596,0.7368,0.7237,0.7171,0.6905,0.6741,0.6511,0.6148,0.5892,0.5763,0.5559,0.5275,0.5051,0.488,0.4748,0.472,0.4665,0.464,0.4629,0.4632,0.4624,0.4627,0.4654,0.4701,0.4776,0.4827,0.4964,0.5292,0.5465,0.5568,0.5848,0.6047,0.6209,0.6258,0.634,0.6493,0.6539,0.6509,0.6368,0.6291,0.6272,0.6237,0.621,0.6274,0.6263,0.6186,0.6126,0.5969,0.5766,0.5648,0.5462,0.5341,0.5256,0.5136,0.5099,0.5182,0.5227,0.5303,0.542,0.5501,0.5498,0.5513,0.5591,0.5796,0.601,0.6287,0.6437,0.6729,0.689,0.6923,0.7059,0.7238,0.7452,0.7553,0.75,0.738,0.7551,0.7665,0.7689,0.7731,0.7724,0.7898,0.8195,0.8368,0.8448,0.8844,0.9368,0.9784,1.0198,1.037,1.0335,1.0149,1.0106,1.0382,1.0501,1.0547,1.0541,1.0523,1.0469,0.914,0.9008,0.8606,0.8262,0.8012,0.8139,0.8259,0.8375,0.8477,0.8451,0.828,0.84,0.8382,0.8079,0.7857,0.7661,0.7368,0.7237,0.7106,0.6975,0.6745,0.6576,0.6416,0.6053,0.5796,0.5566,0.5359,0.5202,0.5003,0.4882,0.48,0.4692,0.4712,0.4728,0.4728,0.4725,0.4695,0.4646,0.4678,0.4663,0.4681,0.4706,0.4827,0.5136,0.5316,0.5555,0.5789,0.6006,0.6153,0.6262,0.6289,0.6366,0.6401,0.6355,0.632,0.6265,0.6209,0.6203,0.6197,0.6205,0.6172,0.601,0.5899,0.5669,0.5526,0.548,0.5432,0.5354,0.523,0.5108,0.5059,0.5174,0.5306,0.5421,0.5535,0.5545,0.5583,0.5629,0.5678,0.5863,0.6028,0.6189,0.6362,0.6502,0.6614,0.6746,0.6874,0.7071,0.7466,0.7661,0.7695,0.7654,0.788,0.7988,0.793,0.784,0.7817,0.7922,0.8195,0.8321,0.8421,0.887,0.9368,0.9844,1.0226,1.0436,1.0565,1.0539,1.0578,1.0836,1.0999,1.1022,1.1089,1.1108,1.0864,0.9087,0.8857,0.848,0.8162,0.7976,0.8177,0.8384,0.8498,0.8573,0.8516,0.8362,0.835,0.8214,0.7982,0.7792,0.7503,0.7237,0.7106,0.6975,0.6811,0.6613,0.6445,0.6218,0.5966,0.5695,0.5437,0.5231,0.5039,0.4972,0.4891,0.482,0.4827,0.4806,0.4803,0.4806,0.4809,0.4813,0.4738,0.4732,0.4734,0.474,0.4792,0.4901,0.5142,0.5365,0.5582,0.5776,0.6,0.6118,0.6208,0.6247,0.6247,0.624,0.6204,0.6144,0.6097,0.6097,0.6157,0.6171,0.6162,0.6087,0.5976,0.577,0.5623,0.5666,0.5588,0.535,0.5254,0.5179,0.5043,0.513,0.5234,0.5321,0.5427,0.5646,0.5794,0.5733,0.571,0.5821,0.5996,0.6119,0.6218,0.6391,0.6552,0.6696,0.6832,0.6918,0.711,0.7461,0.7787,0.78,0.7889,0.8091,0.8176,0.8094,0.7983,0.7871,0.8033,0.8213,0.8501,0.8738,0.9001,0.9368,0.9862,1.0283,1.0549,1.0663,1.0739,1.1011,1.1292,1.14,1.1493,1.1592,1.1787,1.179,0.9035,0.8725,0.8354,0.8082,0.7976,0.8219,0.8391,0.848,0.8608,0.857,0.842,0.8253,0.8112,0.7917,0.7759,0.7466,0.7209,0.704,0.6843,0.6609,0.6412,0.628,0.6098,0.5855,0.5651,0.5437,0.5177,0.5074,0.5037,0.4938,0.4904,0.4999,0.4979,0.4935,0.494,0.4924,0.4865,0.4801,0.4804,0.4878,0.4953,0.5029,0.5102,0.5245,0.5411,0.56,0.5823,0.5981,0.6093,0.6179,0.6244,0.6288,0.6288,0.6262,0.6178,0.6129,0.6155,0.6159,0.6112,0.6063,0.6113,0.6076,0.5792,0.567,0.5732,0.5588,0.5304,0.5199,0.5162,0.5101,0.515,0.5292,0.5416,0.5513,0.5772,0.5989,0.5916,0.5874,0.6031,0.616,0.6222,0.634,0.6453,0.6618,0.6745,0.6913,0.7077,0.7302,0.7526,0.7787,0.7914,0.8024,0.8191,0.8247,0.8235,0.8137,0.8017,0.8099,0.8294,0.8679,0.9001,0.9126,0.942,0.9888,1.0283,1.0641,1.0896,1.104,1.135,1.16,1.2003,1.2181,1.2402,1.2621,1.2926,0.8896,0.848,0.8268,0.8088,0.7979,0.8427,0.8492,0.8349,0.8723,0.8694,0.8296,0.8117,0.7954,0.7727,0.7591,0.7363,0.7106,0.6946,0.6716,0.6449,0.6379,0.6181,0.6018,0.5877,0.5708,0.5485,0.5223,0.5086,0.5078,0.4997,0.4947,0.5015,0.482,0.4781,0.4779,0.4771,0.4802,0.4801,0.4881,0.4972,0.4998,0.5092,0.5216,0.5342,0.5483,0.5702,0.5909,0.5983,0.6102,0.6211,0.6304,0.6363,0.6387,0.6414,0.6373,0.6283,0.6349,0.6284,0.6207,0.615,0.618,0.606,0.5828,0.5712,0.5702,0.5506,0.536,0.5283,0.5222,0.5109,0.5165,0.5398,0.5547,0.5666,0.5856,0.5996,0.6009,0.6133,0.6281,0.6375,0.6444,0.6524,0.6614,0.6766,0.6843,0.7007,0.7138,0.7363,0.7596,0.7824,0.8014,0.8178,0.8302,0.8444,0.8494,0.8312,0.8201,0.8263,0.8377,0.8692,0.8942,0.9126,0.9465,0.9914,1.0377,1.0786,1.1023,1.1175,1.1452,1.178,1.2517,1.2947,1.3153,1.3366,1.3575]}]]